[[{"header":{"parameterUnit":"m.s-1","parameterCategory":1,"la1":30.6,"la2":28.766,"lo1":-90.7593,"lo2":-88.6598,"dy":0.0162,"dx":0.0183,"nx":116,"ny":114,"refTime":"2023-03-19T06:00:00:Z","depth":0,"parameterNumber":2,"parameterNumberName":"U-component_of_WINDS"},"data":[0.0,0.0,0.0,0.0,0.0,0.0,0.0,0.0,0.0,0.0,0.0,0.0,0.0,0.0,0.0,0.0,0.0,0.0,0.0,0.0,0.0,0.0,0.0,0.0,0.0,0.0,0.0,0.0,0.0,0.0,0.0,0.0,0.0,0.0,0.0,0.0,0.0,0.0,0.0,0.0,0.0,0.0,0.0,0.0,0.0,0.0,0.0,0.0,0.0,0.0,0.0,0.0,0.0,0.0,0.0,0.0,0.0,0.0,0.0,0.0,0.0,0.0,0.0,0.0,0.0,0.0,0.0,0.0,0.0,0.0,0.0,0.0,0.0,0.0,0.0,0.0,0.0,0.0,0.0,0.0,0.0,0.0,0.0,0.0,0.0,0.0,0.0,0.0,0.0,0.0,0.0,0.0,0.0,0.0,0.0,0.0,0.0,0.0,0.0,0.0,0.0,0.0,0.0,0.0,0.0,0.0,0.0,0.0,0.0,0.0,0.0,0.0,0.0,0.0,0.0,0.0,0.0,0.0,0.0,0.0,0.0,0.0,0.0,0.0,0.0,0.0,0.0,0.0,0.0,0.0,0.0,0.0,0.0,0.0,0.0,0.0,0.0,0.0,0.0,0.0,0.0,0.0,0.0,0.0,0.0,0.0,0.0,0.0,0.0,0.0,0.0,0.0,0.0,0.0,0.0,0.0,0.0,0.0,0.0,0.0,0.0,0.0,0.0,0.0,0.0,0.0,0.0,0.0,0.0,0.0,0.0,0.0,0.0,0.0,0.0,0.0,0.0,0.0,0.0,0.0,0.0,0.0,0.0,0.0,0.0,0.0,0.0,0.0,0.0,0.0,0.0,0.0,0.0,0.0,0.0,0.0,0.0,0.0,0.0,0.0,0.0,0.0,0.0,0.0,0.0,0.0,0.0,0.0,0.0,0.0,0.0,0.0,0.0,0.0,0.0,0.0,0.0,0.0,0.0,0.0,0.0,0.0,0.0,0.0,0.0,0.0,0.0,0.0,0.0,0.0,0.0,0.0,0.0,0.0,0.0,0.0,0.0,0.0,0.0,0.0,0.0,0.0,0.0,0.0,0.0,0.0,0.0,0.0,0.0,0.0,0.0,0.0,0.0,0.0,0.0,0.0,0.0,0.0,0.0,0.0,0.0,0.0,0.0,0.0,0.0,0.0,0.0,0.0,0.0,0.0,0.0,0.0,0.0,0.0,0.0,0.0,0.0,0.0,0.0,0.0,0.0,0.0,0.0,0.0,0.0,0.0,0.0,0.0,0.0,0.0,0.0,0.0,0.0,0.0,0.0,0.0,0.0,0.0,0.0,0.0,0.0,0.0,0.0,0.0,0.0,0.0,0.0,0.0,0.0,0.0,0.0,0.0,0.0,0.0,0.0,0.0,0.0,0.0,0.0,0.0,0.0,0.0,0.0,0.0,0.0,0.0,0.0,0.0,0.0,0.0,0.0,0.0,0.0,0.0,0.0,0.0,0.0,0.0,0.0,0.0,0.0,0.0,0.0,0.0,0.0,0.0,0.0,0.0,0.0,0.0,0.0,0.0,0.0,0.0,0.0,0.0,0.0,0.0,0.0,0.0,0.0,0.0,0.0,0.0,0.0,0.0,0.0,0.0,0.0,0.0,0.0,0.0,0.0,0.0,0.0,0.0,0.0,0.0,0.0,0.0,0.0,0.0,0.0,0.0,0.0,0.0,0.0,0.0,0.0,0.0,0.0,0.0,0.0,0.0,0.0,0.0,0.0,0.0,0.0,0.0,0.0,0.0,0.0,0.0,0.0,0.0,0.0,0.0,0.0,0.0,0.0,0.0,0.0,0.0,0.0,0.0,0.0,0.0,0.0,0.0,0.0,0.0,0.0,0.0,0.0,0.0,0.0,0.0,0.0,0.0,0.0,0.0,0.0,0.0,0.0,0.0,0.0,0.0,0.0,0.0,0.0,0.0,0.0,0.0,0.0,0.0,0.0,0.0,0.0,0.0,0.0,0.0,0.0,0.0,0.0,0.0,0.0,0.0,0.0,0.0,0.0,0.0,0.0,0.0,0.0,0.0,0.0,0.0,0.0,0.0,0.0,0.0,0.0,0.0,0.0,0.0,0.0,0.0,0.0,0.0,0.0,0.0,0.0,0.0,0.0,0.0,0.0,0.0,0.0,0.0,0.0,0.0,0.0,0.0,0.0,0.0,0.0,0.0,0.0,0.0,0.0,0.0,0.0,0.0,0.0,0.0,0.0,0.0,0.0,0.0,0.0,0.0,0.0,0.0,0.0,0.0,0.0,0.0,0.0,0.0,0.0,0.0,0.0,0.0,0.0,0.0,0.0,0.0,0.0,0.0,0.0,0.0,0.0,0.0,0.0,0.0,0.0,0.0,0.0,0.0,0.0,0.0,0.0,0.0,0.0,0.0,0.0,0.0,0.0,0.0,0.0,0.0,0.0,0.0,0.0,0.0,0.0,0.0,0.0,0.0,0.0,0.0,0.0,0.0,0.0,0.0,0.0,0.0,0.0,0.0,0.0,0.0,0.0,0.0,0.0,0.0,0.0,0.0,0.0,0.0,0.0,0.0,0.0,0.0,0.0,0.0,0.0,0.0,0.0,0.0,0.0,0.0,0.0,0.0,0.0,0.0,0.0,0.0,0.0,0.0,0.0,0.0,0.0,0.0,0.0,0.0,0.0,0.0,0.0,0.0,0.0,0.0,0.0,0.0,0.0,0.0,0.0,0.0,0.0,0.0,0.0,0.0,0.0,0.0,0.0,0.0,0.0,0.0,0.0,0.0,0.0,0.0,0.0,0.0,0.0,0.0,0.0,0.0,0.0,0.0,0.0,0.0,0.0,0.0,0.0,0.0,0.0,0.0,0.0,0.0,0.0,0.0,0.0,0.0,0.0,0.0,0.0,0.0,0.0,0.0,0.0,0.0,0.0,0.0,0.0,0.0,0.0,0.0,0.0,0.0,0.0,0.0,0.0,0.0,0.0,0.0,0.0,0.0,0.0,0.0,0.0,0.0,0.0,0.0,0.0,0.0,0.0,0.0,0.0,0.0,0.0,0.0,0.0,0.0,0.0,0.0,0.0,0.0,0.0,0.0,0.0,0.0,0.0,0.0,0.0,0.0,0.0,0.0,0.0,0.0,0.0,0.0,0.0,0.0,0.0,0.0,0.0,0.0,0.0,0.0,0.0,0.0,0.0,0.0,0.0,0.0,0.0,0.0,0.0,0.0,0.0,0.0,0.0,0.0,0.0,0.0,0.0,0.0,0.0,0.0,0.0,0.0,0.0,0.0,0.0,0.0,0.0,0.0,0.0,0.0,0.0,0.0,0.0,0.0,0.0,0.0,0.0,0.0,0.0,0.0,0.0,0.0,0.0,0.0,0.0,0.0,0.0,0.0,0.0,0.0,0.0,0.0,0.0,0.0,0.0,0.0,0.0,0.0,0.0,0.0,0.0,0.0,0.0,0.0,0.0,0.0,0.0,0.0,0.0,0.0,0.0,0.0,0.0,0.0,0.0,0.0,0.0,0.0,0.0,0.0,0.0,0.0,0.0,0.0,0.0,0.0,0.0,0.0,0.0,0.0,0.0,0.0,0.0,0.0,0.0,0.0,0.0,0.0,0.0,0.0,0.0,0.0,0.0,0.0,0.0,0.0,0.0,0.0,0.0,0.0,0.0,0.0,0.0,0.0,0.0,0.0,0.0,0.0,0.0,0.0,0.0,0.0,0.0,0.0,0.0,0.0,0.0,0.0,0.0,0.0,0.0,0.0,0.0,0.0,0.0,0.0,0.0,0.0,0.0,0.0,0.0,0.0,0.0,0.0,0.0,0.0,0.0,0.0,0.0,0.0,0.0,0.0,0.0,0.0,0.0,0.0,0.0,0.0,0.0,0.0,0.0,0.0,0.0,0.0,0.0,0.0,0.0,0.0,0.0,0.0,0.0,0.0,0.0,0.0,0.0,0.0,0.0,0.0,0.0,0.0,0.0,0.0,0.0,0.0,0.0,0.0,0.0,0.0,0.0,0.0,0.0,0.0,0.0,0.0,0.0,0.0,0.0,0.0,0.0,0.0,0.0,0.0,0.0,0.0,0.0,0.0,0.0,0.0,0.0,0.0,0.0,0.0,0.0,0.0,0.0,0.0,0.0,0.0,0.0,0.0,0.0,0.0,0.0,0.0,0.0,0.0,0.0,0.0,0.0,0.0,0.0,0.0,0.0,0.0,0.0,0.0,0.0,0.0,0.0,0.0,0.0,0.0,0.0,0.0,0.0,0.0,0.0,0.0,0.0,0.0,0.0,0.0,0.0,0.0,0.0,0.0,0.0,0.0,0.0,0.0,0.0,0.0,0.0,0.0,0.0,0.0,0.0,0.0,0.0,0.0,0.0,0.0,0.0,0.0,0.0,0.0,0.0,0.0,0.0,0.0,0.0,0.0,0.0,0.0,0.0,0.0,0.0,0.0,0.0,0.0,0.0,0.0,0.0,0.0,0.0,0.0,0.0,0.0,0.0,0.0,0.0,0.0,0.0,0.0,0.0,0.0,0.0,0.0,0.0,0.0,0.0,0.0,0.0,0.0,0.0,0.0,0.0,0.0,0.0,0.0,0.0,0.0,0.0,0.0,0.0,0.0,0.0,0.0,0.0,0.0,0.0,0.0,0.0,0.0,0.0,0.0,0.0,0.0,0.0,0.0,0.0,0.0,0.0,0.0,0.0,0.0,0.0,0.0,0.0,0.0,0.0,0.0,0.0,0.0,0.0,0.0,0.0,0.0,0.0,0.0,0.0,0.0,0.0,0.0,0.0,0.0,0.0,0.0,0.0,0.0,0.0,0.0,0.0,0.0,0.0,0.0,0.0,0.0,0.0,0.0,0.0,0.0,0.0,0.0,0.0,0.0,0.0,0.0,0.0,0.0,0.0,0.0,0.0,0.0,0.0,0.0,0.0,0.0,0.0,0.0,0.0,0.0,0.0,0.0,0.0,0.0,0.0,0.0,0.0,0.0,0.0,0.0,0.0,0.0,0.0,0.0,0.0,0.0,0.0,0.0,0.0,0.0,0.0,0.0,0.0,0.0,0.0,0.0,0.0,0.0,0.0,0.0,0.0,0.0,0.0,0.0,0.0,0.0,0.0,0.0,0.0,0.0,0.0,0.0,0.0,0.0,0.0,0.0,0.0,0.0,0.0,0.0,0.0,0.0,0.0,0.0,0.0,0.0,0.0,0.0,0.0,0.0,0.0,0.0,0.0,0.0,0.0,0.0,0.0,0.0,0.0,0.0,0.0,0.0,0.0,0.0,0.0,0.0,0.0,0.0,0.0,0.0,0.0,0.0,0.0,0.0,0.0,0.0,0.0,0.0,0.0,0.0,0.0,0.0,0.0,0.0,0.0,0.0,0.0,0.0,0.0,0.0,0.0,0.0,0.0,0.0,0.0,0.0,0.0,0.0,0.0,0.0,0.0,0.0,0.0,0.0,0.0,0.0,0.0,0.0,0.0,0.0,0.0,0.0,0.0,0.0,0.0,0.0,0.0,0.0,0.0,0.0,0.0,0.0,0.0,0.0,0.0,0.0,0.0,0.0,0.0,0.0,0.0,0.0,0.0,0.0,0.0,0.0,0.0,0.0,0.0,0.0,0.0,0.0,0.0,0.0,0.0,0.0,0.0,0.0,0.0,0.0,0.0,0.0,0.0,0.0,0.0,0.0,0.0,0.0,0.0,0.0,0.0,0.0,0.0,0.0,0.0,0.0,0.0,0.0,0.0,0.0,0.0,0.0,0.0,0.0,0.0,0.0,0.0,0.0,0.0,0.0,0.0,0.0,0.0,0.0,0.0,0.0,0.0,0.0,0.0,0.0,0.0,0.0,0.0,0.0,0.0,0.0,0.0,0.0,0.0,0.0,0.0,0.0,0.0,0.0,0.0,0.0,0.0,0.0,0.0,0.0,0.0,0.0,0.0,0.0,0.0,0.0,0.0,0.0,0.0,0.0,0.0,0.0,0.0,0.0,0.0,0.0,0.0,0.0,0.0,0.0,0.0,0.0,0.0,0.0,0.0,0.0,0.0,0.0,0.0,0.0,0.0,0.0,0.0,0.0,0.0,0.0,0.0,0.0,1.1625,0.0,0.0,0.0,0.0,0.0,0.0,0.0,0.0,0.0,0.0,0.0,0.0,0.0,0.0,0.0,0.0,0.0,0.0,0.0,0.0,0.0,0.0,0.0,0.0,0.0,0.0,0.0,0.0,0.0,0.0,0.0,0.0,0.0,0.0,0.0,0.0,0.0,0.0,0.0,0.0,0.0,0.0,0.0,0.0,0.0,0.0,0.0,0.0,0.0,0.0,0.0,0.0,0.0,0.0,0.0,0.0,0.0,0.0,0.0,0.0,0.0,0.0,0.0,0.0,0.0,0.0,0.0,0.0,0.0,0.0,0.0,0.0,0.0,0.0,0.0,0.0,0.0,0.0,0.0,0.0,0.0,0.0,0.0,0.0,0.0,0.0,0.0,0.0,0.0,0.0,0.0,0.0,0.0,0.0,0.0,0.0,0.0,0.0,0.0,0.0,0.0,0.0,0.0,0.0,0.0,0.0,0.0,0.0,0.0,0.0,0.0,0.0,0.0,0.0,0.0,0.0,1.1274,0.0,0.0,0.0,0.0,0.0,0.0,0.0,0.0,0.0,0.0,0.0,0.0,0.0,0.0,0.0,0.0,0.0,0.0,0.0,0.0,0.0,0.0,0.0,0.0,0.0,0.0,0.0,0.0,0.0,0.0,0.0,0.0,0.0,0.0,0.0,0.0,0.0,0.0,0.0,0.0,0.0,0.0,0.0,0.0,0.0,0.0,0.0,0.0,0.0,0.0,0.0,0.0,0.0,0.0,0.0,0.0,0.0,0.0,0.0,0.0,0.0,0.0,0.0,0.0,0.0,0.0,0.0,0.0,0.0,0.0,0.0,0.0,0.0,0.0,0.0,0.0,0.0,0.0,0.0,0.0,0.0,0.0,0.0,0.0,0.0,0.0,0.0,0.0,0.0,0.0,0.0,0.0,0.0,0.0,0.0,0.0,0.0,0.0,0.0,0.0,0.0,0.0,0.0,0.0,0.0,0.0,0.0,0.0,0.0,0.6821,0.6992,0.7167,0.7676,0.8434,0.9262,0.9897,1.0428,0.0,0.0,0.0,0.0,0.0,0.0,0.0,0.0,0.0,0.0,0.0,0.0,0.0,0.0,0.0,0.0,0.0,0.0,0.0,0.0,0.0,0.0,0.0,0.0,0.0,0.0,0.0,0.0,0.0,0.0,0.0,0.0,0.0,0.0,0.0,0.0,0.0,0.0,0.0,0.0,0.0,0.0,0.0,0.0,0.0,0.0,0.0,0.0,0.0,0.0,0.0,0.0,0.0,0.0,0.0,0.0,0.0,0.0,0.0,0.0,0.0,0.0,0.0,0.0,0.0,0.0,0.0,0.0,0.0,0.0,0.0,0.0,0.0,0.0,0.0,0.0,0.0,0.0,0.0,0.0,0.0,0.0,0.0,0.0,0.0,0.0,0.0,-0.029,-0.0378,0.0,0.0,0.0,0.0,0.0,0.0,0.0,0.0,0.0,0.0,0.0,0.0,0.0,0.0,0.4299,0.5049,0.547,0.5627,0.5954,0.6253,0.6513,0.6879,0.7215,0.7577,0.816,0.0,1.0335,1.0852,0.0,0.0,0.0,0.0,0.0,0.0,0.0,0.0,0.0,0.0,0.0,0.0,0.0,0.0,0.0,0.0,0.0,0.0,0.0,0.0,0.0,0.0,0.0,0.0,0.0,0.0,0.0,0.0,0.0,0.0,0.0,0.0,0.0,0.0,0.0,0.0,0.0,0.0,0.0,0.0,0.0,0.0,0.0,0.0,0.0,0.0,0.0,0.0,0.0,0.0,0.0,0.0,0.0,0.0,0.0,0.0,0.0,0.0,0.0,0.0,0.0,0.0,0.0,0.0,0.0,0.0,0.0,0.0,0.0,0.0,0.0,0.0,0.0,0.0,0.0,0.0,0.0,0.0,0.0,0.0,0.0,0.0,0.0,0.0,0.0,-0.1163,-0.1486,-0.1683,-0.1244,-0.0831,0.0,0.0,0.0,0.0,0.0,0.0,0.0,0.0,0.0,0.2177,0.3069,0.3542,0.3547,0.4234,0.4594,0.4673,0.514,0.5473,0.5677,0.6124,0.6658,0.7266,0.7605,0.8447,0.9597,1.0043,1.0558,1.1202,0.0,0.0,0.0,0.0,0.0,1.8377,0.0,0.0,0.0,0.0,0.0,0.0,0.0,0.0,0.0,0.0,0.0,0.0,0.0,0.0,0.0,-1.1867,0.0,0.0,0.0,0.0,0.0,0.0,0.0,0.0,0.0,0.0,0.0,0.0,0.0,0.0,0.0,0.0,0.0,0.0,0.0,0.0,0.0,0.0,0.0,0.0,0.0,0.0,0.0,0.0,0.0,0.0,0.0,0.0,0.0,0.0,0.0,0.0,0.0,0.0,0.0,0.0,0.0,0.0,0.0,0.0,0.0,0.0,0.0,0.0,0.0,0.0,0.0,0.0,0.0,0.0,0.0,0.0,0.0,0.0,0.0,0.0,0.0,-0.2281,-0.2548,-0.2748,-0.2428,-0.2075,0.0,0.0,0.0,0.0,0.0,0.0,0.0358,0.0838,0.12,0.1426,0.2206,0.2713,0.2938,0.3549,0.3885,0.3965,0.446,0.4846,0.5069,0.559,0.6246,0.7013,0.7415,0.8117,0.896,0.9406,1.0075,1.0927,1.2015,1.3195,1.4429,1.5593,1.6764,1.7907,0.0,0.0,0.0,0.0,0.0,0.0,0.0,0.0,0.0,0.0,0.0,0.0,0.0,0.0,-1.1949,-1.2147,-1.2167,-1.1893,0.0,0.0,0.0,0.0,0.0,0.0,0.0,0.0,0.0,0.0,0.0,0.0,0.0,0.0,0.0,0.0,0.0,0.0,0.0,0.0,0.0,0.0,0.0,0.0,0.0,0.0,0.0,0.0,0.0,0.0,0.0,0.0,0.0,0.0,0.0,0.0,0.0,0.0,0.0,0.0,0.0,0.0,0.0,0.0,0.0,0.0,0.0,0.0,0.0,0.0,0.0,0.0,0.0,0.0,0.0,0.0,0.0,0.0,0.0,0.0,0.0,-0.3543,-0.3359,0.0,0.0,0.0,0.0,-0.088,-0.073,-0.0537,-0.0265,0.008,0.0405,0.0726,0.1482,0.2071,0.2521,0.3135,0.3549,0.3824,0.4107,0.4463,0.4932,0.5599,0.6153,0.6687,0.7724,0.8362,0.8753,0.9297,0.9831,1.0442,1.139,1.2351,1.3312,1.4311,1.5747,1.7278,0.0,0.0,0.0,0.0,0.0,0.0,0.0,0.0,0.0,0.0,0.0,0.0,0.0,-1.156,-1.2058,-1.2246,-1.2033,-1.1729,-1.1343,0.0,0.0,0.0,0.0,0.0,0.0,0.0,0.0,0.0,0.0,0.0,0.0,0.0,0.0,0.0,0.0,0.0,0.0,0.0,0.0,0.0,0.0,0.0,0.0,0.0,0.0,0.0,0.0,0.0,0.0,0.0,0.0,0.0,0.0,0.0,0.0,0.0,0.0,0.0,0.0,0.0,0.0,0.0,0.0,0.0,0.0,0.0,0.0,0.0,0.0,0.0,0.0,0.0,0.0,0.0,0.0,0.0,0.0,0.0,0.0,-0.3966,-0.3698,0.0,0.0,-0.2453,-0.1854,-0.1254,-0.1148,-0.0924,-0.0578,-0.0165,0.0277,0.0673,0.1427,0.2015,0.2493,0.3107,0.3497,0.3663,0.4162,0.4574,0.4928,0.5539,0.6202,0.6887,0.7454,0.817,0.8984,0.9414,0.9998,1.0729,1.1783,1.2809,1.38,1.4847,1.5939,1.7027,0.0,0.0,0.0,0.0,0.0,0.0,0.0,0.0,0.0,0.0,0.0,-1.0158,-1.0745,-1.1448,-1.1955,-1.2154,-1.1945,-1.1599,-1.1134,0.0,0.0,0.0,0.0,0.0,0.0,0.0,0.0,0.0,0.0,0.0,0.0,0.0,0.0,0.0,0.0,0.0,0.0,0.0,0.0,0.0,0.0,0.0,-1.272,0.0,0.0,0.0,0.0,0.0,0.0,0.0,0.0,0.0,0.0,0.0,0.0,0.0,0.0,0.0,0.0,0.0,0.0,0.0,0.0,0.0,0.0,0.0,0.0,0.0,0.0,0.0,0.0,0.0,0.0,0.0,0.0,0.0,0.0,0.0,-0.387,-0.4167,-0.3919,-0.3583,-0.3208,-0.2624,-0.2003,-0.141,-0.1246,-0.0982,-0.0561,-0.014,0.028,0.0757,0.1427,0.2043,0.2549,0.3163,0.3583,0.3805,0.4328,0.4767,0.5148,0.5691,0.6344,0.7053,0.7582,0.8253,0.9045,0.952,1.0218,1.1091,1.2166,1.3213,1.4156,1.5042,1.5953,1.6864,0.0,0.0,0.0,0.0,0.0,0.0,0.0,0.0,0.0,0.0,0.0,-0.9522,-1.0459,-1.115,-1.164,-1.1846,-1.1915,-1.154,-1.0557,-1.0237,0.0,0.0,0.0,0.0,0.0,0.0,0.0,0.0,0.0,0.0,0.0,0.0,0.0,0.0,0.0,0.0,0.0,0.0,0.0,0.0,0.0,0.0,-1.2733,0.0,0.0,0.0,0.0,0.0,0.0,0.0,0.0,0.0,0.0,0.0,0.0,0.0,0.0,0.0,0.0,0.0,0.0,0.0,0.0,0.0,0.0,0.0,0.0,0.0,0.0,0.0,0.0,0.0,0.0,0.0,0.0,0.0,-0.3313,-0.3785,-0.4105,-0.4184,-0.4053,-0.3744,-0.313,-0.2545,-0.1933,-0.1347,-0.1038,-0.0673,-0.0224,0.0084,0.0449,0.0926,0.1512,0.2099,0.2719,0.3304,0.3805,0.4221,0.4553,0.5046,0.5622,0.605,0.6561,0.7176,0.8165,0.8698,0.8884,0.9697,1.0523,1.1443,1.2437,1.3386,1.4259,1.4743,1.5622,1.68,0.0,0.0,0.0,0.0,0.0,0.0,0.0,0.0,0.0,0.0,-0.8092,-0.8944,-0.9595,-1.0398,-1.0988,-1.1219,-1.1096,-1.0819,-1.0447,0.0,0.0,0.0,0.0,0.0,0.0,0.0,0.0,0.0,0.0,0.0,0.0,0.0,0.0,0.0,0.0,0.0,0.0,0.0,0.0,0.0,0.0,0.0,-1.2526,0.0,0.0,0.0,0.0,0.0,0.0,0.0,0.0,0.0,0.0,0.0,0.0,0.0,0.0,0.0,0.0,0.0,0.0,0.0,0.0,0.0,0.0,0.0,0.0,0.0,0.0,0.0,0.0,0.0,0.0,0.0,0.0,-0.2589,-0.324,-0.3472,-0.3681,-0.3884,-0.3583,-0.316,-0.2717,-0.213,-0.1542,-0.1038,-0.0729,-0.0364,0.0056,0.0477,0.0981,0.154,0.2043,0.2603,0.319,0.3663,0.4107,0.4581,0.4939,0.5407,0.5918,0.6468,0.7004,0.7568,0.8284,0.8971,0.9646,1.0157,1.0991,1.2016,1.2676,1.347,1.4297,1.5121,1.5849,1.6584,0.0,0.0,0.0,0.0,0.0,0.0,0.0,0.0,0.0,0.0,-0.717,-0.7963,-0.8463,-0.9239,-0.9835,-1.0151,-1.0023,-0.9852,-0.9663,0.0,0.0,0.0,0.0,0.0,0.0,0.0,0.0,0.0,0.0,0.0,0.0,0.0,0.0,0.0,0.0,0.0,0.0,0.0,0.0,0.0,0.0,0.0,-1.2048,-1.1682,-1.1535,-1.1482,-1.1408,-1.1336,-1.1252,-1.1157,0.0,0.0,0.0,0.0,0.0,0.0,0.0,0.0,0.0,0.0,0.0,0.0,0.0,0.0,0.0,0.0,0.0,0.0,0.0,0.0,0.0,0.0,0.0,0.0,-0.2317,-0.2407,-0.2829,-0.3074,-0.3308,-0.3492,-0.316,-0.2742,-0.2268,-0.171,-0.1178,-0.0645,-0.0308,0.0056,0.0561,0.1008,0.154,0.2071,0.2603,0.3107,0.3549,0.4049,0.4519,0.4959,0.5375,0.5868,0.6386,0.6982,0.7536,0.0,0.8751,0.9408,1.0067,1.0564,1.1393,0.0,0.0,0.0,0.0,0.0,1.6257,1.6592,0.0,0.0,0.0,0.0,0.0,0.0,0.0,0.0,0.0,0.0,0.0,-0.6679,-0.711,-0.7778,-0.8344,-0.8705,-0.8731,-0.8651,0.0,0.0,0.0,0.0,0.0,0.0,0.0,0.0,0.0,0.0,0.0,0.0,0.0,0.0,0.0,0.0,0.0,0.0,0.0,0.0,0.0,0.0,0.0,0.0,-1.1282,-1.1075,-1.1148,-1.1307,-1.1152,-1.1237,-1.1407,-1.1129,0.0,0.0,0.0,0.0,0.0,0.0,0.0,0.0,0.0,0.0,0.0,0.0,0.0,0.0,0.0,0.0,0.0,0.0,0.0,0.0,0.0,0.0,0.0,0.0,-0.2176,-0.216,-0.2186,-0.2558,-0.2855,-0.2996,-0.2742,-0.2352,-0.1762,-0.1261,-0.0757,-0.0168,0.014,0.0589,0.1178,0.0,0.0,0.0,0.0,0.3633,0.3935,0.4519,0.5014,0.5418,0.5887,0.6413,0.6987,0.7542,0.8123,0.8705,0.9406,0.9958,1.0377,1.0964,1.1839,1.284,1.3444,1.4189,1.5095,1.6217,1.6634,0.0,0.0,0.0,0.0,0.0,0.0,0.0,0.0,0.0,0.0,-0.4075,-0.453,-0.5049,-0.5561,-0.6132,-0.6634,-0.7015,-0.7175,0.0,0.0,0.0,0.0,0.0,0.0,0.0,0.0,0.0,0.0,0.0,0.0,0.0,0.0,0.0,0.0,0.0,0.0,0.0,0.0,0.0,0.0,0.0,0.0,0.0,-1.0108,-0.9903,-0.9977,-1.0228,-1.0422,-1.0745,-1.1116,-1.1219,-1.0888,-1.0393,-1.0003,0.0,0.0,0.0,0.0,0.0,0.0,0.0,0.0,0.0,0.0,0.0,0.0,0.0,0.0,0.0,0.0,0.0,0.0,0.0,0.0,-0.2213,-0.1968,-0.1749,-0.1588,-0.1641,-0.1873,-0.2312,-0.2041,-0.1623,-0.1121,-0.0645,-0.0196,0.0252,0.0785,0.129,0.1792,0.2376,0.0,0.3519,0.3876,0.4291,0.4849,0.534,0.5778,0.6191,0.0,0.0,0.7413,0.8096,0.8679,0.9133,1.0035,1.0676,1.1141,1.1803,1.2793,1.3957,1.4556,1.523,1.5899,1.6245,1.6507,1.675,0.0,0.0,0.0,0.0,0.0,0.0,0.0,0.0,0.0,0.0,-0.3116,-0.3544,-0.3945,-0.44,-0.4812,-0.5257,0.0,0.0,0.0,0.0,0.0,0.0,0.0,0.0,0.0,0.0,0.0,0.0,0.0,0.0,0.0,0.0,0.0,0.0,0.0,0.0,0.0,0.0,0.0,0.0,0.0,0.0,-0.7293,-0.8204,-0.8732,-0.9047,-0.9352,-0.9745,-1.0181,-1.0446,-1.037,-1.0119,-0.9884,-0.9377,-0.8831,0.0,0.0,0.0,0.0,0.0,0.0,0.0,0.0,0.0,0.0,0.0,0.0,0.0,0.0,-0.2896,0.0,0.0,-0.208,-0.1835,-0.1608,-0.1365,-0.1089,-0.0957,-0.1072,-0.1593,-0.1344,-0.0952,-0.0505,-0.0028,0.0421,0.0814,0.1401,0.1961,0.2432,0.3074,0.3685,0.4242,0.468,0.512,0.5536,0.6082,0.6566,0.6966,0.7434,0.7836,0.8176,0.8804,0.9354,0.984,1.0702,1.1343,1.1877,1.2793,1.3742,1.4708,1.5395,1.5867,1.6239,1.6619,1.69,1.7144,0.0,0.0,0.0,0.0,0.0,0.0,0.0,0.0,0.0,0.0,0.0,-0.2065,-0.2325,-0.2642,-0.303,0.0,0.0,0.0,0.0,0.0,0.0,0.0,0.0,0.0,0.0,0.0,0.0,0.0,0.0,0.0,0.0,0.0,0.0,0.0,0.0,0.0,0.0,0.0,0.0,0.0,0.0,0.0,-0.4268,-0.596,-0.7021,-0.7657,-0.7951,-0.8433,-0.8955,-0.9289,-0.9452,-0.9503,-0.9432,-0.923,-0.8949,-0.8752,-0.8326,0.0,0.0,0.0,0.0,0.0,0.0,0.0,0.0,0.0,-0.3719,-0.334,-0.2906,-0.2549,-0.2368,-0.2036,-0.1668,-0.1366,-0.1157,-0.0924,-0.0531,-0.0308,-0.0308,-0.0645,-0.0533,-0.0252,0.0168,0.0645,0.1093,0.1514,0.21,0.2657,0.3128,0.3824,0.4436,0.4904,0.5454,0.5891,0.6218,0.6766,0.7268,0.7706,0.8182,0.8606,0.9014,0.9588,1.0123,1.0644,1.1476,1.2166,1.2754,1.3766,1.4582,1.5266,1.6022,1.6414,1.657,1.7123,1.7455,1.77,0.0,0.0,0.0,0.0,0.0,0.0,0.0,0.0,0.0,0.0,0.0,0.0,0.0,0.0,0.0,0.0,0.0,0.0,0.0,0.0,0.0,0.0,0.0,0.0,0.0,0.0,0.0,0.0,0.0,0.0,0.0,0.0,0.0,0.0,0.0,0.0,0.0,0.0,0.0,0.0,0.0,0.0,-0.2263,-0.2854,-0.4248,-0.5897,-0.6048,-0.6716,-0.7571,-0.7835,-0.8197,-0.8573,-0.8679,-0.8527,-0.8301,-0.8275,0.0,-0.7709,-0.7528,-0.7106,-0.6572,-0.595,-0.5545,-0.5081,0.0,0.0,-0.3476,-0.29,-0.2489,-0.2215,-0.2075,-0.1662,-0.1277,-0.1004,-0.0697,-0.0307,0.0196,0.0449,0.0645,0.0842,0.0673,0.0645,0.0954,0.14,0.1875,0.2326,0.2912,0.3494,0.4012,0.4653,0.5203,0.5664,0.6077,0.6517,0.6977,0.7402,0.791,0.8488,0.8896,0.9309,0.971,1.0362,1.0897,1.1351,1.2506,1.3386,1.4025,1.4582,1.5085,1.5613,1.6432,1.6955,1.731,1.7605,1.7928,1.8266,0.0,0.0,0.0,0.0,0.0,0.0,0.0,0.0,0.0,0.0,0.0,0.0,0.0,0.0,0.0,0.0,0.0,0.0,0.0,0.0,0.0,0.0,0.0,0.0,0.0,0.0,0.0,0.0,0.0,0.0,0.0,0.0,0.0,0.0,0.0,0.0,0.0,0.0,0.0,0.0,0.0,0.0,-0.0488,-0.0987,-0.1973,-0.3246,-0.4311,-0.5205,0.0,0.0,-0.7194,-0.7676,-0.7883,-0.783,-0.7676,-0.7676,-0.7509,0.0,-0.7085,-0.6674,0.0,0.0,-0.4979,-0.434,-0.3541,-0.2931,-0.243,-0.1983,-0.1595,-0.1296,-0.1204,-0.0893,-0.0548,0.0,-0.0029,0.0315,0.0844,0.1093,0.14,0.1849,0.2015,0.2015,0.1765,0.2238,0.274,0.3213,0.3879,0.4484,0.4999,0.5555,0.6077,0.6539,0.6869,0.7273,0.7735,0.815,0.862,0.9197,0.9595,1.0087,1.0694,1.1133,1.1776,1.2604,1.3433,1.4142,1.4754,1.5164,1.5635,1.6185,1.6879,1.7413,1.7767,1.8008,1.8246,1.8519,0.0,0.0,0.0,0.0,0.0,0.0,0.0,0.0,0.0,0.0,0.0,0.0,0.0,0.0,0.0,0.0,0.0,0.0,0.0,0.0,0.0,0.0,0.0,0.0,0.0,0.0,0.0,0.0,0.0,0.0,0.0,0.0,0.0,0.0,0.0,0.0,0.0,0.0,0.0,0.0,0.0,0.0,0.0968,0.0379,-0.0277,-0.1126,-0.2839,-0.3962,0.0,0.0,-0.625,-0.6783,-0.7052,-0.7079,-0.6988,-0.6988,-0.6918,-0.6734,-0.6399,0.0,0.0,-0.4901,-0.4181,-0.3447,-0.2633,-0.1911,-0.129,-0.0881,-0.0515,-0.0231,-0.0176,0.003,0.0,0.0537,0.0681,0.0935,0.1454,0.1746,0.2127,0.2687,0.313,0.3294,0.2989,0.3267,0.3658,0.4073,0.4759,0.5363,0.5846,0.6372,0.6864,0.7295,0.7643,0.8023,0.848,0.8883,0.9373,0.9925,1.0344,1.0905,1.1619,1.2058,1.2783,1.3705,1.4222,1.4777,1.5322,1.5702,1.6185,1.6744,1.7323,1.776,1.8121,1.8397,1.8592,1.8784,0.0,0.0,0.0,0.0,0.0,0.0,0.0,0.0,0.0,0.0,0.0,0.0,0.0,0.0,0.0,0.0,0.0,0.0,0.0,0.0,0.0,0.0,0.0,0.0,0.0,0.0,0.0,0.0,0.0,0.0,0.0,0.0,0.0,0.0,0.0,0.0,0.0,0.0,0.0,0.0,0.0,0.0,0.2063,0.1329,0.0655,-0.0151,-0.176,0.0,0.0,0.0,-0.5349,-0.5882,-0.6154,-0.6236,0.0,-0.6236,-0.6132,0.0,0.0,0.0,-0.4763,-0.4018,-0.3289,-0.249,-0.1554,-0.087,-0.0274,0.0326,0.0662,0.0882,0.0945,0.1024,0.1106,0.126,0.1321,0.1531,0.1997,0.243,0.283,0.3302,0.3852,0.4343,0.0,0.4598,0.457,0.4842,0.5418,0.6018,0.6534,0.702,0.745,0.7871,0.8329,0.8758,0.9159,0.9562,1.0097,1.0778,1.1175,1.1726,1.2403,1.331,1.3975,1.4396,1.488,1.5345,1.581,1.6272,1.6744,1.722,1.7706,1.8036,1.8358,1.8807,1.9021,1.912,0.0,0.0,0.0,0.0,0.0,0.0,0.0,0.0,0.0,0.0,0.0,0.0,0.0,0.0,0.0,0.0,0.0,0.0,0.0,0.0,0.0,0.0,0.0,0.0,0.0,0.0,0.0,0.0,0.0,0.0,0.0,0.0,0.0,0.0,0.0,0.0,0.0,0.0,0.0,0.0,0.0,0.0,0.3016,0.2064,0.111,0.0135,0.0,0.0,0.0,0.0,0.0,0.0,-0.5422,0.0,0.0,-0.5504,0.0,0.0,0.0,0.0,-0.386,-0.3115,-0.2364,-0.1544,-0.0697,-0.0031,0.0553,0.1125,0.1413,0.1617,0.1756,0.1925,0.2059,0.2214,0.2391,0.2638,0.2982,0.3333,0.3725,0.4216,0.4657,0.0,0.0,0.0,0.0,0.5859,0.6376,0.6858,0.7316,0.7777,0.8203,0.8606,0.8968,0.9361,0.9862,1.0267,1.077,1.1418,1.2295,1.2953,1.3348,1.4069,1.4558,1.488,1.5355,1.5822,1.6293,1.6659,1.7115,1.7557,1.7949,1.8313,1.8711,1.9464,1.9913,2.0105,0.0,0.0,0.0,0.0,0.0,0.0,0.0,0.0,0.0,0.0,0.0,0.0,0.0,0.0,0.0,0.0,0.0,0.0,0.0,0.0,0.0,0.0,0.0,0.0,0.0,0.0,0.0,0.0,0.0,0.0,0.0,0.0,0.0,0.0,0.0,0.0,0.0,0.0,0.0,0.0,0.0,0.0,0.3572,0.2573,0.154,0.0,0.0,0.0,0.0,0.0,0.0,0.0,0.0,0.0,0.0,0.0,0.0,0.0,0.0,-0.3256,-0.2763,-0.2052,-0.1345,-0.0594,0.0188,0.0789,0.1365,0.1913,0.2217,0.2498,0.2766,0.2891,0.3052,0.3299,0.346,0.3692,0.4063,0.4345,0.4706,0.5181,0.56,0.0,0.0,0.0,0.0,0.6717,0.7192,0.767,0.8064,0.8521,0.8975,0.9427,0.9725,1.0138,1.0659,1.126,1.2012,1.2922,1.379,1.4282,1.4421,1.493,1.5223,1.539,1.5844,1.6281,1.6714,1.7094,1.7509,1.7915,1.8214,1.8752,1.9402,2.005,2.0678,2.1171,0.0,0.0,0.0,0.0,0.0,0.0,0.0,0.0,0.0,0.0,0.0,0.0,0.0,0.0,0.0,0.0,0.0,0.0,0.0,0.0,0.0,0.0,0.0,0.0,0.0,0.0,0.0,0.0,0.0,0.0,0.0,0.0,0.0,0.0,0.0,0.0,0.0,0.0,0.0,0.0,0.0,0.0,0.3713,0.2854,0.0,0.0,0.0,0.0,0.0,0.0,0.0,0.0,0.0,0.0,0.0,0.0,0.0,-0.2912,-0.2508,-0.2033,-0.1457,-0.0857,-0.0252,0.0387,0.1097,0.1615,0.2135,0.2718,0.3087,0.3437,0.0,0.0,0.4019,0.4479,0.4535,0.4689,0.5234,0.547,0.5767,0.0,0.0,0.0,0.0,0.0,0.0,0.7524,0.0,0.8466,0.8871,0.9272,0.9743,1.0254,1.0658,1.1082,1.1579,1.2523,1.3721,1.5143,1.5547,1.5689,1.5588,1.5936,1.6032,1.5961,1.6424,1.6803,1.7164,1.763,1.7997,1.8345,1.8613,1.9397,2.0391,2.0629,2.1379,2.2237,0.0,0.0,0.0,0.0,0.0,0.0,0.0,0.0,0.0,0.0,0.0,0.0,0.0,0.0,0.0,0.0,0.0,0.0,0.0,0.0,0.0,0.0,0.0,0.0,0.0,0.0,0.0,0.0,0.0,0.0,0.0,0.0,0.0,0.0,0.0,0.0,0.0,0.0,0.0,0.0,0.0,0.0,0.3984,0.0,0.0,0.0,0.0,0.0,0.0,0.0,0.0,0.0,0.0,0.0,-0.2604,0.0,0.0,-0.1686,-0.1334,-0.0804,-0.0221,0.0318,0.0943,0.1559,0.1991,0.2406,0.28,0.3109,0.3351,0.3635,0.0,0.0,0.0,0.5445,0.5825,0.0,0.6625,0.6741,0.0,0.0,0.0,0.7898,0.8516,0.9095,0.0,0.0,0.9524,0.9743,1.0184,1.0645,1.0942,1.1101,1.1539,1.2017,1.2542,1.388,1.4888,1.5547,1.6069,1.638,1.6563,1.705,1.7385,1.7611,1.8037,1.8457,1.8892,1.9206,1.9592,2.0026,2.0341,2.0772,2.1282,2.2074,2.2655,2.3117,0.0,0.0,0.0,0.0,0.0,0.0,0.0,0.0,0.0,0.0,0.0,0.0,0.0,0.0,0.0,0.0,0.0,0.0,0.0,0.0,0.0,0.0,0.0,0.0,0.0,0.0,0.0,0.0,0.0,0.0,0.0,0.0,0.0,0.0,0.0,0.0,0.0,0.0,0.0,0.0,0.0,0.0,0.0,0.0,0.0,0.0,0.0,0.0,0.0,0.0,0.0,-0.1891,-0.1976,-0.1712,-0.1346,-0.1257,0.0,-0.0339,0.0062,0.0508,0.1033,0.1569,0.2091,0.2551,0.2919,0.3191,0.3412,0.3677,0.3848,0.0,0.0,0.0,0.0,0.0,0.0,0.0,0.8028,0.7989,0.8043,0.0,0.8514,0.0,0.9497,1.007,1.0587,0.0,1.0719,1.0665,1.1063,1.1523,1.1873,1.2145,1.2565,1.3268,1.4202,1.5248,1.6061,1.6676,1.7174,1.7482,1.7574,1.7983,1.8285,1.8482,0.0,1.9274,1.969,1.9998,2.0344,2.0761,2.1099,2.1588,2.2204,2.2889,2.3451,2.4002,0.0,0.0,0.0,0.0,0.0,0.0,0.0,0.0,0.0,0.0,0.0,0.0,0.0,0.0,0.0,0.0,0.0,0.0,0.0,0.0,0.0,0.0,0.0,0.0,0.0,0.0,0.0,0.0,0.0,0.0,0.0,0.0,0.0,0.0,0.0,0.0,0.0,0.0,0.0,0.0,0.0,0.0,0.0,0.0,0.0,0.0,0.0,0.0,0.0,0.0,0.0061,-0.0831,-0.0793,-0.0432,0.0,0.0217,0.062,0.1064,0.1507,0.1876,0.2281,0.2769,0.3157,0.3489,0.3839,0.3959,0.4041,0.431,0.0,0.0,0.5374,0.0,0.6759,0.7942,0.0,0.8632,0.9334,0.9151,0.9087,0.9402,0.9556,0.9901,1.0548,1.1115,1.1677,1.2336,1.1803,1.1581,1.1874,1.2262,1.2732,1.3332,1.3777,1.4656,1.5976,1.6515,1.7187,1.8018,1.8467,1.863,1.8569,1.8871,1.9039,1.911,0.0,0.0,2.0246,2.0561,2.0898,2.123,2.1589,2.2273,2.3101,2.3467,2.4075,2.4879,0.0,0.0,0.0,0.0,0.0,0.0,0.0,0.0,0.0,0.0,1.0812,0.0,0.0,0.0,0.0,0.0,0.0,0.0,0.0,0.0,0.0,0.0,0.0,0.0,0.0,0.0,0.0,0.0,0.0,0.0,0.0,0.0,0.0,0.0,0.0,0.0,0.0,0.0,0.0,0.0,0.0,0.0,0.0,0.0,0.0,0.0,0.0,0.0,0.0,0.0,0.1191,0.058,0.0737,0.1065,0.1406,0.1722,0.2076,0.2416,0.279,0.3162,0.3569,0.3915,0.4289,0.4535,0.4622,0.4769,0.0,0.0,0.0,0.5397,0.5966,0.6694,0.0,0.8661,0.0,0.0,0.0,0.0,0.9888,0.0,0.0,0.0,0.0,0.0,0.0,0.0,0.0,0.0,1.342,1.3688,1.4092,1.466,1.5209,1.5837,1.6476,1.7261,1.7954,1.8479,1.8895,1.919,1.9416,1.9902,2.0303,2.0642,0.0,0.0,2.1838,2.2152,2.2481,2.2747,2.3216,2.3547,2.3933,2.48,2.5289,2.5618,0.0,0.0,0.0,0.0,0.0,0.0,0.0,0.0,0.0,1.2202,1.2184,1.2,0.0,0.0,0.0,0.0,0.0,0.0,0.0,0.0,0.0,0.0,0.0,0.0,0.0,0.0,0.0,0.0,0.0,0.0,0.0,0.0,0.0,0.0,0.0,0.0,0.0,0.0,0.0,0.0,0.0,0.0,0.0,0.0,0.0,0.0,0.0,0.0,0.0,0.0,0.296,0.2827,0.2251,0.2406,0.2861,0.3281,0.3577,0.3885,0.4253,0.4489,0.4691,0.4918,0.519,0.5408,0.5459,0.0,0.0,0.0,0.0,0.6086,0.6607,0.0,0.0,0.0,0.0,0.0,0.0,0.0,0.0,0.0,0.0,0.0,0.0,0.0,0.0,0.0,0.0,0.0,1.4151,1.4824,1.538,1.5836,1.6428,1.6923,1.7265,1.8001,1.856,1.8922,1.9305,1.9708,2.0016,2.0334,2.0772,2.1229,2.1568,0.0,2.2417,2.2686,2.3251,2.3956,2.4221,2.4667,2.5229,2.5815,2.6069,2.6274,0.0,0.0,0.0,0.0,0.0,0.0,0.0,1.2231,1.2501,1.3068,1.3369,1.322,1.2441,1.236,1.2367,0.0,0.0,0.0,0.0,0.0,0.0,0.0,0.0,0.0,0.0,0.0,0.0,0.0,0.0,0.0,0.0,0.0,0.0,0.0,0.0,0.0,0.0,0.0,0.0,0.0,0.0,0.0,0.0,0.0,0.0,0.0,0.0,0.0,0.0,0.0,0.4779,0.5044,0.4107,0.4013,0.4353,0.4776,0.5011,0.5213,0.5587,0.566,0.5657,0.5815,0.5984,0.6141,0.6261,0.6337,0.0,0.0,0.0,0.0,0.0,0.0,0.0,0.0,0.0,0.0,0.0,0.0,0.0,0.0,0.0,0.0,0.0,0.0,0.0,0.0,0.0,0.0,1.4795,1.5729,1.64,1.6712,1.7301,1.7744,1.81,1.8625,1.904,1.9331,1.9747,2.0105,2.0447,2.066,2.1044,2.152,2.1945,0.0,0.0,2.3252,2.396,2.4859,2.4957,2.547,2.6153,2.6473,2.6702,2.7041,0.0,0.0,0.0,0.0,0.0,0.0,0.0,1.2847,1.3485,1.3305,1.383,1.4109,1.3842,1.3448,1.3064,0.0,0.0,0.0,0.0,0.0,0.0,0.0,0.0,0.0,0.0,0.0,0.0,0.0,0.0,0.0,0.0,0.0,0.0,0.0,0.0,0.0,0.0,0.0,0.0,0.0,0.0,0.0,0.0,0.0,0.0,0.0,0.0,0.0,0.0,0.0,0.0,0.6572,0.6752,0.6293,0.5771,0.6133,0.0,0.0,0.6507,0.6449,0.635,0.6544,0.6712,0.68,0.6836,0.0,0.0,0.0,0.0,0.0,0.0,0.0,0.0,0.0,0.0,0.0,0.0,0.0,0.0,0.0,0.0,0.0,0.0,0.0,0.0,0.0,0.0,0.0,0.0,1.6371,1.6864,1.7134,1.7606,1.8127,1.8718,1.9013,1.937,1.9747,2.0144,2.0422,2.061,2.1093,2.1496,2.1811,0.0,0.0,0.0,2.4637,2.513,2.5369,2.5618,2.5756,2.5938,2.6676,2.7396,2.8048,0.0,0.0,0.0,0.0,0.0,0.0,0.0,1.3349,1.3948,1.4269,1.462,1.4706,1.4414,1.4007,1.3607,0.0,0.0,0.0,0.0,0.0,0.0,0.0,0.0,0.0,0.0,0.0,0.0,0.0,0.0,0.0,0.0,0.0,0.0,0.0,0.0,0.0,0.0,0.0,0.0,0.0,0.0,0.0,0.0,0.0,0.0,0.0,0.0,0.0,0.0,0.0,0.0,0.0,0.8027,0.8027,0.0,0.0,0.7358,0.7358,0.7297,0.7237,0.7204,0.7269,0.7335,0.7442,0.7641,0.0,0.0,0.0,0.0,0.8573,0.8924,0.0,0.0,0.0,0.0,0.0,0.0,0.0,0.0,0.0,0.0,0.0,0.0,0.0,0.0,0.0,0.0,0.0,0.0,1.7363,1.7489,1.8086,1.8642,1.9238,1.9893,2.0352,2.0707,2.0938,2.1404,2.1773,2.2072,2.247,2.2862,2.3224,0.0,0.0,0.0,2.5127,2.5682,2.6246,2.6356,2.6708,2.7219,2.7949,2.8394,2.8784,0.0,0.0,0.0,0.0,0.0,1.2511,1.3249,1.3737,1.4259,1.4982,1.5041,1.4926,1.4702,1.4169,1.375,1.3484,0.0,0.0,0.0,0.0,0.0,0.0,0.0,0.0,0.0,0.0,0.0,0.0,0.0,0.0,0.0,0.0,0.0,0.0,0.0,0.0,0.0,0.0,0.0,0.0,0.0,0.0,0.0,0.0,0.0,0.0,0.0,0.0,0.0,0.0,0.0,0.0,0.0,0.0,0.0,0.0,0.8306,0.8247,0.8084,0.7992,0.7927,0.7927,0.7992,0.8084,0.0,0.0,0.0,0.8926,0.9151,0.937,0.9588,1.0136,1.0618,1.0839,0.0,1.1994,0.0,0.0,0.0,0.0,0.0,0.0,0.0,0.0,0.0,0.0,0.0,0.0,0.0,1.8391,1.8436,1.9046,1.9571,2.0117,2.0705,2.1285,2.162,2.1773,2.228,2.2684,2.3003,2.3423,2.3824,2.4193,0.0,0.0,0.0,2.578,2.6346,2.6975,2.6926,2.738,2.8101,2.8568,2.8989,2.947,0.0,0.0,0.0,0.0,0.0,0.0,0.0,1.3951,1.4525,1.5128,1.4859,1.4673,1.4785,1.3917,1.3301,1.3301,0.0,0.0,0.0,0.0,0.0,0.0,0.0,0.0,0.0,0.0,0.0,0.0,0.0,0.0,0.0,0.0,0.0,0.0,0.0,0.0,0.0,0.0,0.0,0.0,0.0,0.0,0.0,0.0,0.0,0.0,0.0,0.0,0.0,0.0,0.0,0.0,0.0,0.0,0.0,0.0,0.8985,0.8958,0.8829,0.8641,0.8484,0.8484,0.8641,0.8835,0.0,0.0,0.0,0.9454,0.9754,0.9983,0.9983,1.0586,1.109,1.109,1.1944,0.0,0.0,0.0,0.0,0.0,0.0,0.0,0.0,0.0,0.0,0.0,0.0,0.0,0.0,1.9495,1.9731,1.9889,2.021,2.0574,2.0974,2.1468,2.1773,2.1911,2.2509,2.2858,2.3003,2.3604,2.4042,0.0,0.0,0.0,0.0,2.6927,2.7269,2.7386,2.7244,2.7565,2.8098,2.8113,2.8937,3.01,0.0,0.0,0.0,0.0,0.0,0.0,0.0,1.396,1.4245,1.4847,1.4526,1.4264,1.4237,1.369,1.3266,1.3163,0.0,0.0,0.0,0.0,0.0,0.0,0.0,0.0,0.0,0.0,0.0,0.0,0.0,0.0,0.0,0.0,0.0,0.0,0.0,0.0,0.0,0.0,0.0,0.0,0.0,0.0,0.0,0.0,0.0,0.0,0.0,0.0,0.0,0.0,0.0,0.0,0.0,0.0,0.0,0.0,0.0,0.0,0.9338,0.9236,0.9172,0.9172,0.9236,0.9338,0.951,0.0,0.0,1.0206,1.0523,1.0776,1.0863,1.1373,1.1778,1.1778,1.2391,0.0,0.0,0.0,0.0,0.0,0.0,0.0,0.0,0.0,0.0,0.0,0.0,0.0,0.0,2.0757,2.0852,2.0783,2.1098,2.1621,2.2298,2.2682,2.2916,2.3077,2.3594,2.4018,2.438,2.4981,0.0,0.0,0.0,0.0,0.0,2.7067,2.7473,2.7856,2.783,2.8201,2.8834,2.9291,2.9733,3.0188,0.0,0.0,0.0,0.0,0.0,0.0,0.0,1.3827,1.4,1.4482,1.4133,1.3844,1.3748,1.3295,1.2909,1.2748,0.0,0.0,0.0,0.0,0.0,0.0,0.0,0.0,0.0,0.0,0.0,0.0,0.0,0.0,0.0,0.0,0.0,0.0,0.0,0.0,0.0,0.0,0.0,0.0,0.0,0.0,0.9594,0.0,0.0,0.0,0.0,0.0,0.0,0.0,0.0,0.0,0.0,0.0,0.0,0.0,0.0,0.0,0.0,0.9907,0.9907,0.9907,0.9907,0.0,0.0,0.0,0.0,1.0776,1.109,1.1377,1.1738,1.2241,1.2664,1.2854,1.3562,0.0,0.0,0.0,0.0,0.0,0.0,0.0,0.0,0.0,0.0,0.0,0.0,0.0,0.0,0.0,2.1634,2.1753,2.1952,2.2321,2.2878,2.3241,2.345,2.3628,2.4073,2.458,2.509,2.5647,0.0,0.0,0.0,0.0,0.0,2.7642,2.8006,2.8372,2.8263,2.8643,2.9356,2.9753,3.006,3.0353,0.0,0.0,0.0,0.0,0.0,0.0,0.0,0.0,0.0,1.4007,1.3695,1.3381,1.3253,1.2782,1.2391,0.0,0.0,0.0,0.0,0.0,0.0,0.0,0.0,0.0,0.0,0.0,0.0,0.9125,0.8792,0.8768,0.9077,0.0,0.0,0.0,0.0,0.0,0.0,0.0,0.0,0.0,0.0,0.0,0.0,0.0,0.0,0.0,0.0,0.0,0.0,0.0,0.0,0.0,0.0,0.0,0.0,0.0,0.0,0.0,0.0,0.0,0.0,0.0,0.0,0.0,0.0,0.0,0.0,0.0,1.1595,1.1935,1.258,1.3132,1.3663,1.418,1.5132,0.0,0.0,0.0,0.0,0.0,0.0,0.0,0.0,0.0,0.0,0.0,0.0,0.0,0.0,0.0,2.2154,2.2678,2.2757,2.2837,2.2909,2.3253,2.345,2.3628,2.4102,2.4637,2.5216,2.5744,0.0,0.0,0.0,0.0,0.0,2.8474,2.8737,2.8894,2.8597,2.8944,2.9668,2.9668,3.0074,3.0598,0.0,0.0,0.0,0.0,0.0,0.0,0.0,0.0,0.0,0.0,1.3206,1.2855,1.2697,1.2389,1.2229,0.0,0.0,0.0,0.0,0.0,0.0,0.0,0.0,0.0,0.0,0.0,0.0,0.9243,0.9027,0.9192,0.9751,0.9751,0.0,0.0,0.0,0.0,0.0,0.0,0.0,0.0,0.0,0.0,0.0,0.0,0.0,0.0,1.0996,1.109,0.0,0.0,0.0,0.0,0.0,0.0,0.0,0.0,1.2811,0.0,1.2617,0.0,1.2107,1.1933,0.0,0.0,0.0,0.0,0.0,0.0,0.0,1.3231,1.3548,1.4024,1.4538,1.4909,0.0,0.0,0.0,0.0,0.0,0.0,0.0,0.0,0.0,0.0,0.0,0.0,0.0,0.0,0.0,0.0,2.2309,2.269,2.3331,2.3498,2.3047,2.3271,2.3552,2.3819,2.4247,2.4766,2.5398,2.6371,0.0,0.0,0.0,0.0,2.8712,2.8537,2.8771,2.9276,2.9189,2.9578,3.0156,3.032,3.0467,3.0598,0.0,0.0,0.0,0.0,0.0,0.0,0.0,0.0,0.0,0.0,0.0,0.0,0.0,0.0,0.0,0.0,0.0,0.0,0.0,0.0,0.0,0.0,0.0,0.0,0.0,0.0,0.0,0.0,0.0,0.973,0.0,0.0,0.0,0.0,0.0,0.0,0.0,0.0,0.0,0.0,0.0,0.0,0.0,0.0,0.0,0.0,1.131,1.1466,0.0,1.1613,1.1811,1.2036,0.0,0.0,0.0,0.0,1.3271,1.3565,1.3565,1.3199,1.2803,1.2702,1.2736,1.2803,0.0,0.0,0.0,0.0,0.0,0.0,1.4413,0.0,0.0,0.0,0.0,0.0,0.0,0.0,0.0,0.0,0.0,0.0,0.0,0.0,0.0,0.0,0.0,0.0,0.0,0.0,2.2797,2.3059,2.3723,2.3939,2.3624,2.371,2.3965,2.4372,2.4773,2.5299,2.5994,2.7032,0.0,0.0,0.0,0.0,2.9443,2.9247,2.9417,2.9808,2.9763,2.9964,3.0312,3.0538,3.0786,3.1048,0.0,0.0,0.0,0.0,0.0,0.0,0.0,0.0,0.0,0.0,0.0,0.0,0.0,0.0,0.0,0.0,0.0,0.0,0.0,0.0,0.0,0.0,0.0,0.0,0.0,0.0,0.0,0.0,0.0,0.0,0.0,0.0,1.1097,0.0,0.0,0.0,0.0,0.0,0.0,0.0,0.0,0.0,0.0,0.0,0.0,0.0,0.0,0.0,0.0,1.2076,1.2259,1.2499,1.2543,0.0,0.0,0.0,0.0,0.0,1.4093,1.3688,1.3267,1.3199,1.3267,1.3293,0.0,0.0,0.0,0.0,0.0,0.0,0.0,0.0,0.0,0.0,0.0,0.0,0.0,0.0,0.0,0.0,0.0,0.0,0.0,0.0,0.0,0.0,0.0,0.0,0.0,0.0,0.0,2.3612,2.4136,2.4443,2.4505,2.4473,2.4682,2.5114,2.5518,2.6081,2.6804,2.7709,2.8512,0.0,0.0,0.0,3.0162,3.0139,3.0158,3.0221,3.0127,3.0158,3.031,3.0623,3.1061,3.154,0.0,0.0,0.0,0.0,0.0,0.0,0.0,0.0,0.0,0.0,0.0,0.0,0.0,0.0,0.0,0.0,0.0,0.0,0.0,0.0,0.0,0.0,0.0,0.0,0.0,0.0,0.0,0.0,0.0,0.0,1.142,1.1459,1.1453,0.0,0.0,0.0,0.0,0.0,0.0,0.0,0.0,0.0,0.0,0.0,0.0,0.0,0.0,0.0,0.0,1.2412,1.2448,1.2536,1.2848,0.0,0.0,0.0,0.0,0.0,1.4093,1.4017,1.3912,1.3748,1.3956,1.417,0.0,0.0,0.0,0.0,0.0,0.0,0.0,0.0,0.0,0.0,0.0,0.0,0.0,0.0,0.0,0.0,0.0,0.0,0.0,0.0,0.0,0.0,0.0,0.0,0.0,0.0,0.0,2.4177,2.4945,2.5557,2.5877,2.5664,2.5716,2.61,2.6543,2.7021,2.7549,2.8374,2.9056,0.0,0.0,3.0333,3.0497,3.0221,3.0005,2.9884,3.0036,3.0111,3.023,3.1054,3.1438,3.1629,0.0,0.0,0.0,0.0,0.0,0.0,0.0,0.0,0.0,0.0,0.0,0.0,0.0,0.0,0.0,0.0,0.0,0.0,0.0,0.0,0.0,0.0,0.0,0.0,0.0,0.0,0.0,0.0,0.0,1.1325,1.1764,1.1828,1.1745,1.1553,0.0,0.0,0.0,0.0,0.0,0.0,0.0,0.0,0.0,0.0,0.0,0.0,0.0,0.0,0.0,0.0,1.2899,1.3075,1.3221,0.0,0.0,0.0,0.0,0.0,1.3775,1.3775,1.3746,1.3645,1.4,0.0,0.0,0.0,0.0,0.0,0.0,0.0,0.0,0.0,0.0,0.0,0.0,0.0,0.0,0.0,0.0,0.0,0.0,0.0,0.0,0.0,0.0,0.0,0.0,0.0,0.0,0.0,0.0,0.0,2.5452,2.6029,2.6627,2.6792,2.6858,2.6787,2.7315,2.7729,2.812,2.8979,2.961,2.9998,0.0,3.028,3.0417,3.0083,2.996,2.9974,3.008,3.0356,3.0896,3.2193,3.2747,3.2976,0.0,0.0,0.0,0.0,0.0,0.0,0.0,0.0,0.0,0.0,0.0,0.0,0.0,0.0,0.0,0.0,0.0,0.0,0.0,0.0,0.0,0.0,0.0,0.0,0.0,0.0,1.0896,1.1196,1.151,1.1797,1.2007,1.2075,1.1949,0.0,0.0,0.0,0.0,1.1365,1.1597,0.0,0.0,0.0,0.0,0.0,0.0,0.0,0.0,0.0,0.0,0.0,0.0,0.0,0.0,0.0,0.0,1.3492,1.3492,1.3492,1.3492,1.3492,1.3514,0.0,0.0,0.0,0.0,0.0,0.0,0.0,0.0,0.0,0.0,0.0,0.0,0.0,0.0,0.0,0.0,0.0,0.0,0.0,0.0,0.0,0.0,0.0,0.0,0.0,0.0,0.0,0.0,0.0,0.0,0.0,2.5912,2.6362,2.6977,2.7523,2.7696,2.7541,2.8003,2.8395,2.8703,2.9425,2.9915,3.016,3.0052,3.0097,3.016,2.9901,2.9884,3.0036,3.008,3.0721,3.176,3.3182,3.3921,3.4304,0.0,0.0,0.0,0.0,0.0,0.0,0.0,0.0,0.0,0.0,0.0,0.0,0.0,0.0,0.0,0.0,0.0,0.0,0.0,0.0,0.0,0.0,0.0,0.0,0.0,1.0982,1.1263,1.1846,1.185,1.2011,1.2265,1.2134,1.1949,1.169,0.0,1.1603,1.1334,1.1615,1.195,0.0,0.0,0.0,0.0,0.0,0.0,0.0,0.0,0.0,0.0,0.0,0.0,0.0,0.0,0.0,1.3492,1.3492,1.3492,1.3492,1.3492,1.3492,1.3565,1.3872,0.0,0.0,0.0,0.0,0.0,0.0,0.0,0.0,0.0,0.0,0.0,0.0,0.0,0.0,0.0,0.0,0.0,0.0,0.0,0.0,0.0,0.0,0.0,0.0,0.0,0.0,0.0,0.0,0.0,0.0,0.0,2.6756,2.699,2.7523,2.8026,2.85,2.8839,2.9188,2.9515,2.9588,2.9713,2.9839,2.9822,2.9822,2.9839,2.9808,2.9808,2.9853,3.0036,3.1042,3.2527,3.339,3.4182,3.4876,0.0,0.0,0.0,0.0,0.0,0.0,0.0,0.0,0.0,0.0,0.0,0.0,0.0,0.0,0.0,0.0,0.0,0.0,0.0,0.0,0.0,0.0,0.0,1.1473,1.1633,1.1683,1.1859,1.2084,1.2123,1.2264,1.2482,1.2363,0.0,0.0,0.0,1.1764,1.1505,1.1931,1.2255,1.2535,0.0,0.0,0.0,0.0,0.0,0.0,0.0,0.0,0.0,0.0,1.3492,1.3492,0.0,1.3492,1.3492,1.3492,1.3492,1.3492,1.3492,1.3645,1.3828,1.399,0.0,0.0,0.0,0.0,0.0,0.0,0.0,0.0,0.0,0.0,0.0,0.0,0.0,0.0,0.0,0.0,0.0,0.0,0.0,0.0,0.0,0.0,0.0,0.0,0.0,0.0,0.0,0.0,0.0,0.0,0.0,2.6897,2.7302,2.7656,2.8105,2.872,2.899,2.9226,2.9477,2.954,2.9634,2.9682,2.9682,2.9682,2.9682,2.9761,2.9884,3.0076,3.1157,3.2211,3.3213,3.4134,3.4648,3.4935,0.0,0.0,0.0,0.0,0.0,0.0,0.0,0.0,0.0,0.0,0.0,0.0,0.0,0.0,0.0,0.0,0.0,0.0,0.0,0.0,0.0,0.0,0.0,1.176,1.2078,1.2214,1.2274,1.2334,1.2314,1.2378,1.2519,0.0,0.0,0.0,0.0,1.2065,1.1914,1.2297,1.2585,0.0,1.3359,1.37,0.0,0.0,0.0,0.0,0.0,0.0,0.0,0.0,1.3492,0.0,0.0,0.0,0.0,0.0,1.3492,1.3521,1.3623,1.3814,1.4071,0.0,0.0,0.0,0.0,0.0,0.0,0.0,0.0,0.0,0.0,0.0,0.0,0.0,0.0,0.0,0.0,0.0,0.0,0.0,0.0,0.0,0.0,0.0,0.0,0.0,0.0,0.0,0.0,0.0,0.0,0.0,0.0,2.71,2.749,2.7756,2.8183,2.8753,2.8926,2.9162,2.9477,2.954,2.9602,2.9602,2.9602,2.9602,2.9602,2.973,3.0074,3.0633,3.2182,3.3093,3.3609,3.4567,3.4902,3.4968,0.0,0.0,0.0,0.0,0.0,0.0,0.0,0.0,0.0,0.0,0.0,0.0,0.0,0.0,0.0,0.0,0.0,0.0,0.0,0.0,0.0,0.0,0.0,1.1959,1.2282,1.2347,1.2471,1.2599,1.2415,1.2305,1.2298,1.2363,0.0,0.0,0.0,1.2492,1.2526,1.2702,0.0,0.0,1.3437,1.3732,0.0,0.0,0.0,0.0,0.0,0.0,0.0,0.0,1.3492,0.0,0.0,0.0,0.0,1.3506,1.3506,1.3579,1.3901,1.4027,0.0,0.0,0.0,0.0,0.0,0.0,0.0,0.0,0.0,0.0,0.0,0.0,0.0,0.0,0.0,0.0,0.0,0.0,0.0,0.0,0.0,0.0,0.0,0.0,0.0,0.0,0.0,0.0,0.0,0.0,0.0,0.0,0.0,0.0,2.7516,2.7928,2.8289,2.86,2.8761,2.9081,2.9602,2.9602,2.9602,2.9602,2.9617,2.9617,2.9617,2.9744,3.0406,3.1449,3.2945,3.3503,3.3609,3.4567,3.4902,3.4968,0.0,0.0,0.0,0.0,0.0,0.0,0.0,0.0,0.0,0.0,0.0,0.0,0.0,0.0,0.0,0.0,0.0,0.0,0.0,0.0,0.0,0.0,0.0,0.0,0.0,0.0,1.2262,1.2599,1.2415,1.2378,0.0,0.0,0.0,1.2396,0.0,0.0,0.0,0.0,0.0,0.0,1.3551,1.3772,0.0,0.0,0.0,0.0,0.0,0.0,0.0,0.0,0.0,0.0,0.0,0.0,0.0,1.4114,1.4218,1.424,1.4335,1.4487,0.0,0.0,0.0,0.0,0.0,0.0,0.0,0.0,0.0,0.0,0.0,0.0,0.0,0.0,0.0,0.0,0.0,0.0,0.0,0.0,0.0,0.0,0.0,0.0,0.0,0.0,0.0,0.0,0.0,0.0,0.0,0.0,0.0,0.0,2.9119,2.9236,2.9544,3.0003,3.0037,2.9783,2.9257,2.9383,2.9446,2.9474,3.0003,3.0217,3.0291,3.1034,3.1958,3.2901,3.3325,3.3779,3.4186,3.4695,3.4902,3.4968,0.0,0.0,0.0,0.0,0.0,0.0,0.0,0.0,0.0,0.0,0.0,0.0,0.0,0.0,0.0,0.0,0.0,0.0,0.0,0.0,0.0,0.0,0.0,0.0,0.0,1.1923,1.2117,0.0,0.0,0.0,0.0,0.0,0.0,1.2362,0.0,1.2479,0.0,0.0,1.2949,1.2999,1.3302,1.3455,1.3455,0.0,0.0,0.0,0.0,0.0,0.0,0.0,0.0,0.0,0.0,0.0,0.0,1.4452,1.4511,1.4533,1.4626,0.0,0.0,0.0,0.0,0.0,0.0,0.0,0.0,0.0,0.0,0.0,0.0,0.0,0.0,0.0,0.0,0.0,0.0,0.0,0.0,0.0,0.0,0.0,0.0,0.0,0.0,0.0,0.0,0.0,0.0,0.0,0.0,0.0,0.0,0.0,2.9789,2.9789,3.0033,3.0515,3.0515,3.0234,2.9733,2.9993,3.0155,3.0247,3.0708,3.096,3.1164,3.2031,3.2813,3.3518,3.3779,3.408,3.4448,3.4769,3.4902,3.4968,0.0,0.0,0.0,0.0,0.0,0.0,0.0,0.0,0.0,0.0,0.0,0.0,0.0,0.0,0.0,0.0,0.0,0.0,0.0,0.0,0.0,0.0,0.0,0.0,0.0,0.0,0.0,0.0,0.0,0.0,0.0,0.0,1.2268,1.2268,0.0,1.2831,0.0,1.2896,1.2947,1.2947,1.2984,1.2963,1.2979,1.3162,0.0,0.0,0.0,0.0,0.0,0.0,0.0,0.0,0.0,1.4291,1.4555,1.4545,1.4553,1.4618,0.0,0.0,0.0,0.0,0.0,0.0,0.0,0.0,0.0,0.0,0.0,0.0,0.0,0.0,0.0,0.0,0.0,0.0,0.0,0.0,0.0,0.0,0.0,0.0,0.0,0.0,0.0,0.0,0.0,0.0,0.0,0.0,0.0,0.0,0.0,0.0,2.9949,2.9949,3.0172,0.0,3.0568,3.0671,3.0897,3.1092,3.1313,3.1569,3.1569,3.183,3.2229,3.2768,3.3231,3.3649,3.4196,3.4414,3.4481,3.4769,3.4902,3.4968,0.0,0.0,0.0,0.0,0.0,0.0,0.0,0.0,0.0,0.0,0.0,0.0,0.0,0.0,0.0,0.0,0.0,0.0,0.0,0.0,0.0,0.0,0.0,0.0,0.0,0.0,0.0,0.0,0.0,0.0,0.0,0.0,0.0,1.183,0.0,1.2406,1.2609,1.2997,1.324,1.3381,1.3543,1.3435,1.325,1.3445,0.0,0.0,0.0,0.0,0.0,0.0,0.0,0.0,1.432,1.4582,1.4809,1.4941,1.5095,1.5192,0.0,1.5272,0.0,0.0,0.0,0.0,0.0,0.0,0.0,0.0,0.0,0.0,0.0,0.0,0.0,0.0,0.0,0.0,0.0,0.0,0.0,0.0,0.0,0.0,0.0,0.0,0.0,0.0,0.0,0.0,0.0,0.0,0.0,0.0,0.0,3.0806,3.1223,3.1223,3.1405,0.0,3.1789,3.1954,3.2254,3.1371,3.1422,3.2216,3.2216,3.2687,3.3496,3.3625,3.3873,3.4225,3.4356,3.4481,3.4664,3.4835,3.5001,3.518,0.0,0.0,0.0,0.0,0.0,0.0,0.0,0.0,0.0,0.0,0.0,0.0,0.0,0.0,0.0,0.0,0.0,0.0,0.0,0.0,0.0,0.0,0.0,0.0,0.0,0.0,0.0,0.0,0.0,0.0,0.0,0.0,0.0,1.1771,0.0,1.226,1.2518,1.291,1.3127,1.3233,1.343,1.342,1.3276,1.3579,0.0,0.0,0.0,0.0,0.0,0.0,0.0,0.0,0.0,0.0,1.4966,1.517,1.5305,1.5389,0.0,0.0,0.0,0.0,0.0,0.0,0.0,0.0,0.0,0.0,0.0,0.0,0.0,0.0,0.0,0.0,0.0,0.0,0.0,0.0,0.0,0.0,0.0,0.0,0.0,0.0,0.0,0.0,0.0,0.0,0.0,0.0,0.0,0.0,3.0898,3.1286,3.1609,3.172,3.189,3.2218,3.2277,3.2503,3.2818,3.2278,3.2353,3.2848,3.2848,3.3239,3.3896,3.3896,3.4088,3.4414,3.4414,3.4448,3.4582,3.4802,3.4968,3.5115,0.0,0.0,0.0,0.0,0.0,0.0,0.0,0.0,0.0,0.0,0.0,0.0,0.0,0.0,0.0,0.0,0.0,0.0,0.0,0.0,0.0,0.0,0.0,0.0,0.0,0.0,0.0,0.0,0.0,0.0,0.0,0.0,0.0,1.1766,0.0,0.0,1.2555,1.2813,1.2959,1.3039,1.324,1.3287,1.3326,0.0,0.0,0.0,0.0,0.0,0.0,0.0,0.0,0.0,0.0,0.0,1.4966,1.5253,1.5382,1.5423,0.0,0.0,0.0,0.0,0.0,0.0,0.0,0.0,0.0,0.0,0.0,0.0,0.0,0.0,0.0,0.0,0.0,0.0,0.0,0.0,0.0,0.0,0.0,0.0,0.0,0.0,0.0,0.0,0.0,0.0,2.9792,3.019,3.0406,3.0406,3.1011,3.1397,3.1609,3.178,3.2,3.2218,3.2359,3.2632,3.3023,3.3206,3.329,3.329,3.329,3.3536,3.3896,3.3896,3.4088,3.4414,3.4414,3.4414,3.4481,3.4802,3.4935,3.5001,0.0,0.0,0.0,0.0,0.0,0.0,0.0,0.0,0.0,0.0,0.0,0.0,0.0,0.0,0.0,0.0,0.0,0.0,0.0,0.0,0.0,0.0,0.0,0.0,0.0,0.0,0.0,0.0,0.0,0.0,0.0,0.0,0.0,0.0,0.0,0.0,0.0,1.2973,1.3283,1.3584,1.362,1.3601,0.0,0.0,0.0,0.0,0.0,0.0,0.0,0.0,0.0,0.0,0.0,0.0,0.0,1.5079,1.5374,1.5609,0.0,0.0,0.0,0.0,0.0,0.0,0.0,0.0,0.0,0.0,0.0,0.0,0.0,0.0,0.0,0.0,0.0,0.0,0.0,0.0,0.0,0.0,0.0,0.0,0.0,0.0,0.0,0.0,0.0,0.0,2.9792,3.019,3.0406,3.0406,3.1011,3.1397,3.1609,3.178,3.2,3.2218,3.2503,3.2775,3.3023,3.3206,3.329,3.329,3.329,3.3536,3.3896,3.3896,3.4088,3.4414,3.4414,3.4515,3.4698,3.4835,3.5001,3.518,0.0,0.0,0.0,0.0,0.0,0.0,0.0,0.0,0.0,0.0,0.0,0.0,0.0,0.0,0.0,0.0,0.0,0.0,0.0,0.0,0.0,0.0,0.0,0.0,0.0,0.0,0.0,0.0,0.0,0.0,0.0,1.1331,1.1511,0.0,0.0,0.0,0.0,0.0,0.0,0.0,0.0,0.0,0.0,0.0,0.0,0.0,0.0,0.0,0.0,0.0,0.0,0.0,0.0,0.0,0.0,0.0,0.0,0.0,1.6105,0.0,0.0,0.0,0.0,0.0,0.0,0.0,0.0,0.0,0.0,0.0,0.0,0.0,0.0,0.0,0.0,0.0,0.0,0.0,0.0,0.0,0.0,0.0,0.0,0.0,0.0,0.0,0.0,2.9509,2.9792,3.019,3.0406,3.0406,3.1099,3.1522,3.1609,3.189,3.2205,3.2467,3.2632,3.2846,3.3157,3.3241,3.329,3.329,3.329,3.3466,3.3744,3.3862,3.402,3.423,3.4346,3.4448,3.4549,3.4802,3.5189,3.5648,0.0,0.0,0.0,0.0,0.0,0.0,0.0,0.0,0.0,0.0,0.0,0.0,0.0,0.0,0.0,0.0,0.0,0.0,0.0,0.0,0.0,0.0,0.0,0.0,0.0,0.0,0.0,0.0,0.0,0.0,1.101,1.1221,1.1506,0.0,1.1788,0.0,0.0,0.0,0.0,0.0,0.0,0.0,0.0,0.0,0.0,0.0,0.0,0.0,0.0,0.0,0.0,0.0,0.0,0.0,0.0,0.0,0.0,0.0,0.0,0.0,0.0,0.0,0.0,0.0,0.0,0.0,0.0,0.0,0.0,0.0,0.0,0.0,0.0,0.0,0.0,0.0,0.0,0.0,0.0,0.0,0.0,0.0,0.0,0.0,0.0,0.0,0.0,2.9443,2.9792,3.019,3.0406,3.0406,3.1136,3.1559,3.1609,3.2,3.2336,3.2632,3.2668,3.2881,3.3241,3.329,3.329,3.329,3.329,3.3396,3.3605,3.3827,3.3985,3.4128,3.4312,3.4414,3.4462,3.4993,3.548,3.599,0.0,0.0,0.0,0.0,0.0,0.0,0.0,0.0,0.0,0.0,0.0,0.0,0.0,0.0,0.0,0.0,0.0,0.0,0.0,0.0,0.0,0.0,0.0,0.0,0.0,0.0,0.0,0.0,0.0,0.0,1.1272,1.1307,1.1433,1.1725,1.1892,1.1983,1.2043,0.0,0.0,0.0,0.0,0.0,0.0,0.0,0.0,0.0,0.0,0.0,0.0,0.0,0.0,0.0,0.0,0.0,0.0,0.0,0.0,0.0,0.0,0.0,0.0,0.0,0.0,0.0,0.0,0.0,0.0,0.0,0.0,0.0,0.0,0.0,0.0,0.0,0.0,0.0,0.0,0.0,0.0,0.0,0.0,0.0,0.0,0.0,0.0,0.0,0.0,2.9339,2.9792,3.019,3.0406,3.0406,3.1011,3.1397,3.1609,3.2,3.2264,3.2417,3.2596,3.281,3.3023,3.3206,3.329,3.329,3.329,3.3396,3.3605,3.3827,3.3985,3.4128,3.4312,3.4414,3.452,3.5492,3.5863,3.6049,0.0,0.0,0.0,0.0,0.0,0.0,0.0,0.0,0.0,0.0,0.0,0.0,0.0,0.0,0.0,0.9989,1.0024,0.0,0.0,0.0,0.0,0.0,0.0,0.0,0.0,0.0,0.0,0.0,0.0,1.0649,1.0846,1.104,1.1244,1.144,1.1527,1.1656,1.1828,1.1828,0.0,0.0,0.0,1.2881,0.0,0.0,0.0,0.0,0.0,0.0,0.0,0.0,0.0,0.0,0.0,0.0,0.0,0.0,0.0,0.0,0.0,0.0,0.0,0.0,0.0,0.0,0.0,0.0,0.0,0.0,0.0,0.0,0.0,0.0,0.0,0.0,0.0,0.0,0.0,0.0,0.0,0.0,0.0,0.0,0.0,0.0,0.0,0.0,0.0,0.0,2.9792,3.019,3.0406,3.0406,3.1011,3.1471,3.178,3.2073,3.2277,3.2417,3.2489,3.2668,3.2988,3.3072,3.3192,3.329,3.329,3.3361,3.3431,3.3744,3.3931,3.402,3.4278,3.4661,3.5121,3.5683,3.6438,3.726,0.0,0.0,0.0,0.0,0.0,0.0,0.0,0.0,0.0,0.0,0.0,0.0,0.0,0.0,0.0,0.9775,0.9736,0.977,0.9904,0.9805,0.0,0.0,0.0,0.0,0.0,0.0,0.0,0.0,0.0,0.0,0.0,0.0,1.1155,1.1305,1.1305,0.0,0.0,0.0,0.0,1.2283,0.0,0.0,1.3446,0.0,0.0,0.0,0.0,0.0,0.0,0.0,0.0,0.0,0.0,0.0,0.0,0.0,0.0,0.0,0.0,0.0,0.0,0.0,0.0,0.0,0.0,0.0,0.0,0.0,0.0,0.0,0.0,0.0,0.0,0.0,0.0,0.0,0.0,0.0,0.0,0.0,0.0,0.0,0.0,0.0,0.0,0.0,0.0,0.0,2.9792,3.019,3.0444,3.0596,3.1123,3.1508,3.178,3.2073,3.2241,3.2322,3.2381,3.2596,3.2917,3.2988,3.3108,3.329,3.329,3.329,3.3326,3.3709,3.3896,3.3945,3.4524,3.4994,3.5485,3.629,3.7116,3.7969,0.0,0.0,0.0,0.0,0.0,0.0,0.0,0.0,0.0,0.0,0.0,0.0,0.0,0.0,0.0,0.9718,0.9508,0.9478,0.9694,0.9403,0.0,0.0,0.0,0.0,0.0,0.0,0.0,0.0,0.0,0.0,0.0,0.0,1.1305,0.0,1.1305,1.1305,1.1311,0.0,1.1564,1.2,0.0,1.2626,1.3542,0.0,0.0,0.0,1.516,1.5613,0.0,0.0,0.0,0.0,0.0,0.0,0.0,0.0,0.0,0.0,0.0,0.0,0.0,0.0,0.0,0.0,0.0,0.0,0.0,0.0,0.0,0.0,0.0,0.0,0.0,0.0,0.0,0.0,0.0,0.0,0.0,0.0,0.0,0.0,0.0,0.0,0.0,0.0,0.0,2.9521,2.9792,3.019,3.0596,3.0986,3.1373,3.1609,3.1609,3.2,3.2218,3.2218,3.2322,3.2489,3.2704,3.2917,3.3108,3.329,3.329,3.329,3.3361,3.3744,3.3911,3.4017,3.5021,3.5421,3.5645,3.7304,3.7919,3.8073,0.0,0.0,0.0,0.0,0.0,0.0,0.0,0.0,0.0,0.0,0.0,0.0,0.0,0.0,0.0,0.9315,0.9217,0.9249,0.9606,0.9543,0.9606,0.9857,0.9825,0.9852,0.0,0.0,0.0,0.0,0.0,0.0,0.0,0.0,0.0,0.0,1.1305,1.1397,1.157,1.157,0.0,0.0,1.2624,1.3218,0.0,0.0,0.0,0.0,0.0,1.619,0.0,0.0,1.7262,1.7437,0.0,0.0,0.0,0.0,0.0,0.0,1.8571,0.0,0.0,0.0,0.0,0.0,0.0,0.0,0.0,0.0,0.0,0.0,0.0,0.0,0.0,0.0,0.0,0.0,0.0,0.0,0.0,0.0,0.0,0.0,0.0,0.0,0.0,0.0,2.9456,2.9702,2.9792,3.019,3.0596,3.0986,3.1373,3.1609,3.1609,3.2,3.2218,3.2218,3.2241,3.2408,3.2704,3.2775,3.2966,3.329,3.329,3.3396,3.3536,3.3793,3.4154,3.4624,3.5181,3.5973,3.6859,3.7628,3.8199,3.8634,0.0,0.0,0.0,0.0,0.0,0.0,0.0,0.0,0.0,0.0,0.0,0.0,0.0,0.0,0.0,0.0,0.9285,0.943,0.9755,0.9854,0.9984,1.0179,1.0126,1.0078,1.0078,0.0,0.0,0.0,0.0,0.0,0.0,0.0,0.0,0.0,0.0,0.0,0.0,0.0,0.0,0.0,1.3125,0.0,0.0,1.4987,1.5438,0.0,0.0,0.0,1.7048,1.7694,1.8053,0.0,0.0,0.0,0.0,0.0,0.0,0.0,0.0,0.0,0.0,0.0,0.0,0.0,2.273,2.3525,0.0,0.0,0.0,0.0,0.0,0.0,0.0,0.0,0.0,0.0,0.0,0.0,0.0,0.0,0.0,0.0,0.0,0.0,0.0,2.9091,2.9546,2.9869,3.0049,3.0254,3.0596,3.0986,3.1323,3.1522,3.1609,3.1927,3.2109,3.2218,3.2218,3.2372,3.2704,3.2704,3.2931,3.329,3.329,3.3396,3.3633,3.4084,3.4538,3.5016,3.5846,3.6635,3.7368,3.8018,3.8524,3.887,0.0,0.0,0.0,0.0,0.0,0.0,0.0,0.0,0.0,0.0,0.0,0.0,0.0,0.0,0.0,0.0,0.9535,0.9804,1.0001,1.0199,1.0395,1.0552,1.0404,1.0292,1.0258,1.0039,0.0,0.0,0.0,0.0,0.0,0.0,0.0,0.0,0.0,0.0,0.0,0.0,0.0,1.3484,1.3691,1.4441,0.0,0.0,1.6025,0.0,1.7239,1.7574,1.7861,1.8388,1.8881,0.0,0.0,0.0,0.0,0.0,1.9209,0.0,0.0,0.0,0.0,0.0,0.0,0.0,2.2778,2.3595,2.4325,0.0,0.0,0.0,0.0,0.0,0.0,0.0,0.0,0.0,0.0,0.0,0.0,0.0,0.0,0.0,0.0,2.8855,2.9091,2.9091,2.9546,2.9972,3.0368,3.0406,3.0596,3.0986,3.1198,3.1397,3.1609,3.178,3.2,3.2218,3.2218,3.2372,3.2704,3.2739,3.2931,3.329,3.3361,3.3529,3.3796,3.4675,3.5095,3.5329,3.6751,3.7346,3.7499,3.8444,3.8782,3.887,0.0,0.0,0.0,0.0,0.0,0.0,0.0,0.0,0.0,0.0,0.0,0.0,0.0,0.0,0.0,0.0,0.0,0.9797,0.9969,1.0171,1.0314,1.0354,1.0312,1.0211,0.9969,1.0124,1.0244,0.0,0.0,0.0,0.0,0.0,0.0,0.0,0.0,0.0,0.0,0.0,0.0,1.4996,1.5009,0.0,1.547,1.6367,1.6868,1.7232,1.7753,1.8141,1.8435,0.0,1.9379,1.9828,0.0,0.0,0.0,0.0,0.0,0.0,0.0,0.0,0.0,0.0,0.0,0.0,2.2869,2.3888,2.4775,0.0,0.0,0.0,0.0,0.0,0.0,0.0,0.0,0.0,0.0,0.0,0.0,0.0,0.0,0.0,0.0,2.8855,2.9091,2.9091,2.9546,2.9972,3.0368,3.0406,3.0596,3.0986,3.1198,3.1397,3.1609,3.178,3.2,3.2218,3.23,3.2489,3.2704,3.2881,3.3072,3.3319,3.381,3.4221,3.4661,3.5839,3.612,3.5899,3.6925,3.7607,3.808,3.859,3.8782,3.887,0.0,0.0,0.0,0.0,0.0,0.0,0.0,0.0,0.0,0.0,0.0,0.0,0.0,0.0,0.0,0.0,0.0,0.0,0.0,0.0,1.0485,1.0485,1.0377,1.0233,1.0109,1.0249,1.0371,1.0439,0.0,0.0,0.0,0.0,0.0,0.0,0.0,0.0,0.0,0.0,1.5153,1.5611,1.5611,0.0,1.6418,1.6955,1.7387,1.7753,1.8141,1.8558,1.8928,1.9563,1.9874,0.0,0.0,2.0651,2.0647,0.0,2.0842,2.0862,0.0,0.0,0.0,2.1482,0.0,0.0,0.0,2.3685,2.4344,2.4344,0.0,0.0,0.0,0.0,0.0,0.0,0.0,0.0,0.0,0.0,0.0,0.0,0.0,0.0,0.0,2.8934,2.9221,2.9417,2.9663,2.9972,3.0368,3.0406,3.0596,3.0986,3.1099,3.1286,3.1609,3.172,3.1927,3.23,3.2359,3.2561,3.2846,3.3272,3.3569,3.3768,3.4421,3.4893,3.5311,3.6296,3.6681,3.6722,3.7469,3.7978,3.8404,3.8686,3.887,3.898,0.0,0.0,0.0,0.0,0.0,0.0,0.0,0.0,0.0,0.0,0.0,0.0,0.0,0.0,0.0,0.0,0.0,0.0,0.0,0.0,1.0684,1.0641,1.0431,1.0293,1.0293,1.0331,1.0491,1.071,0.0,0.0,0.0,0.0,0.0,0.0,0.0,0.0,0.0,0.0,0.0,1.6109,0.0,1.6581,1.7333,1.7426,1.78,1.8272,1.8612,1.902,1.9509,2.011,0.0,2.051,2.0961,2.1139,0.0,0.0,0.0,0.0,0.0,0.0,0.0,0.0,0.0,2.3115,0.0,0.0,0.0,2.3897,0.0,0.0,0.0,0.0,0.0,0.0,0.0,0.0,0.0,0.0,0.0,0.0,0.0,0.0,0.0,2.9,2.9339,2.9753,2.9792,2.9972,3.0368,3.0406,3.0596,3.0986,3.0986,3.1174,3.1609,3.1646,3.1913,3.2417,3.2489,3.2759,3.3183,3.3706,3.4136,3.445,3.5142,3.5617,3.5953,3.6633,3.7143,3.7535,3.8014,3.8315,3.8516,3.8723,3.8943,3.9141,0.0,0.0,0.0,0.0,0.0,0.0,0.0,0.0,0.0,0.0,0.0,0.0,0.0,0.0,0.0,0.0,0.0,0.0,1.026,0.0,0.0,1.0381,1.0313,1.0298,1.0298,1.0537,1.0833,1.1198,0.0,0.0,0.0,0.0,0.0,0.0,1.4212,0.0,0.0,0.0,1.6513,0.0,1.7138,1.7185,0.0,1.7846,1.8319,1.8781,1.9304,1.9799,2.0201,0.0,2.06,2.0952,0.0,2.149,0.0,0.0,0.0,0.0,0.0,0.0,0.0,0.0,2.2726,0.0,0.0,0.0,2.4346,2.4346,0.0,0.0,0.0,0.0,0.0,0.0,0.0,0.0,0.0,0.0,0.0,0.0,0.0,0.0,0.0,0.0,2.9482,2.9792,2.9792,2.9972,3.0368,3.0406,3.0596,3.0986,3.0986,3.1174,3.1609,3.178,3.2059,3.2417,3.2775,3.3231,3.3796,3.4038,3.4483,3.5119,3.5925,3.6381,3.6662,3.7457,3.789,3.8101,3.8173,3.8315,3.8516,3.8723,3.8943,3.9141,0.0,0.0,0.0,0.0,0.0,0.0,0.0,0.0,0.0,0.0,0.0,0.0,0.0,0.0,0.0,0.0,0.0,0.9907,0.0,0.0,0.0,0.0,1.025,1.0294,1.0294,1.0816,1.124,1.1542,1.2187,0.0,0.0,0.0,0.0,0.0,1.4785,0.0,1.5705,0.0,0.0,0.0,0.0,0.0,0.0,1.8816,1.9304,1.9937,2.0255,2.0496,2.0692,0.0,2.1069,0.0,0.0,0.0,0.0,0.0,0.0,0.0,0.0,0.0,0.0,0.0,0.0,0.0,0.0,0.0,2.4106,0.0,0.0,0.0,0.0,0.0,0.0,0.0,0.0,0.0,0.0,0.0,0.0,0.0,0.0,0.0,0.0,0.0,0.0,0.0,0.0,3.0113,3.0368,3.0495,3.0685,3.0986,3.1099,3.1323,3.1609,3.1927,3.2228,3.2561,3.3229,3.3729,3.4094,3.4933,3.5522,3.5953,3.6613,3.7111,3.7404,3.7753,3.8028,3.8202,3.8329,3.8516,3.8686,3.8907,3.9104,3.9301,0.0,0.0,0.0,0.0,0.0,0.0,0.0,0.0,0.0,0.0,0.0,0.0,0.8528,0.8762,0.0,0.0,0.0,0.9811,0.0,0.0,1.021,0.0,0.0,0.0,0.0,1.1213,1.1661,1.2019,1.262,0.0,0.0,0.0,0.0,0.0,0.0,1.5765,1.6327,0.0,0.0,1.839,1.9008,1.9701,2.0313,2.0006,2.0325,2.0916,2.1075,2.1147,2.1249,2.1472,2.1527,0.0,2.1963,0.0,0.0,0.0,0.0,0.0,2.4397,0.0,0.0,0.0,0.0,0.0,0.0,0.0,0.0,0.0,0.0,0.0,0.0,0.0,0.0,0.0,0.0,0.0,0.0,0.0,0.0,0.0,0.0,0.0,0.0,0.0,0.0,2.963,2.9999,3.0267,3.0482,3.0685,3.0874,3.1099,3.1286,3.1471,3.1683,3.2059,3.249,3.2966,3.3662,3.4248,3.4773,3.5658,3.6316,3.6651,3.7181,3.7586,3.7891,3.7967,3.8066,3.824,3.8464,3.8686,3.8819,3.9017,3.9228,3.9388,0.0,0.63,0.0,0.0,0.0,0.0,0.0,0.0,0.0,0.0,0.0,0.0,0.0,0.0,0.0,0.0,0.0,1.0274,1.0556,0.0,1.0689,0.0,0.0,1.1196,0.0,0.0,1.2038,1.2768,1.3066,0.0,0.0,0.0,0.0,0.0,0.0,1.6402,1.7457,1.776,1.8483,1.947,1.9755,2.0557,2.1493,0.0,2.123,2.1518,2.1683,0.0,0.0,2.196,2.1835,0.0,0.0,0.0,0.0,0.0,0.0,0.0,0.0,0.0,0.0,2.4556,0.0,0.0,0.0,0.0,2.5224,0.0,0.0,0.0,0.0,0.0,0.0,0.0,0.0,0.0,0.0,0.0,0.0,0.0,0.0,0.0,0.0,0.0,0.0,2.9238,2.9935,3.0482,3.0698,3.0874,3.1099,3.1272,3.1485,3.1683,3.189,3.2214,3.2827,3.3652,3.4008,3.4857,3.6047,3.6089,3.6517,3.7275,3.7495,3.7701,3.7929,3.8104,3.8202,3.824,3.8634,3.8782,3.8819,3.9017,3.9228,3.9388,0.0,0.0,0.0,0.0,0.0,0.0,0.0,0.6863,0.0,0.0,0.0,0.0,0.0,0.0,0.9351,0.0,0.0,1.025,1.0343,1.0477,0.0,0.0,0.0,1.1354,0.0,0.0,0.0,0.0,0.0,0.0,0.0,0.0,0.0,0.0,0.0,1.7234,0.0,0.0,0.0,0.0,0.0,2.1587,2.1938,0.0,0.0,2.2528,2.2607,2.267,0.0,2.2326,2.2144,2.2125,2.226,2.2397,2.2706,2.345,2.409,0.0,0.0,0.0,2.5529,2.5623,0.0,0.0,0.0,0.0,0.0,0.0,0.0,0.0,0.0,0.0,0.0,0.0,0.0,0.0,0.0,0.0,0.0,0.0,0.0,0.0,0.0,0.0,0.0,2.8788,2.9545,3.0103,0.0,3.0876,3.1286,3.1485,3.1706,3.189,3.2109,3.2431,3.3007,3.3834,3.4523,3.5316,3.6117,3.6525,3.6989,3.7495,3.7586,3.7801,3.8104,3.8165,3.8277,3.8441,3.8671,3.887,3.9017,3.9228,3.9337,3.9388,0.631,0.0,0.0,0.0,0.0,0.0,0.0,0.0,0.0,0.0,0.8059,0.0,0.8879,0.0,0.9639,0.0,1.0371,1.0603,1.0702,1.0844,0.0,1.1221,1.1452,0.0,0.0,0.0,0.0,0.0,0.0,1.407,0.0,0.0,0.0,0.0,0.0,0.0,0.0,0.0,2.0406,0.0,0.0,2.2182,0.0,0.0,2.3046,2.317,0.0,2.3316,2.3166,2.2838,2.2704,2.2649,2.2603,2.2783,2.3119,2.362,2.4219,2.4722,2.5115,2.5506,0.0,2.6115,2.6282,0.0,2.6379,0.0,0.0,0.0,0.0,0.0,0.0,0.0,0.0,0.0,0.0,0.0,0.0,0.0,0.0,0.0,0.0,0.0,0.0,0.0,2.8499,2.844,2.922,2.9852,0.0,0.0,3.1332,3.1706,3.195,3.2119,3.2264,3.2632,3.3298,3.4278,3.4918,3.5625,3.6441,3.6796,3.7226,3.7625,3.7625,3.7839,3.8202,3.8202,3.8315,3.8516,3.8723,3.8907,3.9104,3.9337,3.9388,3.9388,0.0,0.0,0.0,0.0,0.6239,0.0,0.0,0.0,0.7878,0.0,0.8351,0.8698,0.9396,0.9473,0.9934,1.1096,1.1222,0.0,1.157,1.1609,0.0,0.0,1.1839,1.2127,1.237,0.0,0.0,0.0,0.0,0.0,0.0,0.0,0.0,0.0,1.7047,0.0,1.9298,2.0093,2.0944,2.1776,2.2021,2.2333,2.2653,2.2896,2.3147,2.3447,2.3696,2.3699,2.3526,2.3499,2.3424,2.3299,2.3117,2.3519,2.4058,2.3861,2.4325,2.4946,2.5158,2.5422,2.5728,2.6104,0.0,0.0,0.0,0.0,2.7134,0.0,0.0,0.0,0.0,0.0,0.0,0.0,0.0,0.0,0.0,0.0,0.0,0.0,0.0,0.0,0.0,0.0,2.8278,2.8105,2.893,0.0,0.0,0.0,3.1272,3.1873,3.2237,3.2417,3.2417,3.281,3.3651,3.4929,3.5115,3.5836,3.6978,3.7017,3.7226,3.7625,3.7625,3.7839,3.8202,3.8202,3.8315,3.8553,3.8723,3.8943,3.9141,3.9337,3.9388,3.9388,0.6273,0.6497,0.6698,0.0,0.6927,0.7129,0.0,0.0,0.0,0.0,0.9116,0.9404,1.0072,1.047,1.078,1.1079,1.142,0.0,0.0,0.0,0.0,1.1784,1.1924,1.2127,1.237,1.3055,0.0,1.3491,0.0,0.0,1.4694,0.0,0.0,0.0,0.0,0.0,1.9786,2.0629,2.1545,2.2392,2.2443,2.2544,0.0,0.0,2.3147,2.3447,2.3696,2.3881,2.395,2.3648,2.3618,2.3747,2.356,2.3669,2.3949,2.4241,2.4625,2.4946,2.5158,2.5591,2.6104,2.6437,2.6644,2.6891,0.0,0.0,0.0,0.0,0.0,0.0,0.0,0.0,0.0,0.0,0.0,0.0,0.0,0.0,0.0,0.0,0.0,0.0,0.0,0.0,2.7779,2.788,2.8499,0.0,0.0,0.0,0.0,3.1659,3.2162,3.2561,3.2846,3.2952,3.3723,3.5115,3.5189,3.5836,3.7017,3.7148,3.7341,3.7625,3.7777,3.7967,3.8202,3.8202,3.8427,3.8723,3.8797,3.9017,3.9337,3.9388,3.9388,3.9388,0.6303,0.0,0.0,0.719,0.0,0.0,0.7817,0.0,0.0,0.9328,0.9636,0.0,1.0482,1.0969,1.1341,1.1545,1.1803,0.0,0.0,0.0,0.0,1.2059,1.2189,1.2473,1.2872,1.3412,0.0,1.4035,0.0,0.0,1.5213,0.0,0.0,0.0,0.0,1.9007,0.0,2.1296,2.2146,2.2594,2.2594,0.0,0.0,2.2745,2.2996,2.3247,2.3555,2.3845,2.4165,2.3975,2.4096,2.4322,2.4193,2.4355,2.4689,2.4615,2.4983,2.5338,2.5349,2.577,2.6271,2.652,2.6768,2.6933,2.7149,2.7371,2.7522,0.0,0.0,0.0,0.0,0.0,0.0,0.0,0.0,0.0,0.0,0.0,0.0,0.0,0.0,0.0,0.0,0.0,0.0,0.0,0.0,0.0,0.0,0.0,0.0,3.159,3.2024,3.2512,3.2988,3.3108,3.388,3.5337,3.5337,3.6024,3.7264,3.738,3.7534,3.7739,3.7853,3.7991,3.8202,3.8202,3.8389,3.8686,3.887,3.9104,3.9388,3.9388,3.9388,3.9388,0.0,0.0,0.0,0.0,0.0,0.0,0.0,0.8685,0.0,0.9421,0.0,1.0429,1.0747,1.1176,1.16,1.2119,0.0,1.221,1.221,1.2237,1.2274,1.2331,1.256,1.2956,1.348,1.3825,0.0,0.0,0.0,0.0,0.0,0.0,0.0,0.0,0.0,0.0,0.0,2.187,2.2493,0.0,2.2544,2.2544,2.2544,2.2594,2.2745,2.3046,2.3297,2.3669,2.407,2.4356,2.4564,2.4714,2.4718,2.5191,2.5591,2.5041,2.5386,2.585,2.5646,2.5895,2.6271,2.652,2.6768,2.6933,2.7149,2.7371,2.7615,2.7841,2.807,2.7977,0.0,0.0,0.0,0.0,0.0,0.0,0.0,0.0,0.0,0.0,0.0,0.0,0.0,0.0,0.0,0.0,0.0,0.0,0.0,0.0,0.0,3.1522,3.191,0.0,3.3023,0.0,3.4157,3.5498,3.5605,3.6333,3.7625,3.7625,3.7739,3.7891,3.7929,3.8028,3.8202,3.8202,3.8315,3.8553,3.8958,3.9228,3.9337,3.9388,3.9388,3.9388,0.0,0.0,0.0,0.0,0.0,0.8361,0.8575,0.8766,0.9092,0.9724,0.9977,1.0418,1.1198,1.1273,1.1553,1.2082,1.2072,0.0,0.0,0.0,0.0,1.2567,1.3065,1.3372,1.348,1.4197,1.4619,0.0,0.0,0.0,0.0,0.0,0.0,0.0,0.0,0.0,2.037,2.142,0.0,2.1878,2.208,2.2182,2.2232,2.2493,2.2745,2.3046,2.3297,2.3341,2.3356,2.3842,2.3945,2.3994,2.4526,2.4984,2.5315,2.5371,2.5636,2.585,2.5646,2.5895,2.6271,2.652,2.6768,2.6933,2.7149,2.7516,2.7841,2.7881,2.8191,2.8146,2.709,0.0,0.0,0.0,0.0,0.0,0.0,0.0,0.0,0.0,0.0,0.0,0.0,0.0,0.0,0.0,0.0,0.0,0.0,0.0,0.0,0.0,3.1811,0.0,0.0,0.0,3.471,3.5498,3.6171,3.6873,3.7625,3.7777,3.7853,3.7891,3.8066,3.8165,3.8202,3.8202,3.8315,3.8553,3.8958,3.9104,3.9177,3.9337,3.9388,3.9388,0.0,0.0,0.0,0.0,0.0,0.0,0.0,0.8591,0.0,0.9721,1.0076,1.0505,1.1094,1.1318,1.1594,1.2025,1.2005,1.2169,1.2604,1.2734,1.289,1.3163,1.3636,0.0,1.4262,1.4809,1.524,1.5506,0.0,0.0,0.0,0.0,0.0,0.0,0.0,1.9918,0.0,0.0,0.0,2.1725,2.1971,2.2072,2.2131,2.2493,2.2695,2.2846,2.3247,2.3296,2.3199,2.3884,2.3937,2.3803,2.4351,2.4841,2.5184,2.5167,2.5521,2.585,2.5646,2.5895,2.6271,2.652,2.6768,2.6933,2.7149,2.7557,2.7893,2.7893,2.8243,2.8186,2.7229,2.6347,0.0,0.0,0.0,0.0,0.0,0.0,0.0,0.0,0.0,0.0,0.0,0.0,0.0,0.0,0.0,0.0,0.0,0.0,0.0,0.0,0.0,0.0,0.0,0.0,0.0,3.5658,3.647,3.7236,3.7901,3.7991,3.8066,3.8066,3.8179,3.8202,3.8202,3.8202,3.8315,3.8516,3.8701,3.8922,3.9104,3.9228,3.9301,3.9388,0.0,0.6915,0.0,0.0,0.7604,0.0,0.818,0.8608,0.9026,0.961,1.0048,1.0477,1.0973,1.1318,1.1678,1.206,1.2114,1.2332,1.2881,1.2989,1.3315,1.3802,1.4175,1.4606,1.5095,1.5481,1.5866,0.0,0.0,0.0,0.0,0.0,0.0,0.0,0.0,0.0,0.0,0.0,2.1522,2.1573,2.1878,2.2021,2.2072,2.2443,2.2644,2.2745,2.3247,2.3296,2.3296,2.4038,2.4022,2.3734,2.4185,2.4663,2.5013,2.4927,2.5344,2.5806,2.5646,2.5822,2.6146,2.6437,2.6685,2.6891,2.7097,2.7516,2.7893,2.7893,2.8108,2.8093,2.7268,2.6384,0.0,0.0,0.0,0.0,0.0,0.0,0.0,0.0,0.0,0.0,0.0,0.0,0.0,0.0,0.0,0.0,0.0,0.0,0.0,0.0,0.0,3.2764,3.3473,0.0,3.5152,0.0,3.6819,3.7552,3.8202,3.8202,3.8202,3.8202,3.8202,3.8202,3.8202,3.8202,3.8277,3.8441,3.8478,3.8738,3.9031,3.9068,3.9228,3.9388,0.0,0.0,0.0,0.0,0.0,0.0,0.9004,0.9254,0.9406,0.9563,0.9744,1.0284,1.1433,1.1282,1.1455,1.2278,1.2387,1.2495,1.2881,1.3369,1.3802,1.4116,1.4659,1.5095,1.5428,1.5986,1.6268,0.0,0.0,0.0,0.0,0.0,0.0,0.0,0.0,0.0,0.0,2.0817,2.0968,2.1019,2.1522,2.1725,2.1827,2.2392,2.2745,2.2996,2.3297,2.3444,2.3547,2.4125,2.3926,2.3522,2.3973,2.4341,2.4654,2.5067,2.5399,2.5633,2.5604,2.5644,2.5728,2.6157,2.6437,2.6685,2.6891,2.7435,2.7893,2.7893,2.7822,2.7621,2.7031,2.659,2.6177,0.0,0.0,0.0,0.0,0.0,0.0,0.0,0.0,0.0,0.0,0.0,0.0,0.0,0.0,0.0,0.0,0.0,0.0,3.1438,0.0,3.296,3.4104,3.4978,3.5821,3.6648,3.7428,3.7933,3.8202,3.8202,3.8202,3.8202,3.8202,3.8202,3.8202,3.8202,3.8202,3.824,3.8441,3.8612,3.887,3.9017,3.9228,3.9388,0.0,0.0,0.0,0.0,0.0,0.0,0.0,0.9223,0.9629,1.0159,1.0319,1.0582,1.124,1.135,1.1623,1.2114,1.2169,1.2441,1.3098,1.3315,1.3743,1.4385,1.4821,1.5256,1.5737,1.6264,1.6632,0.0,0.0,0.0,0.0,0.0,0.0,0.0,0.0,2.0117,2.0472,2.0605,2.0771,2.0976,2.1471,2.1725,2.1776,2.2392,2.2745,2.3046,2.3297,2.3696,2.4103,2.4257,2.3898,2.3464,2.3824,2.4014,2.4112,2.4287,2.4755,2.5231,2.5349,2.5475,2.5696,2.6115,2.6396,2.6644,2.685,2.7435,2.7893,2.7893,2.7787,2.7522,2.6994,2.6515,2.607,0.0,0.0,0.0,0.0,0.0,0.0,0.0,0.0,0.0,0.0,0.0,0.0,0.0,0.0,0.0,0.0,0.0,0.0,3.131,0.0,3.3697,3.4203,3.543,3.6202,3.6532,3.7438,3.7929,3.8028,3.8127,3.8202,3.8202,3.8202,3.8202,3.8202,3.8202,3.8202,3.8202,3.8277,3.8427,3.8649,3.8833,3.9068,3.9228,0.6907,0.0,0.7415,0.0,0.8122,0.8648,0.924,0.9592,1.0036,1.0747,1.0966,1.1126,1.135,1.1568,1.1841,1.2114,1.2223,1.255,1.3261,1.3369,1.3802,1.4659,1.4874,0.0,1.5998,1.6471,1.6842,1.7179,1.7492,0.0,0.0,0.0,0.0,0.0,1.9704,2.0033,2.0522,2.0522,2.0668,2.0976,2.1471,2.1725,2.1776,2.2443,2.2896,2.3147,2.3397,2.3994,2.459,2.4503,2.4126,2.3719,2.3873,2.385,2.3841,2.3884,2.4315,2.4828,2.5115,2.5338,2.5591,2.6032,2.6354,2.6644,2.6768,2.7301,2.7829,2.7962,2.7894,2.7672,2.7145,2.6557,2.6056,2.572,0.0,0.0,0.0,0.0,0.0,0.0,0.0,2.7582,2.7751,0.0,0.0,0.0,0.0,0.0,0.0,0.0,0.0,0.0,0.0,0.0,0.0,3.5719,3.6368,3.6651,3.7372,3.7739,3.7815,3.8028,3.8127,3.8202,3.8202,3.8202,3.8202,3.8202,3.8202,3.8202,3.8202,3.8315,3.8516,3.8649,3.887,3.9104,0.7152,0.7432,0.7768,0.8374,0.8699,0.9199,1.0143,1.0527,1.0802,1.1072,1.1623,1.2005,1.2005,1.2005,1.211,1.2387,1.2713,1.2989,1.3261,1.3537,1.4072,0.0,0.0,1.541,1.6271,1.6577,1.6842,1.7179,0.0,0.0,1.8415,0.0,1.9654,1.962,1.9933,2.0241,2.0522,2.0522,2.0668,2.0976,2.1471,2.1725,2.1776,2.2636,2.3147,2.3447,2.3696,2.4291,2.4883,2.4883,2.4651,2.4336,2.4177,2.3973,2.3841,2.411,2.4325,2.4625,2.5073,2.52,2.5327,2.5812,2.6229,2.6603,2.6603,2.7074,2.7644,2.8087,2.8207,2.804,2.7477,2.6801,2.6205,2.5834,0.0,0.0,0.0,0.0,0.0,0.0,2.8318,2.8179,2.8373,0.0,0.0,0.0,0.0,0.0,0.0,0.0,0.0,3.2918,3.3384,0.0,3.6075,3.5903,3.6287,3.7289,3.7303,3.7419,3.7625,3.7815,3.7991,3.8202,3.8202,3.8202,3.8202,3.8202,3.8202,3.8202,3.8202,3.8315,3.8478,3.8478,3.8775,3.9104,0.7207,0.7678,0.8213,0.8695,0.9232,0.9916,1.083,1.1057,1.1341,1.2016,1.2298,1.2421,1.2566,1.2366,1.2327,0.0,1.2495,1.2767,0.0,1.3369,1.391,1.4928,1.4987,1.541,1.6271,1.6577,1.6842,1.7179,0.0,0.0,0.0,1.9108,1.9428,1.9383,1.9487,1.9783,2.0248,2.0248,2.0601,2.1224,2.1573,2.1827,2.203,2.2745,2.3147,2.3447,2.3696,2.4291,2.4883,2.4883,2.466,2.4394,2.4304,2.3989,2.3634,2.3851,2.411,2.4411,2.5031,2.52,2.5327,2.577,2.6229,2.6603,2.6603,2.7085,2.7603,2.7909,2.8002,2.7837,2.7278,2.7015,2.6682,2.6217,2.6322,0.0,0.0,0.0,0.0,0.0,2.8607,2.8634,0.0,2.8956,0.0,0.0,0.0,0.0,0.0,0.0,0.0,0.0,3.3703,0.0,3.5592,3.6167,3.6551,3.6889,3.7148,3.7457,3.7815,3.7853,3.7991,3.8202,3.8202,3.8202,3.8202,3.8202,3.8202,3.8202,3.8202,3.824,3.8315,3.8441,3.8664,3.8907,0.7273,0.7921,0.8523,0.901,0.9722,1.0536,1.1339,1.1512,1.1799,1.2316,1.2431,1.25,1.2721,1.2585,0.0,1.2401,1.2495,1.2772,1.3261,1.3532,1.4067,1.4982,1.5095,1.5523,1.6271,0.0,0.0,1.7179,1.7694,1.8055,1.8422,1.9011,1.9279,1.9279,1.9279,1.9576,2.0078,2.0078,2.055,2.1326,2.1573,2.1928,2.2333,2.2946,2.3297,2.3605,2.3845,2.4291,2.4735,2.4735,2.4573,2.4359,2.4278,2.4007,2.3727,2.4011,2.4112,2.4366,2.5252,2.5328,2.5327,2.577,2.6188,2.6479,2.6685,2.7115,2.7563,2.7708,2.7748,2.7654,2.7327,2.7037,2.6792,2.6492,2.6626,2.6945,2.7326,0.0,0.0,0.0,0.0,0.0,0.0,2.9463,0.0,0.0,0.0,0.0,0.0,0.0,0.0,3.3074,3.4125,0.0,3.5758,3.633,3.6642,3.6721,3.7046,3.7341,3.7701,3.7739,3.7891,3.8104,3.8165,3.8202,3.8202,3.8202,3.8202,3.8202,3.8202,3.8202,3.8202,3.8329,3.8575,3.8819,0.7413,0.7994,0.0,0.0,1.0222,0.0,1.1665,1.1953,1.2126,1.2121,1.2121,1.2237,1.2568,1.2625,1.264,1.2517,0.0,0.0,0.0,1.3953,1.4483,1.501,1.5344,1.5767,1.6271,1.6524,1.6895,1.7232,1.801,1.8422,1.8422,1.9011,1.9279,1.9279,1.9324,1.9628,2.0078,2.0138,2.0601,2.1369,2.1623,2.203,2.2577,2.3197,2.3555,2.3854,2.4102,2.4341,2.448,2.448,2.4414,2.425,2.4039,2.3969,2.4011,2.4401,2.4355,2.4469,2.5568,2.5562,2.5327,2.577,2.6074,2.6313,2.6768,2.7167,2.7441,2.7441,2.7441,2.7441,2.7441,2.695,2.6547,2.6695,2.6971,2.7285,2.7699,0.0,0.0,0.0,0.0,0.0,0.0,2.9561,2.9428,0.0,0.0,0.0,0.0,0.0,3.2985,3.4279,3.4621,3.5285,3.6351,3.6391,3.6524,3.6707,3.6915,3.7109,3.7303,3.7495,3.7701,3.7891,3.8104,3.8202,3.8202,3.8202,3.8202,3.8202,3.8202,3.8202,3.8202,3.8202,3.8464,3.8797,0.0,0.0,0.8928,0.9936,1.0494,1.1092,1.1928,1.2162,1.2286,1.2524,1.2583,1.2649,1.2799,1.3068,1.3192,1.3225,1.3313,1.3595,1.4153,1.4545,1.4911,1.5272,1.5606,1.5838,1.6004,1.6471,1.6948,1.7536,1.8108,1.8422,1.8422,1.9011,1.9279,1.9331,1.9524,1.9783,2.013,2.0557,2.107,2.1623,2.1928,2.2384,2.2946,2.3247,2.3555,2.3854,2.4102,2.4341,2.448,2.448,2.4414,2.425,2.3861,2.3685,2.368,2.4312,2.4478,2.4639,2.562,2.5562,2.5327,2.577,2.6074,2.6271,2.6603,2.6757,2.6798,2.6798,2.6798,2.6839,2.7003,2.6912,2.6885,2.7036,2.7452,2.7813,2.804,2.8664,0.0,0.0,2.9884,3.0024,3.0239,3.0198,3.0209,0.0,0.0,0.0,0.0,3.3242,3.4184,3.465,3.476,3.5152,3.5884,3.6232,3.6589,3.6915,3.6993,3.7109,3.7303,3.7341,3.7572,3.7891,3.7967,3.8066,3.8202,3.8202,3.8202,3.8202,3.8202,3.8202,3.8202,3.8202,3.8352,3.859,0.8191,0.8684,0.9245,1.0169,1.0728,1.1273,1.2057,1.2174,1.2298,1.2659,1.2599,1.262,1.2999,1.3341,1.3648,1.4004,1.3979,1.4143,1.4654,1.5106,1.5446,1.5812,1.6089,1.6191,1.6072,1.6611,1.719,1.7799,1.8213,1.8475,1.8646,1.9063,1.9383,1.948,1.9628,1.9939,2.03,2.0712,2.1224,2.1725,2.1971,2.2485,2.3046,2.3297,2.3555,2.3854,2.4102,2.4251,2.4341,2.4341,2.417,2.3915,2.3589,2.353,2.3669,2.4207,2.4285,2.4419,2.5588,2.5562,2.5327,2.577,2.6074,2.624,2.6396,2.652,2.6603,2.6603,2.6603,2.6644,2.6727,2.685,2.6944,2.7067,2.7423,2.7788,2.803,2.851,0.0,2.93,2.9689,3.0011,3.0113,3.0522,3.0791,3.092,0.0,0.0,3.2778,3.3781,3.4446,3.467,3.502,3.5358,3.571,3.6192,3.6615,3.6978,3.6978,3.707,3.7187,3.7264,3.7419,3.7663,3.7815,3.7967,3.8066,3.8165,3.8202,3.8202,3.8202,3.8202,3.8202,3.8202,3.8329,3.8478,0.8488,0.8973,0.9579,1.0243,1.091,1.1514,1.2057,1.2178,1.2298,1.2599,1.2419,1.2539,1.3204,1.3569,1.3992,1.465,1.4645,1.476,1.4993,1.5557,1.5994,1.6247,1.6586,1.6628,1.635,1.6904,1.7451,1.8016,1.8321,1.8636,1.8928,1.9175,1.9428,1.968,1.9732,2.0042,2.0522,2.0865,2.1275,2.1725,2.203,2.2485,2.3046,2.3297,2.3555,2.3854,2.4102,2.4202,2.4192,2.4128,2.3831,2.3464,2.3194,2.3364,2.364,2.3918,2.3879,2.4105,2.5471,2.5562,2.5369,2.5812,2.6032,2.6115,2.6115,2.6271,2.6385,2.6437,2.6437,2.6479,2.652,2.6685,2.6809,2.6891,2.7208,2.7522,2.78,0.0,2.8659,2.8846,2.9497,2.9965,3.0004,3.0721,3.1211,3.1251,3.2027,3.277,0.0,3.4018,3.438,3.458,3.5291,3.571,3.5804,3.6192,3.6615,3.6978,3.6978,3.6978,3.7017,3.7187,3.7264,3.7303,3.7663,3.7853,3.7891,3.8104,3.8165,3.8202,3.8202,3.8202,3.8202,3.8202,3.8315,3.8441,0.9095,0.9457,0.994,1.0607,1.1031,1.1458,1.1772,1.2062,1.2238,1.2298,1.2479,1.29,1.3569,1.3933,1.4351,1.4997,1.529,1.5429,1.5488,1.6071,1.6326,1.6115,1.6683,1.6905,1.664,1.7197,1.7653,1.8016,1.8536,1.8848,1.8928,1.9175,1.9428,1.9732,1.9931,2.0197,2.0573,2.1275,2.1623,2.1725,2.2291,2.2695,2.3046,2.3297,2.3555,2.3854,2.4102,2.4202,2.4146,2.3749,2.3544,2.3361,2.2657,2.274,2.3112,2.3025,2.3378,2.4061,2.5307,2.5572,2.5601,2.5853,2.5822,2.5686,2.5686,2.5549,2.5496,2.5728,2.577,2.5853,2.6199,2.6282,2.6437,2.6862,2.7074,2.7307,2.7522,0.0,2.9172,2.9212,3.0008,3.0671,3.0876,3.1032,3.1245,3.161,3.2363,3.2967,3.3234,3.4196,3.4788,3.498,3.5467,3.5884,3.6272,3.6351,3.6615,3.6978,3.6978,3.6978,3.6978,3.7017,3.7148,3.7303,3.738,3.7586,3.7891,3.7929,3.8066,3.8202,3.8202,3.8202,3.8202,3.8202,3.8202,3.824,0.9761,1.0122,1.0486,1.097,1.1333,1.1696,1.1945,1.2242,1.2539,1.2719,1.302,1.3444,1.3933,1.4406,1.4818,1.5056,1.5418,1.5661,1.5844,1.6248,1.6603,1.6838,1.7129,1.735,1.7428,1.7832,1.8282,1.8772,1.9175,1.9445,1.9577,1.9721,1.9949,2.0196,2.0274,2.0454,2.0771,2.142,2.1725,2.1725,2.2342,2.2695,2.2795,2.3097,2.3347,2.3596,2.3904,2.4102,2.4174,2.3932,2.3584,2.3114,2.2739,2.263,2.2678,2.2763,2.345,2.4356,2.5166,2.537,2.5422,2.5686,2.5559,2.538,2.538,2.5295,2.5242,2.538,2.5517,2.5644,2.5853,2.6074,2.6282,2.6479,2.6941,0.0,0.0,2.8477,2.9098,2.9463,3.0001,3.045,3.0682,3.1232,3.1601,3.1768,3.2771,3.337,3.3466,3.4609,3.5343,3.5593,3.5642,3.5994,3.6659,3.6477,3.6716,3.734,3.7108,3.6978,3.6978,3.6978,3.707,3.7148,3.7264,3.7419,3.7586,3.7701,3.7853,3.8028,3.8028,3.8104,3.8202,3.8202,3.8202,3.8202,1.0372,1.0668,1.097,1.1273,1.1635,1.1937,1.2178,1.2539,1.2904,1.3144,1.3569,1.3933,1.4232,1.4764,1.511,1.5235,1.5537,1.5839,1.62,1.6484,1.6838,1.7367,1.7543,1.7772,1.8065,1.847,1.8938,1.9408,1.9754,2.0029,2.0339,2.0305,2.0499,2.0856,2.0674,2.0786,2.1036,2.1512,2.1725,2.1725,2.2342,2.2594,2.2653,2.2896,2.3147,2.3447,2.3696,2.3954,2.4183,2.4091,2.3602,2.3032,2.2931,2.2751,2.2626,2.2799,2.3598,2.4492,2.4935,2.5073,2.52,2.5422,2.5338,2.5147,2.5253,2.5242,2.5231,2.5412,2.5583,2.5765,2.5894,2.6192,2.6414,2.653,0.0,0.0,0.0,2.8511,2.9092,2.9597,3.0022,3.0392,3.0683,3.1515,3.2047,3.209,3.3102,3.3777,3.3905,3.4953,3.5722,3.6193,3.6127,3.6429,3.7085,3.6919,3.7135,3.7781,3.7394,3.7203,3.7189,3.7049,3.6978,3.7017,3.7148,3.7264,3.7303,3.7457,3.7701,3.7891,3.7891,3.8028,3.8202,3.8202,3.8202,3.8202,1.0697,1.1031,1.1273,1.1273,1.1752,1.2178,1.2174,1.2719,1.3144,1.3204,1.3748,1.4291,1.453,1.4883,1.5235,1.5537,1.5844,1.62,1.6478,1.6785,1.6961,1.7026,1.7614,1.8062,1.8337,1.8929,1.9303,1.9408,1.9989,2.0427,2.0674,2.0644,2.0954,2.1533,2.1121,2.1131,2.1393,2.1618,2.1725,2.1725,2.2342,2.2594,2.2653,2.2896,2.3147,2.3447,2.3696,2.3954,2.4146,2.3712,2.3499,2.3389,2.3023,2.3055,2.3205,2.3032,2.3551,2.4177,2.4481,2.4743,2.4988,2.52,2.5073,2.5061,2.545,2.539,2.5384,2.6002,2.613,2.632,2.6797,2.694,2.7073,2.7502,0.0,0.0,2.7952,2.8818,2.9447,2.9523,3.0505,3.132,3.1597,3.2072,3.2457,3.2618,3.3318,3.3956,3.4507,3.5016,3.5749,3.6694,3.7151,3.749,3.7714,3.7951,3.8173,3.8421,3.8024,3.7835,3.7807,3.7245,3.6978,3.6978,3.7017,3.7148,3.7303,3.7303,3.7534,3.7891,3.7891,3.8028,3.8202,3.8202,3.8202,3.8202,1.1296,1.1526,1.1587,1.1587,1.2122,1.2539,1.2539,1.3084,1.3509,1.3509,1.4052,1.4476,1.4595,1.5061,1.5477,1.5596,1.5903,1.6194,1.6478,1.6785,1.7203,1.7614,1.8018,1.8493,1.8955,1.9581,1.9979,2.0196,2.0615,2.1026,2.1343,2.1292,2.1469,2.183,2.1703,2.1534,2.1441,2.1723,2.1786,2.1725,2.2131,2.2384,2.2594,2.2695,2.2996,2.3397,2.3497,2.3845,2.4183,2.3978,2.3749,2.3471,2.3316,2.3295,2.3299,2.3419,2.3823,2.4323,2.4426,2.4543,2.4682,2.49,2.491,2.4972,2.5148,2.5396,2.5723,2.5979,2.61,2.628,2.6481,2.676,2.7048,2.7226,0.0,2.7953,2.8221,2.8948,2.9625,2.9895,3.0619,3.1184,3.1439,3.2025,3.2579,3.2987,3.3788,3.4507,3.5084,3.6192,3.7135,3.7909,3.8364,3.8494,3.8199,3.817,3.8435,3.8879,3.8627,3.8285,3.7892,3.7653,3.7344,3.6978,3.6978,3.7017,3.7137,3.7518,3.783,3.8118,3.8235,3.8414,3.8534,3.831,3.8202,3.8202,1.1724,1.1776,1.1776,1.1776,1.2186,1.2539,1.2539,1.3084,1.3569,1.3569,1.4172,1.4595,1.4595,1.5186,1.5601,1.5601,1.5957,1.6312,1.6478,1.702,1.7556,1.8083,1.8421,1.8823,1.9468,1.9989,2.0436,2.0716,2.1024,2.1382,2.1725,2.1767,2.1933,2.2196,2.2174,2.1997,2.1759,2.1869,2.1887,2.189,2.2021,2.2283,2.2594,2.2594,2.2896,2.3247,2.3247,2.3546,2.3954,2.3954,2.3763,2.3584,2.3584,2.3561,2.3522,2.3721,2.4031,2.4396,2.4489,2.4516,2.4625,2.4836,2.494,2.5035,2.5278,2.5669,2.6053,2.6289,2.6447,2.6585,2.663,2.6925,2.7254,2.7401,2.7841,2.822,2.8483,2.909,2.9623,2.9943,3.0601,3.1062,3.1184,3.2095,3.2793,3.3174,3.4149,3.5065,3.575,3.7111,3.8073,3.8589,3.8993,3.9013,3.8708,3.8718,3.9016,3.9531,3.9285,3.8917,3.8482,3.8285,3.7864,3.7274,3.7274,3.7274,3.7302,3.7723,3.8138,3.8521,3.8734,3.8957,3.9081,3.888,3.8797,3.8797,1.1748,1.1776,1.1776,1.1776,1.2005,1.2174,1.2174,1.2779,1.3204,1.3204,1.3992,1.4595,1.4595,1.5186,1.5601,1.5601,1.6129,1.6478,1.6537,1.7432,1.8142,1.8421,1.8706,1.9171,1.9815,2.0162,2.0436,2.0716,2.1024,2.1382,2.1725,2.1945,2.2286,2.2611,2.2537,2.249,2.2497,2.207,2.2034,2.2314,2.2129,2.2283,2.2594,2.2594,2.2745,2.2996,2.2996,2.3147,2.3397,2.3397,2.3596,2.3805,2.3805,2.3828,2.3894,2.3894,2.4086,2.4383,2.4632,2.4727,2.4754,2.5049,2.5113,2.5279,2.6022,2.618,2.6396,2.7169,2.7309,2.7357,2.7547,2.7584,2.7773,2.8301,2.8395,2.8488,2.8757,2.9209,2.9485,2.9485,3.0375,3.0984,3.0996,3.2345,3.3199,3.3211,3.4392,3.5564,3.6554,3.7612,3.8304,3.8602,3.8787,3.9056,3.9305,3.9777,4.014,4.0385,4.0013,3.9788,3.976,3.9197,3.8524,3.7906,3.7906,3.7906,3.7906,3.7906,3.842,3.9201,3.9415,3.9616,3.9816,4.0025,4.0104,4.0104,1.1724,1.1776,1.1776,1.1776,1.2005,1.2174,1.2174,1.2779,1.3204,1.3204,1.3868,1.4291,1.4291,1.4883,1.5353,1.5596,1.6129,1.6773,1.7491,1.8018,1.8421,1.8765,1.8881,1.9281,2.0162,2.027,2.0565,2.1024,2.1146,2.1382,2.1725,2.1945,2.2286,2.2626,2.2798,2.272,2.2458,2.2105,2.2095,2.2262,2.1925,2.2131,2.2594,2.2594,2.2745,2.2996,2.2996,2.3147,2.3397,2.3397,2.3447,2.3497,2.3497,2.3665,2.3821,2.3821,2.4116,2.445,2.4557,2.4849,2.5141,2.5085,2.5258,2.5438,2.5671,2.6226,2.6737,2.6965,2.7177,2.7309,2.7404,2.7489,2.7726,2.8045,2.829,2.8488,2.8757,2.9209,2.9485,2.9485,3.0375,3.1113,3.1466,3.2518,3.3519,3.4281,3.5659,3.6744,3.7188,3.7848,3.8258,3.8304,3.8684,3.9056,3.9305,3.9777,4.0053,4.014,4.0348,4.0196,3.9774,3.9592,3.9211,3.8621,3.8621,3.8621,3.8649,3.9044,3.938,3.9673,3.9975,4.0179,4.0204,4.0144,4.0104,4.0104,1.1788,1.1776,1.1797,1.1866,1.1991,1.2191,1.2384,1.2825,1.3146,1.3327,1.3805,1.4232,1.4351,1.4818,1.5294,1.5779,1.6484,1.7191,1.7966,1.8363,1.8706,1.8874,1.9055,1.9468,2.027,2.027,2.0622,2.1211,2.1211,2.1325,2.1497,2.1888,2.223,2.24,2.2845,2.2895,2.2672,2.2323,2.2242,2.2318,2.2053,2.2113,2.2434,2.2544,2.2695,2.2846,2.2846,2.2946,2.3097,2.3097,2.3147,2.3247,2.3356,2.3497,2.3646,2.3755,2.3994,2.4242,2.443,2.4833,2.5168,2.515,2.538,2.5628,2.5714,2.6257,2.6747,2.69,2.7129,2.7309,2.7309,2.7404,2.7584,2.7951,2.8139,2.8384,2.8757,2.9209,2.9531,2.9646,3.0639,3.1474,3.1964,3.3114,3.4287,3.5338,3.6451,3.7168,3.7307,3.7815,3.8135,3.82,3.8472,3.8742,3.9038,3.9482,3.9878,4.0154,4.0457,4.0434,4.0154,4.0154,3.9816,3.9282,3.9282,3.9282,3.9296,3.9634,3.9929,4.0182,4.049,4.0698,4.0794,4.0761,4.0792,4.0887,1.1853,1.1825,1.187,1.2028,1.2052,1.2229,1.2704,1.2968,1.3163,1.3457,1.39,1.4256,1.4535,1.4883,1.5359,1.6022,1.7015,1.7719,1.8083,1.8596,1.8939,1.8939,1.9243,1.9649,2.0213,2.027,2.0622,2.1211,2.1211,2.1211,2.1211,2.1774,2.2059,2.2116,2.2732,2.2958,2.299,2.2633,2.2471,2.2427,2.2294,2.2183,2.2173,2.2451,2.2544,2.2544,2.2594,2.2594,2.2594,2.2594,2.2745,2.2996,2.3247,2.3347,2.3456,2.3696,2.3805,2.3954,2.439,2.4686,2.4981,2.5235,2.5489,2.5781,2.6004,2.6245,2.6544,2.6805,2.7081,2.7262,2.7309,2.7309,2.7441,2.7893,2.7998,2.8186,2.8757,2.9209,2.96,2.9942,3.1031,3.1932,3.2587,3.4037,3.5315,3.632,3.6828,3.7108,3.7108,3.7611,3.7979,3.8167,3.82,3.8304,3.8557,3.8993,3.9584,4.0312,4.0356,4.0471,4.0659,4.0659,4.0393,3.9859,3.9859,3.9859,3.9859,3.9859,4.0196,4.073,4.0916,4.1142,4.1381,4.1619,4.1841,4.2092,1.2199,1.219,1.2203,1.2239,1.2428,1.2687,1.2788,1.3264,1.3625,1.3533,1.3845,1.412,1.4251,1.453,1.5061,1.6005,1.7197,1.8135,1.8648,1.8823,1.9004,1.9301,1.9366,1.9533,1.9931,2.0155,2.0622,2.1211,2.1211,2.1211,2.1211,2.1611,2.1888,2.2116,2.2513,2.2796,2.299,2.2633,2.2607,2.2759,2.2181,2.2089,2.2233,2.2249,2.2232,2.2232,2.2493,2.2594,2.2594,2.2594,2.2644,2.2695,2.2745,2.3046,2.3397,2.3456,2.3805,2.4152,2.443,2.4686,2.4981,2.5235,2.5489,2.5742,2.5781,2.6014,2.6245,2.6544,2.6794,2.7034,2.7262,2.7309,2.7441,2.7893,2.7998,2.8233,2.8943,2.9301,2.9815,3.0674,3.1321,3.2215,3.3609,3.4961,3.5926,3.6358,3.6828,3.7108,3.7108,3.7611,3.79,3.7979,3.8135,3.8213,3.8304,3.8589,3.9007,3.9526,3.9922,4.0241,4.0471,4.0471,4.0474,4.0491,4.0491,4.0491,4.0491,4.0491,4.0575,4.073,4.0916,4.1043,4.1142,4.1563,4.1744,4.1841,1.2257,1.2308,1.2396,1.2668,1.2808,1.3152,1.3691,1.3884,1.401,1.4118,1.4189,1.429,1.4376,1.4769,1.5537,1.6649,1.7661,1.8363,1.8874,1.9062,1.9243,1.9366,1.9424,1.954,1.9815,2.0162,2.0507,2.0967,2.1146,2.1211,2.1211,2.1554,2.1839,2.2108,2.2456,2.274,2.3006,2.2815,2.2751,2.267,2.2471,2.2282,2.2114,2.2175,2.2087,2.1953,2.2494,2.2715,2.2818,2.2818,2.2748,2.2594,2.2594,2.2896,2.3247,2.3347,2.3705,2.4093,2.443,2.4686,2.4981,2.5235,2.5489,2.5693,2.5693,2.5917,2.6197,2.6448,2.6699,2.6996,2.7262,2.7581,2.7956,2.828,2.8615,2.9089,2.973,3.0061,3.0516,3.1436,3.2066,3.309,3.4665,3.5639,3.6228,3.6405,3.6828,3.7108,3.7108,3.7611,3.79,3.79,3.8011,3.8057,3.8057,3.8272,3.8589,3.8948,3.9438,3.9878,4.0198,4.0342,4.0471,4.0544,4.0659,4.0702,4.0702,4.0702,4.0702,4.0702,4.0816,4.093,4.1043,4.1296,4.1521,4.1744,1.2426,1.2461,1.257,1.3165,1.3255,1.3634,1.4712,1.453,1.4349,1.4775,1.468,1.4582,1.4735,1.5445,1.636,1.7479,1.8123,1.8648,1.8939,1.9243,1.9424,1.9424,1.9424,1.9482,1.97,2.0104,2.0436,2.0716,2.1024,2.1211,2.1211,2.1497,2.1782,2.2116,2.24,2.2683,2.3014,2.3014,2.2847,2.2624,2.2781,2.2519,2.2055,2.2253,2.2092,2.1905,2.2478,2.2899,2.3099,2.3083,2.2903,2.268,2.262,2.2795,2.3097,2.3347,2.3596,2.3954,2.444,2.4735,2.4981,2.5284,2.5538,2.5693,2.5693,2.5868,2.61,2.6448,2.6759,2.7051,2.7328,2.8028,2.8574,2.8779,2.9391,3.0041,3.0588,3.0879,3.1383,3.2227,3.3124,3.4198,3.5475,3.6086,3.6405,3.6405,3.6781,3.7062,3.7108,3.7564,3.7854,3.79,3.79,3.79,3.79,3.8057,3.8317,3.8602,3.8993,3.9438,3.9966,4.0168,4.0312,4.0399,4.0587,4.0659,4.0702,4.0702,4.0702,4.0702,4.0702,4.0802,4.0958,4.1043,4.1353,4.1744,1.3103,1.2964,1.2968,1.3639,1.3774,1.4045,1.4796,1.4847,1.4883,1.5052,1.4901,1.4876,1.5267,1.6431,1.742,1.7818,1.8467,1.8997,1.9307,1.9366,1.9424,1.9424,1.9424,1.9424,1.9424,1.9989,2.0436,2.0716,2.1024,2.1211,2.1211,2.1268,2.1546,2.2116,2.2173,2.2505,2.3014,2.3014,2.299,2.2919,2.2664,2.2489,2.2424,2.2398,2.2367,2.2327,2.2695,2.2978,2.3193,2.3125,2.3083,2.298,2.2697,2.2946,2.3347,2.3406,2.3746,2.4251,2.4735,2.4883,2.503,2.5538,2.5684,2.5693,2.5693,2.5732,2.5878,2.64,2.6857,2.7276,2.7744,2.84,2.9,2.9268,2.9791,3.0312,3.0868,3.1179,3.1771,3.3004,3.439,3.5391,3.556,3.6086,3.6405,3.6405,3.6628,3.6862,3.7108,3.74,3.7657,3.79,3.79,3.79,3.79,3.7946,3.8161,3.8602,3.8647,3.9051,3.973,3.9788,4.0007,4.0399,4.0442,4.0544,4.0702,4.0702,4.0702,4.0702,4.0702,4.0702,4.0787,4.1213,4.1507,4.1744,1.2906,1.2902,1.3034,1.3748,1.3875,1.4207,1.5066,1.5066,1.4883,1.4935,1.4997,1.5113,1.5249,1.6606,1.7772,1.8402,1.8758,1.9055,1.9366,1.9424,1.9424,1.9424,1.9424,1.9424,1.9424,1.9989,2.0385,2.0493,2.0974,2.1211,2.1211,2.1211,2.1439,2.1888,2.1888,2.2116,2.2505,2.2505,2.2505,2.2498,2.2511,2.2442,2.2245,2.2377,2.2365,2.2266,2.29,2.3299,2.3535,2.3687,2.346,2.3083,2.292,2.3277,2.3743,2.3743,2.4097,2.4651,2.5133,2.5053,2.5039,2.5586,2.5918,2.6103,2.6103,2.6378,2.6715,2.688,2.7358,2.7861,2.8208,2.9029,2.9645,2.9756,3.0611,3.1324,3.1793,3.2211,3.2831,3.381,3.4776,3.5416,3.5572,3.5955,3.6228,3.6405,3.6581,3.6769,3.6862,3.7108,3.7413,3.7657,3.7657,3.7749,3.79,3.79,3.8116,3.8602,3.8602,3.8917,3.9496,3.9642,3.9832,4.0007,4.0269,4.0428,4.0544,4.0659,4.0702,4.0702,4.0702,4.0702,4.0744,4.1071,4.1325,4.1549]},{"header":{"parameterUnit":"m.s-1","parameterCategory":1,"la1":30.6,"la2":28.766,"lo1":-90.7593,"lo2":-88.6598,"dy":0.0162,"dx":0.0183,"nx":116,"ny":114,"refTime":"2023-03-19T06:00:00:Z","depth":0,"parameterNumber":3,"parameterNumberName":"V-component_of_WINDS"},"data":[0.0,0.0,0.0,0.0,0.0,0.0,0.0,0.0,0.0,0.0,0.0,0.0,0.0,0.0,0.0,0.0,0.0,0.0,0.0,0.0,0.0,0.0,0.0,0.0,0.0,0.0,0.0,0.0,0.0,0.0,0.0,0.0,0.0,0.0,0.0,0.0,0.0,0.0,0.0,0.0,0.0,0.0,0.0,0.0,0.0,0.0,0.0,0.0,0.0,0.0,0.0,0.0,0.0,0.0,0.0,0.0,0.0,0.0,0.0,0.0,0.0,0.0,0.0,0.0,0.0,0.0,0.0,0.0,0.0,0.0,0.0,0.0,0.0,0.0,0.0,0.0,0.0,0.0,0.0,0.0,0.0,0.0,0.0,0.0,0.0,0.0,0.0,0.0,0.0,0.0,0.0,0.0,0.0,0.0,0.0,0.0,0.0,0.0,0.0,0.0,0.0,0.0,0.0,0.0,0.0,0.0,0.0,0.0,0.0,0.0,0.0,0.0,0.0,0.0,0.0,0.0,0.0,0.0,0.0,0.0,0.0,0.0,0.0,0.0,0.0,0.0,0.0,0.0,0.0,0.0,0.0,0.0,0.0,0.0,0.0,0.0,0.0,0.0,0.0,0.0,0.0,0.0,0.0,0.0,0.0,0.0,0.0,0.0,0.0,0.0,0.0,0.0,0.0,0.0,0.0,0.0,0.0,0.0,0.0,0.0,0.0,0.0,0.0,0.0,0.0,0.0,0.0,0.0,0.0,0.0,0.0,0.0,0.0,0.0,0.0,0.0,0.0,0.0,0.0,0.0,0.0,0.0,0.0,0.0,0.0,0.0,0.0,0.0,0.0,0.0,0.0,0.0,0.0,0.0,0.0,0.0,0.0,0.0,0.0,0.0,0.0,0.0,0.0,0.0,0.0,0.0,0.0,0.0,0.0,0.0,0.0,0.0,0.0,0.0,0.0,0.0,0.0,0.0,0.0,0.0,0.0,0.0,0.0,0.0,0.0,0.0,0.0,0.0,0.0,0.0,0.0,0.0,0.0,0.0,0.0,0.0,0.0,0.0,0.0,0.0,0.0,0.0,0.0,0.0,0.0,0.0,0.0,0.0,0.0,0.0,0.0,0.0,0.0,0.0,0.0,0.0,0.0,0.0,0.0,0.0,0.0,0.0,0.0,0.0,0.0,0.0,0.0,0.0,0.0,0.0,0.0,0.0,0.0,0.0,0.0,0.0,0.0,0.0,0.0,0.0,0.0,0.0,0.0,0.0,0.0,0.0,0.0,0.0,0.0,0.0,0.0,0.0,0.0,0.0,0.0,0.0,0.0,0.0,0.0,0.0,0.0,0.0,0.0,0.0,0.0,0.0,0.0,0.0,0.0,0.0,0.0,0.0,0.0,0.0,0.0,0.0,0.0,0.0,0.0,0.0,0.0,0.0,0.0,0.0,0.0,0.0,0.0,0.0,0.0,0.0,0.0,0.0,0.0,0.0,0.0,0.0,0.0,0.0,0.0,0.0,0.0,0.0,0.0,0.0,0.0,0.0,0.0,0.0,0.0,0.0,0.0,0.0,0.0,0.0,0.0,0.0,0.0,0.0,0.0,0.0,0.0,0.0,0.0,0.0,0.0,0.0,0.0,0.0,0.0,0.0,0.0,0.0,0.0,0.0,0.0,0.0,0.0,0.0,0.0,0.0,0.0,0.0,0.0,0.0,0.0,0.0,0.0,0.0,0.0,0.0,0.0,0.0,0.0,0.0,0.0,0.0,0.0,0.0,0.0,0.0,0.0,0.0,0.0,0.0,0.0,0.0,0.0,0.0,0.0,0.0,0.0,0.0,0.0,0.0,0.0,0.0,0.0,0.0,0.0,0.0,0.0,0.0,0.0,0.0,0.0,0.0,0.0,0.0,0.0,0.0,0.0,0.0,0.0,0.0,0.0,0.0,0.0,0.0,0.0,0.0,0.0,0.0,0.0,0.0,0.0,0.0,0.0,0.0,0.0,0.0,0.0,0.0,0.0,0.0,0.0,0.0,0.0,0.0,0.0,0.0,0.0,0.0,0.0,0.0,0.0,0.0,0.0,0.0,0.0,0.0,0.0,0.0,0.0,0.0,0.0,0.0,0.0,0.0,0.0,0.0,0.0,0.0,0.0,0.0,0.0,0.0,0.0,0.0,0.0,0.0,0.0,0.0,0.0,0.0,0.0,0.0,0.0,0.0,0.0,0.0,0.0,0.0,0.0,0.0,0.0,0.0,0.0,0.0,0.0,0.0,0.0,0.0,0.0,0.0,0.0,0.0,0.0,0.0,0.0,0.0,0.0,0.0,0.0,0.0,0.0,0.0,0.0,0.0,0.0,0.0,0.0,0.0,0.0,0.0,0.0,0.0,0.0,0.0,0.0,0.0,0.0,0.0,0.0,0.0,0.0,0.0,0.0,0.0,0.0,0.0,0.0,0.0,0.0,0.0,0.0,0.0,0.0,0.0,0.0,0.0,0.0,0.0,0.0,0.0,0.0,0.0,0.0,0.0,0.0,0.0,0.0,0.0,0.0,0.0,0.0,0.0,0.0,0.0,0.0,0.0,0.0,0.0,0.0,0.0,0.0,0.0,0.0,0.0,0.0,0.0,0.0,0.0,0.0,0.0,0.0,0.0,0.0,0.0,0.0,0.0,0.0,0.0,0.0,0.0,0.0,0.0,0.0,0.0,0.0,0.0,0.0,0.0,0.0,0.0,0.0,0.0,0.0,0.0,0.0,0.0,0.0,0.0,0.0,0.0,0.0,0.0,0.0,0.0,0.0,0.0,0.0,0.0,0.0,0.0,0.0,0.0,0.0,0.0,0.0,0.0,0.0,0.0,0.0,0.0,0.0,0.0,0.0,0.0,0.0,0.0,0.0,0.0,0.0,0.0,0.0,0.0,0.0,0.0,0.0,0.0,0.0,0.0,0.0,0.0,0.0,0.0,0.0,0.0,0.0,0.0,0.0,0.0,0.0,0.0,0.0,0.0,0.0,0.0,0.0,0.0,0.0,0.0,0.0,0.0,0.0,0.0,0.0,0.0,0.0,0.0,0.0,0.0,0.0,0.0,0.0,0.0,0.0,0.0,0.0,0.0,0.0,0.0,0.0,0.0,0.0,0.0,0.0,0.0,0.0,0.0,0.0,0.0,0.0,0.0,0.0,0.0,0.0,0.0,0.0,0.0,0.0,0.0,0.0,0.0,0.0,0.0,0.0,0.0,0.0,0.0,0.0,0.0,0.0,0.0,0.0,0.0,0.0,0.0,0.0,0.0,0.0,0.0,0.0,0.0,0.0,0.0,0.0,0.0,0.0,0.0,0.0,0.0,0.0,0.0,0.0,0.0,0.0,0.0,0.0,0.0,0.0,0.0,0.0,0.0,0.0,0.0,0.0,0.0,0.0,0.0,0.0,0.0,0.0,0.0,0.0,0.0,0.0,0.0,0.0,0.0,0.0,0.0,0.0,0.0,0.0,0.0,0.0,0.0,0.0,0.0,0.0,0.0,0.0,0.0,0.0,0.0,0.0,0.0,0.0,0.0,0.0,0.0,0.0,0.0,0.0,0.0,0.0,0.0,0.0,0.0,0.0,0.0,0.0,0.0,0.0,0.0,0.0,0.0,0.0,0.0,0.0,0.0,0.0,0.0,0.0,0.0,0.0,0.0,0.0,0.0,0.0,0.0,0.0,0.0,0.0,0.0,0.0,0.0,0.0,0.0,0.0,0.0,0.0,0.0,0.0,0.0,0.0,0.0,0.0,0.0,0.0,0.0,0.0,0.0,0.0,0.0,0.0,0.0,0.0,0.0,0.0,0.0,0.0,0.0,0.0,0.0,0.0,0.0,0.0,0.0,0.0,0.0,0.0,0.0,0.0,0.0,0.0,0.0,0.0,0.0,0.0,0.0,0.0,0.0,0.0,0.0,0.0,0.0,0.0,0.0,0.0,0.0,0.0,0.0,0.0,0.0,0.0,0.0,0.0,0.0,0.0,0.0,0.0,0.0,0.0,0.0,0.0,0.0,0.0,0.0,0.0,0.0,0.0,0.0,0.0,0.0,0.0,0.0,0.0,0.0,0.0,0.0,0.0,0.0,0.0,0.0,0.0,0.0,0.0,0.0,0.0,0.0,0.0,0.0,0.0,0.0,0.0,0.0,0.0,0.0,0.0,0.0,0.0,0.0,0.0,0.0,0.0,0.0,0.0,0.0,0.0,0.0,0.0,0.0,0.0,0.0,0.0,0.0,0.0,0.0,0.0,0.0,0.0,0.0,0.0,0.0,0.0,0.0,0.0,0.0,0.0,0.0,0.0,0.0,0.0,0.0,0.0,0.0,0.0,0.0,0.0,0.0,0.0,0.0,0.0,0.0,0.0,0.0,0.0,0.0,0.0,0.0,0.0,0.0,0.0,0.0,0.0,0.0,0.0,0.0,0.0,0.0,0.0,0.0,0.0,0.0,0.0,0.0,0.0,0.0,0.0,0.0,0.0,0.0,0.0,0.0,0.0,0.0,0.0,0.0,0.0,0.0,0.0,0.0,0.0,0.0,0.0,0.0,0.0,0.0,0.0,0.0,0.0,0.0,0.0,0.0,0.0,0.0,0.0,0.0,0.0,0.0,0.0,0.0,0.0,0.0,0.0,0.0,0.0,0.0,0.0,0.0,0.0,0.0,0.0,0.0,0.0,0.0,0.0,0.0,0.0,0.0,0.0,0.0,0.0,0.0,0.0,0.0,0.0,0.0,0.0,0.0,0.0,0.0,0.0,0.0,0.0,0.0,0.0,0.0,0.0,0.0,0.0,0.0,0.0,0.0,0.0,0.0,0.0,0.0,0.0,0.0,0.0,0.0,0.0,0.0,0.0,0.0,0.0,0.0,0.0,0.0,0.0,0.0,0.0,0.0,0.0,0.0,0.0,0.0,0.0,0.0,0.0,0.0,0.0,0.0,0.0,0.0,0.0,0.0,0.0,0.0,0.0,0.0,0.0,0.0,0.0,0.0,0.0,0.0,0.0,0.0,0.0,0.0,0.0,0.0,0.0,0.0,0.0,0.0,0.0,0.0,0.0,0.0,0.0,0.0,0.0,0.0,0.0,0.0,0.0,0.0,0.0,0.0,0.0,0.0,0.0,0.0,0.0,0.0,0.0,0.0,0.0,0.0,0.0,0.0,0.0,0.0,0.0,0.0,0.0,0.0,0.0,0.0,0.0,0.0,0.0,0.0,0.0,0.0,0.0,0.0,0.0,0.0,0.0,0.0,0.0,0.0,0.0,0.0,0.0,0.0,0.0,0.0,0.0,0.0,0.0,0.0,0.0,0.0,0.0,0.0,0.0,0.0,0.0,0.0,0.0,0.0,0.0,0.0,0.0,0.0,0.0,0.0,0.0,0.0,0.0,0.0,0.0,0.0,0.0,0.0,0.0,0.0,0.0,0.0,0.0,0.0,0.0,0.0,0.0,0.0,0.0,0.0,0.0,0.0,0.0,0.0,0.0,0.0,0.0,0.0,0.0,0.0,0.0,0.0,0.0,0.0,0.0,0.0,0.0,0.0,0.0,0.0,0.0,0.0,0.0,0.0,0.0,0.0,0.0,0.0,0.0,0.0,0.0,0.0,0.0,0.0,0.0,0.0,0.0,0.0,0.0,0.0,0.0,0.0,0.0,0.0,0.0,0.0,0.0,0.0,0.0,0.0,0.0,0.0,0.0,0.0,0.0,0.0,0.0,0.0,0.0,0.0,0.0,0.0,0.0,0.0,0.0,0.0,0.0,0.0,0.0,0.0,0.0,0.0,0.0,0.0,0.0,0.0,0.0,0.0,0.0,0.0,0.0,0.0,0.0,0.0,0.0,0.0,0.0,0.0,0.0,0.0,0.0,0.0,0.0,0.0,0.0,0.0,0.0,0.0,0.0,0.0,0.0,0.0,0.0,0.0,0.0,0.0,0.0,0.0,0.0,0.0,0.0,0.0,0.0,0.0,0.0,0.0,0.0,0.0,0.0,0.0,0.0,0.0,0.0,0.0,0.0,0.0,0.0,0.0,0.0,0.0,0.0,0.0,0.0,0.0,0.0,0.0,0.0,0.0,0.0,0.0,0.0,0.0,0.0,0.0,0.0,0.0,1.816,0.0,0.0,0.0,0.0,0.0,0.0,0.0,0.0,0.0,0.0,0.0,0.0,0.0,0.0,0.0,0.0,0.0,0.0,0.0,0.0,0.0,0.0,0.0,0.0,0.0,0.0,0.0,0.0,0.0,0.0,0.0,0.0,0.0,0.0,0.0,0.0,0.0,0.0,0.0,0.0,0.0,0.0,0.0,0.0,0.0,0.0,0.0,0.0,0.0,0.0,0.0,0.0,0.0,0.0,0.0,0.0,0.0,0.0,0.0,0.0,0.0,0.0,0.0,0.0,0.0,0.0,0.0,0.0,0.0,0.0,0.0,0.0,0.0,0.0,0.0,0.0,0.0,0.0,0.0,0.0,0.0,0.0,0.0,0.0,0.0,0.0,0.0,0.0,0.0,0.0,0.0,0.0,0.0,0.0,0.0,0.0,0.0,0.0,0.0,0.0,0.0,0.0,0.0,0.0,0.0,0.0,0.0,0.0,0.0,0.0,0.0,0.0,0.0,0.0,0.0,0.0,1.9381,0.0,0.0,0.0,0.0,0.0,0.0,0.0,0.0,0.0,0.0,0.0,0.0,0.0,0.0,0.0,0.0,0.0,0.0,0.0,0.0,0.0,0.0,0.0,0.0,0.0,0.0,0.0,0.0,0.0,0.0,0.0,0.0,0.0,0.0,0.0,0.0,0.0,0.0,0.0,0.0,0.0,0.0,0.0,0.0,0.0,0.0,0.0,0.0,0.0,0.0,0.0,0.0,0.0,0.0,0.0,0.0,0.0,0.0,0.0,0.0,0.0,0.0,0.0,0.0,0.0,0.0,0.0,0.0,0.0,0.0,0.0,0.0,0.0,0.0,0.0,0.0,0.0,0.0,0.0,0.0,0.0,0.0,0.0,0.0,0.0,0.0,0.0,0.0,0.0,0.0,0.0,0.0,0.0,0.0,0.0,0.0,0.0,0.0,0.0,0.0,0.0,0.0,0.0,0.0,0.0,0.0,0.0,0.0,0.0,2.2484,2.2432,2.2561,2.3279,2.4321,2.2568,2.1654,2.1381,0.0,0.0,0.0,0.0,0.0,0.0,0.0,0.0,0.0,0.0,0.0,0.0,0.0,0.0,0.0,0.0,0.0,0.0,0.0,0.0,0.0,0.0,0.0,0.0,0.0,0.0,0.0,0.0,0.0,0.0,0.0,0.0,0.0,0.0,0.0,0.0,0.0,0.0,0.0,0.0,0.0,0.0,0.0,0.0,0.0,0.0,0.0,0.0,0.0,0.0,0.0,0.0,0.0,0.0,0.0,0.0,0.0,0.0,0.0,0.0,0.0,0.0,0.0,0.0,0.0,0.0,0.0,0.0,0.0,0.0,0.0,0.0,0.0,0.0,0.0,0.0,0.0,0.0,0.0,0.0,0.0,0.0,0.0,0.0,0.0,0.0,0.0,2.0467,2.0387,0.0,0.0,0.0,0.0,0.0,0.0,0.0,0.0,0.0,0.0,0.0,0.0,0.0,0.0,2.3775,2.4405,2.4674,2.4619,2.4562,2.4508,2.4521,2.5231,2.5584,2.5683,2.6077,0.0,2.5421,2.5183,0.0,0.0,0.0,0.0,0.0,0.0,0.0,0.0,0.0,0.0,0.0,0.0,0.0,0.0,0.0,0.0,0.0,0.0,0.0,0.0,0.0,0.0,0.0,0.0,0.0,0.0,0.0,0.0,0.0,0.0,0.0,0.0,0.0,0.0,0.0,0.0,0.0,0.0,0.0,0.0,0.0,0.0,0.0,0.0,0.0,0.0,0.0,0.0,0.0,0.0,0.0,0.0,0.0,0.0,0.0,0.0,0.0,0.0,0.0,0.0,0.0,0.0,0.0,0.0,0.0,0.0,0.0,0.0,0.0,0.0,0.0,0.0,0.0,0.0,0.0,0.0,0.0,0.0,0.0,0.0,0.0,0.0,0.0,0.0,0.0,2.0475,2.061,2.1085,2.0705,2.0589,0.0,0.0,0.0,0.0,0.0,0.0,0.0,0.0,0.0,2.3689,2.4771,2.5201,2.4846,2.5134,2.5249,2.5215,2.5124,2.5074,2.5088,2.5385,2.5977,2.6766,2.7077,2.7522,2.797,2.6772,2.5646,2.458,0.0,0.0,0.0,0.0,0.0,1.9664,0.0,0.0,0.0,0.0,0.0,0.0,0.0,0.0,0.0,0.0,0.0,0.0,0.0,0.0,0.0,1.7226,0.0,0.0,0.0,0.0,0.0,0.0,0.0,0.0,0.0,0.0,0.0,0.0,0.0,0.0,0.0,0.0,0.0,0.0,0.0,0.0,0.0,0.0,0.0,0.0,0.0,0.0,0.0,0.0,0.0,0.0,0.0,0.0,0.0,0.0,0.0,0.0,0.0,0.0,0.0,0.0,0.0,0.0,0.0,0.0,0.0,0.0,0.0,0.0,0.0,0.0,0.0,0.0,0.0,0.0,0.0,0.0,0.0,0.0,0.0,0.0,0.0,2.0616,2.0939,2.1603,2.1307,2.1305,0.0,0.0,0.0,0.0,0.0,0.0,2.3415,2.4009,2.4424,2.4646,2.5216,2.554,2.5535,2.5457,2.5427,2.5395,2.5293,2.5222,2.5198,2.5348,2.6018,2.7116,2.7433,2.8191,2.9081,2.7808,2.6948,2.6381,2.5839,2.5014,2.4073,2.3336,2.2656,2.2015,0.0,0.0,0.0,0.0,0.0,0.0,0.0,0.0,0.0,0.0,0.0,0.0,0.0,0.0,1.8183,1.8051,1.8038,1.7799,0.0,0.0,0.0,0.0,0.0,0.0,0.0,0.0,0.0,0.0,0.0,0.0,0.0,0.0,0.0,0.0,0.0,0.0,0.0,0.0,0.0,0.0,0.0,0.0,0.0,0.0,0.0,0.0,0.0,0.0,0.0,0.0,0.0,0.0,0.0,0.0,0.0,0.0,0.0,0.0,0.0,0.0,0.0,0.0,0.0,0.0,0.0,0.0,0.0,0.0,0.0,0.0,0.0,0.0,0.0,0.0,0.0,0.0,0.0,0.0,0.0,2.1606,2.2307,0.0,0.0,0.0,0.0,2.303,2.3074,2.3451,2.4295,2.4375,2.4762,2.5595,2.5602,2.56,2.5599,2.5531,2.5457,2.5397,2.5393,2.5313,2.5225,2.5926,2.6261,2.6332,2.7734,2.8343,2.8409,2.8934,2.855,2.7561,2.7162,2.6113,2.4775,2.4234,2.3961,2.3781,0.0,0.0,0.0,0.0,0.0,0.0,0.0,0.0,0.0,0.0,0.0,0.0,0.0,1.9098,1.9204,1.9085,1.8618,1.8279,1.8108,0.0,0.0,0.0,0.0,0.0,0.0,0.0,0.0,0.0,0.0,0.0,0.0,0.0,0.0,0.0,0.0,0.0,0.0,0.0,0.0,0.0,0.0,0.0,0.0,0.0,0.0,0.0,0.0,0.0,0.0,0.0,0.0,0.0,0.0,0.0,0.0,0.0,0.0,0.0,0.0,0.0,0.0,0.0,0.0,0.0,0.0,0.0,0.0,0.0,0.0,0.0,0.0,0.0,0.0,0.0,0.0,0.0,0.0,0.0,0.0,2.308,2.3025,0.0,0.0,2.3839,2.3893,2.3932,2.4465,2.4905,2.5228,2.5234,2.5389,2.5694,2.5624,2.5604,2.5601,2.5534,2.5484,2.546,2.5384,2.5293,2.5206,2.5379,2.5708,2.6159,2.6653,2.7361,2.8172,2.8341,2.843,2.8413,2.7929,2.7236,2.6439,2.5911,2.5508,2.5125,0.0,0.0,0.0,0.0,0.0,0.0,0.0,0.0,0.0,0.0,0.0,1.9462,1.9434,1.998,2.0295,2.0177,1.9733,1.9257,1.8807,0.0,0.0,0.0,0.0,0.0,0.0,0.0,0.0,0.0,0.0,0.0,0.0,0.0,0.0,0.0,0.0,0.0,0.0,0.0,0.0,0.0,0.0,0.0,1.6136,0.0,0.0,0.0,0.0,0.0,0.0,0.0,0.0,0.0,0.0,0.0,0.0,0.0,0.0,0.0,0.0,0.0,0.0,0.0,0.0,0.0,0.0,0.0,0.0,0.0,0.0,0.0,0.0,0.0,0.0,0.0,0.0,0.0,0.0,0.0,2.2521,2.3937,2.39,2.3972,2.4577,2.4705,2.4763,2.4823,2.536,2.5704,2.5697,2.5703,2.5702,2.5692,2.5624,2.5602,2.5596,2.5527,2.5492,2.5459,2.5356,2.5257,2.5162,2.5025,2.521,2.5649,2.5804,2.6376,2.7228,2.7356,2.779,2.8337,2.8147,2.7779,2.7267,2.6519,2.6096,2.5844,0.0,0.0,0.0,0.0,0.0,0.0,0.0,0.0,0.0,0.0,0.0,2.0019,2.0471,2.1081,2.1438,2.137,2.1331,2.0713,1.9293,1.9354,0.0,0.0,0.0,0.0,0.0,0.0,0.0,0.0,0.0,0.0,0.0,0.0,0.0,0.0,0.0,0.0,0.0,0.0,0.0,0.0,0.0,0.0,1.6151,0.0,0.0,0.0,0.0,0.0,0.0,0.0,0.0,0.0,0.0,0.0,0.0,0.0,0.0,0.0,0.0,0.0,0.0,0.0,0.0,0.0,0.0,0.0,0.0,0.0,0.0,0.0,0.0,0.0,0.0,0.0,0.0,0.0,2.1524,2.2318,2.3135,2.4033,2.4887,2.5429,2.5492,2.5557,2.563,2.5707,2.5702,2.5694,2.5702,2.5703,2.5699,2.5706,2.5639,2.5598,2.5598,2.5529,2.5459,2.5394,2.5336,2.5223,2.5101,2.4961,2.4811,2.4722,2.5317,2.5532,2.553,2.6109,2.6713,2.7288,2.7772,2.7675,2.7103,2.5926,2.568,2.5746,0.0,0.0,0.0,0.0,0.0,0.0,0.0,0.0,0.0,0.0,2.0218,2.0944,2.0933,2.2046,2.2717,2.2625,2.2075,2.1581,2.1242,0.0,0.0,0.0,0.0,0.0,0.0,0.0,0.0,0.0,0.0,0.0,0.0,0.0,0.0,0.0,0.0,0.0,0.0,0.0,0.0,0.0,0.0,0.0,1.6287,0.0,0.0,0.0,0.0,0.0,0.0,0.0,0.0,0.0,0.0,0.0,0.0,0.0,0.0,0.0,0.0,0.0,0.0,0.0,0.0,0.0,0.0,0.0,0.0,0.0,0.0,0.0,0.0,0.0,0.0,0.0,0.0,2.0895,2.2344,2.2724,2.3404,2.4874,2.5294,2.5508,2.5579,2.5634,2.5676,2.5702,2.5693,2.57,2.5703,2.5699,2.5684,2.5637,2.5602,2.5571,2.5524,2.546,2.5393,2.5331,2.5264,2.5168,2.5012,2.4896,2.473,2.4564,2.4579,2.4815,2.521,2.5219,2.5506,2.599,2.6651,2.6653,2.6196,2.548,2.464,2.3795,0.0,0.0,0.0,0.0,0.0,0.0,0.0,0.0,0.0,0.0,2.0749,2.1586,2.1416,2.2725,2.3599,2.3486,2.3052,2.2658,2.2357,0.0,0.0,0.0,0.0,0.0,0.0,0.0,0.0,0.0,0.0,0.0,0.0,0.0,0.0,0.0,0.0,0.0,0.0,0.0,0.0,0.0,0.0,0.0,1.662,1.6879,1.7263,1.7765,1.8435,1.8959,1.9439,2.0077,0.0,0.0,0.0,0.0,0.0,0.0,0.0,0.0,0.0,0.0,0.0,0.0,0.0,0.0,0.0,0.0,0.0,0.0,0.0,0.0,0.0,0.0,0.0,0.0,2.0946,2.1546,2.3246,2.3156,2.3538,2.5248,2.5508,2.5556,2.5603,2.5666,2.5696,2.5695,2.5701,2.5703,2.5697,2.5664,2.5637,2.56,2.5571,2.5534,2.5457,2.5382,2.5303,2.522,2.5155,2.5044,2.4917,2.4757,2.4553,0.0,2.4126,2.4192,2.4454,2.4222,2.4362,0.0,0.0,0.0,0.0,0.0,2.338,2.2321,0.0,0.0,0.0,0.0,0.0,0.0,0.0,0.0,0.0,0.0,0.0,2.2017,2.1882,2.3245,2.4146,2.408,2.4071,2.3768,0.0,0.0,0.0,0.0,0.0,0.0,0.0,0.0,0.0,0.0,0.0,0.0,0.0,0.0,0.0,0.0,0.0,0.0,0.0,0.0,0.0,0.0,0.0,0.0,1.7126,1.726,1.7884,1.8726,1.8932,1.9561,2.0317,2.0604,0.0,0.0,0.0,0.0,0.0,0.0,0.0,0.0,0.0,0.0,0.0,0.0,0.0,0.0,0.0,0.0,0.0,0.0,0.0,0.0,0.0,0.0,0.0,0.0,2.1845,2.2435,2.4081,2.3592,2.3676,2.5312,2.5556,2.5595,2.5603,2.5672,2.5692,2.5703,2.5703,2.5696,2.5696,0.0,0.0,0.0,0.0,2.5445,2.538,2.5303,2.5209,2.5086,2.5,2.491,2.4776,2.4572,2.4365,2.4163,2.3878,2.3675,2.3515,2.3247,2.3297,2.3587,2.4191,2.4148,2.3638,2.2787,2.1874,0.0,0.0,0.0,0.0,0.0,0.0,0.0,0.0,0.0,0.0,2.1214,2.19,2.2427,2.2305,2.3712,2.465,2.4565,2.4518,0.0,0.0,0.0,0.0,0.0,0.0,0.0,0.0,0.0,0.0,0.0,0.0,0.0,0.0,0.0,0.0,0.0,0.0,0.0,0.0,0.0,0.0,0.0,0.0,0.0,1.7821,1.7958,1.8519,1.9337,2.0073,2.0807,2.1583,2.2319,2.22,2.1789,2.2013,0.0,0.0,0.0,0.0,0.0,0.0,0.0,0.0,0.0,0.0,0.0,0.0,0.0,0.0,0.0,0.0,0.0,0.0,0.0,0.0,2.2724,2.2786,2.3196,2.4225,2.4222,2.4479,2.5462,2.5583,2.5613,2.5679,2.5695,2.5702,2.5702,2.5691,2.569,2.5621,2.5554,0.0,2.5441,2.537,2.5303,2.5241,2.5122,2.5025,2.4946,0.0,0.0,2.4631,2.4374,2.4173,2.4026,2.3642,2.3359,2.3163,2.2855,2.2383,2.1908,2.2522,2.2474,2.1933,2.0793,2.0159,1.9829,0.0,0.0,0.0,0.0,0.0,0.0,0.0,0.0,0.0,0.0,2.2894,2.3365,2.3262,2.4332,2.505,2.5,0.0,0.0,0.0,0.0,0.0,0.0,0.0,0.0,0.0,0.0,0.0,0.0,0.0,0.0,0.0,0.0,0.0,0.0,0.0,0.0,0.0,0.0,0.0,0.0,0.0,0.0,1.8875,1.8646,1.9051,1.9852,2.07,2.1508,2.2276,2.3121,2.3155,2.2861,2.3006,2.2922,2.2782,0.0,0.0,0.0,0.0,0.0,0.0,0.0,0.0,0.0,0.0,0.0,0.0,0.0,0.0,2.2963,0.0,0.0,2.3188,2.364,2.3735,2.4043,2.4937,2.506,2.5192,2.5595,2.5648,2.5666,2.5698,2.5703,2.57,2.571,2.5665,2.5628,2.5549,2.5499,2.5418,2.5351,2.5253,2.5168,2.51,2.4973,2.483,2.47,2.4604,2.4479,2.4347,2.4107,2.3899,2.3682,2.3348,2.3065,2.2816,2.2271,2.1675,2.1103,2.1141,2.0961,2.0599,1.9761,1.9314,1.9124,0.0,0.0,0.0,0.0,0.0,0.0,0.0,0.0,0.0,0.0,0.0,2.4209,2.4146,2.488,2.5366,0.0,0.0,0.0,0.0,0.0,0.0,0.0,0.0,0.0,0.0,0.0,0.0,0.0,0.0,0.0,0.0,0.0,0.0,0.0,0.0,0.0,0.0,0.0,0.0,0.0,0.0,0.0,2.0079,1.9418,1.9622,2.0345,2.0986,2.1826,2.2733,2.3357,2.3692,2.3819,2.3868,2.3968,2.4095,2.4209,2.3842,0.0,0.0,0.0,0.0,0.0,0.0,0.0,0.0,0.0,2.3318,2.3396,2.3453,2.3515,2.3514,2.3565,2.3848,2.4532,2.4641,2.4905,2.56,2.5701,2.5701,2.5695,2.5698,2.5702,2.5703,2.5695,2.568,2.5678,2.5617,2.5546,2.5473,2.5397,2.5317,2.5231,2.5118,2.5019,2.494,2.4817,2.4634,2.4439,2.4366,2.4219,2.4029,2.3806,2.3562,2.3288,2.2955,2.2642,2.2315,2.166,2.1119,2.0678,2.0098,1.978,1.9573,1.9143,1.8841,1.8611,0.0,0.0,0.0,0.0,0.0,0.0,0.0,0.0,0.0,0.0,0.0,0.0,0.0,0.0,0.0,0.0,0.0,0.0,0.0,0.0,0.0,0.0,0.0,0.0,0.0,0.0,0.0,0.0,0.0,0.0,0.0,0.0,0.0,0.0,0.0,0.0,0.0,0.0,0.0,0.0,0.0,0.0,2.1306,2.0466,2.0422,2.0822,2.0921,2.1883,2.3128,2.3164,2.3639,2.421,2.4173,2.4247,2.4367,2.4376,0.0,2.4356,2.4433,2.4478,2.4525,2.4664,2.4758,2.4837,0.0,0.0,2.5132,2.5205,2.5268,2.5313,2.5306,2.5356,2.5437,2.5547,2.5557,2.5584,2.5683,2.5699,2.5695,2.5709,2.5694,2.5695,2.5705,2.5645,2.5615,2.5617,2.5557,2.5464,2.5329,2.5259,2.5151,2.5031,2.4954,2.4863,2.4738,2.4594,2.4435,2.422,2.4114,2.3937,2.3735,2.3479,2.3236,2.3017,2.2388,2.1897,2.1493,2.1119,2.0763,2.0393,1.9714,1.9291,1.8974,1.8674,1.8364,1.8028,0.0,0.0,0.0,0.0,0.0,0.0,0.0,0.0,0.0,0.0,0.0,0.0,0.0,0.0,0.0,0.0,0.0,0.0,0.0,0.0,0.0,0.0,0.0,0.0,0.0,0.0,0.0,0.0,0.0,0.0,0.0,0.0,0.0,0.0,0.0,0.0,0.0,0.0,0.0,0.0,0.0,0.0,2.2377,2.2048,2.2001,2.2047,2.1426,2.189,0.0,0.0,2.3902,2.453,2.4444,2.4461,2.453,2.453,2.4561,0.0,2.4707,2.4801,0.0,0.0,2.5176,2.5255,2.5399,2.5476,2.5529,2.5548,2.5614,2.5807,2.6261,2.6411,2.6459,0.0,2.6465,2.6287,2.5767,2.568,2.5645,2.5636,2.5604,2.5604,2.5642,2.5586,2.5537,2.5482,2.5389,2.5269,2.5133,2.5056,2.4954,2.4837,2.4768,2.4653,2.4532,2.4356,2.4173,2.3959,2.3824,2.362,2.333,2.3145,2.2803,2.2334,2.1868,2.1416,2.1023,2.0729,2.0376,1.9942,1.9332,1.8879,1.8519,1.8285,1.8048,1.7767,0.0,0.0,0.0,0.0,0.0,0.0,0.0,0.0,0.0,0.0,0.0,0.0,0.0,0.0,0.0,0.0,0.0,0.0,0.0,0.0,0.0,0.0,0.0,0.0,0.0,0.0,0.0,0.0,0.0,0.0,0.0,0.0,0.0,0.0,0.0,0.0,0.0,0.0,0.0,0.0,0.0,0.0,2.3339,2.3161,2.3065,2.2922,2.2123,2.2327,0.0,0.0,2.4166,2.4772,2.4696,2.4689,2.4674,2.4674,2.4734,2.4805,2.4854,0.0,0.0,2.5212,2.5499,2.5747,2.5862,2.6102,2.6257,2.604,2.6206,2.6483,2.6835,2.7148,0.0,2.7338,2.714,2.6761,2.6112,2.5781,2.5595,2.5562,2.5492,2.5452,2.5489,2.5455,2.5422,2.5359,2.5219,2.5097,2.4949,2.4861,2.4749,2.4626,2.452,2.4419,2.4284,2.4078,2.387,2.3667,2.3508,2.3253,2.2927,2.2677,2.2254,2.1721,2.1386,2.1007,2.0613,2.0325,1.9942,1.9475,1.8988,1.8553,1.8201,1.7922,1.772,1.7516,0.0,0.0,0.0,0.0,0.0,0.0,0.0,0.0,0.0,0.0,0.0,0.0,0.0,0.0,0.0,0.0,0.0,0.0,0.0,0.0,0.0,0.0,0.0,0.0,0.0,0.0,0.0,0.0,0.0,0.0,0.0,0.0,0.0,0.0,0.0,0.0,0.0,0.0,0.0,0.0,0.0,0.0,2.4189,2.34,2.3096,2.3085,2.2999,0.0,0.0,0.0,2.4381,2.4981,2.4915,2.4895,0.0,2.4895,2.4941,0.0,0.0,0.0,2.5238,2.5367,2.6082,2.6779,2.685,2.7506,2.7909,2.7127,2.759,2.7877,2.7054,2.7598,2.8162,2.8155,2.7507,2.6968,2.6879,2.6137,2.5586,2.551,2.5393,2.5274,0.0,2.5269,2.5274,2.5203,2.5086,2.4948,2.4818,2.4685,2.4559,2.4407,2.4275,2.4144,2.4016,2.3816,2.3573,2.3313,2.3103,2.2829,2.249,2.1988,2.1572,2.1293,2.0958,2.0596,2.0191,1.9871,1.9475,1.9082,1.8659,1.8313,1.7962,1.7577,1.7316,1.7178,0.0,0.0,0.0,0.0,0.0,0.0,0.0,0.0,0.0,0.0,0.0,0.0,0.0,0.0,0.0,0.0,0.0,0.0,0.0,0.0,0.0,0.0,0.0,0.0,0.0,0.0,0.0,0.0,0.0,0.0,0.0,0.0,0.0,0.0,0.0,0.0,0.0,0.0,0.0,0.0,0.0,0.0,2.5014,2.4836,2.4799,2.4824,0.0,0.0,0.0,0.0,0.0,0.0,2.5105,0.0,0.0,2.5087,0.0,0.0,0.0,0.0,2.6221,2.632,2.7026,2.773,2.7765,2.8027,2.8178,2.7868,2.7542,2.7413,2.7718,2.7961,2.8128,2.8136,2.8396,2.8374,2.779,2.6904,2.63,2.6246,2.5595,0.0,0.0,0.0,0.0,2.5006,2.4879,2.4731,2.4599,2.4478,2.4338,2.4219,2.4067,2.3917,2.3736,2.3542,2.3295,2.3028,2.2527,2.2155,2.1943,2.151,2.1183,2.0958,2.0563,2.0206,1.9854,1.9548,1.9176,1.8745,1.8425,1.8036,1.7679,1.7758,1.7579,1.7209,0.0,0.0,0.0,0.0,0.0,0.0,0.0,0.0,0.0,0.0,0.0,0.0,0.0,0.0,0.0,0.0,0.0,0.0,0.0,0.0,0.0,0.0,0.0,0.0,0.0,0.0,0.0,0.0,0.0,0.0,0.0,0.0,0.0,0.0,0.0,0.0,0.0,0.0,0.0,0.0,0.0,0.0,2.5414,2.5554,2.5637,0.0,0.0,0.0,0.0,0.0,0.0,0.0,0.0,0.0,0.0,0.0,0.0,0.0,0.0,2.6283,2.685,2.7208,2.7995,2.8666,2.8652,2.8934,2.9089,2.8706,2.8175,2.7857,2.8087,2.8094,2.8155,2.8403,2.8698,2.8768,2.8461,2.7629,2.7035,2.6968,2.6345,0.0,0.0,0.0,0.0,2.485,2.4676,2.4512,2.4364,2.4229,2.4085,2.3933,2.3771,2.3598,2.3389,2.3409,2.3384,2.3252,2.2725,2.2257,2.184,2.1472,2.1049,2.0562,2.0189,1.9839,1.9527,1.9195,1.8817,1.8431,1.8135,1.7834,1.7623,1.7778,1.7622,1.7336,0.0,0.0,0.0,0.0,0.0,0.0,0.0,0.0,0.0,0.0,0.0,0.0,0.0,0.0,0.0,0.0,0.0,0.0,0.0,0.0,0.0,0.0,0.0,0.0,0.0,0.0,0.0,0.0,0.0,0.0,0.0,0.0,0.0,0.0,0.0,0.0,0.0,0.0,0.0,0.0,0.0,0.0,2.5414,2.5544,0.0,0.0,0.0,0.0,0.0,0.0,0.0,0.0,0.0,0.0,0.0,0.0,0.0,2.5813,2.666,2.6955,2.7227,2.8053,2.8925,2.9568,2.9569,3.0191,3.0531,2.9582,2.9369,2.9036,0.0,0.0,2.8152,2.8893,2.843,2.8207,2.8945,2.8304,2.7727,0.0,0.0,0.0,0.0,0.0,0.0,2.4802,0.0,2.4414,2.4207,2.4077,2.389,2.3654,2.3454,2.3234,2.3035,2.3491,2.3765,2.3885,2.3601,2.2989,2.2108,2.1834,2.1179,2.0246,1.9924,1.963,1.9315,1.8865,1.8515,1.8225,1.7896,1.7774,1.7804,1.7619,1.7545,1.7569,0.0,0.0,0.0,0.0,0.0,0.0,0.0,0.0,0.0,0.0,0.0,0.0,0.0,0.0,0.0,0.0,0.0,0.0,0.0,0.0,0.0,0.0,0.0,0.0,0.0,0.0,0.0,0.0,0.0,0.0,0.0,0.0,0.0,0.0,0.0,0.0,0.0,0.0,0.0,0.0,0.0,0.0,2.5333,0.0,0.0,0.0,0.0,0.0,0.0,0.0,0.0,0.0,0.0,0.0,2.6435,0.0,0.0,2.7566,2.778,2.8328,2.8886,2.9119,2.979,3.039,3.0384,3.0569,3.0477,2.9583,2.8849,2.8086,0.0,0.0,0.0,2.7852,2.8313,0.0,2.958,2.8912,0.0,0.0,0.0,2.7095,2.6907,2.6696,0.0,0.0,2.5902,2.58,2.5608,2.5462,2.5016,2.4218,2.399,2.3776,2.3526,2.374,2.3769,2.3601,2.3272,2.2911,2.2537,2.217,2.1709,2.1222,2.0887,2.0544,2.0171,1.9845,1.9464,1.9046,1.868,1.8377,1.8177,1.8237,1.8142,1.8061,0.0,0.0,0.0,0.0,0.0,0.0,0.0,0.0,0.0,0.0,0.0,0.0,0.0,0.0,0.0,0.0,0.0,0.0,0.0,0.0,0.0,0.0,0.0,0.0,0.0,0.0,0.0,0.0,0.0,0.0,0.0,0.0,0.0,0.0,0.0,0.0,0.0,0.0,0.0,0.0,0.0,0.0,0.0,0.0,0.0,0.0,0.0,0.0,0.0,0.0,0.0,2.6221,2.6587,2.7016,2.7408,2.7413,0.0,2.8279,2.8633,2.9117,2.9572,2.9939,3.0377,3.0695,3.0662,3.036,2.9943,2.9419,2.8274,0.0,0.0,0.0,0.0,0.0,0.0,0.0,2.9574,2.9302,2.9003,0.0,2.84,0.0,2.7777,2.7574,2.7401,0.0,2.6614,2.6151,2.5985,2.5806,2.5388,2.4695,2.4462,2.431,2.4231,2.4166,2.4151,2.4207,2.3856,2.3412,2.2852,2.2557,2.2034,2.1355,0.0,2.0669,2.0301,1.9998,1.9646,1.9233,1.8832,1.8601,1.8508,1.8411,1.8363,1.8417,0.0,0.0,0.0,0.0,0.0,0.0,0.0,0.0,0.0,0.0,0.0,0.0,0.0,0.0,0.0,0.0,0.0,0.0,0.0,0.0,0.0,0.0,0.0,0.0,0.0,0.0,0.0,0.0,0.0,0.0,0.0,0.0,0.0,0.0,0.0,0.0,0.0,0.0,0.0,0.0,0.0,0.0,0.0,0.0,0.0,0.0,0.0,0.0,0.0,0.0,2.7793,2.7194,2.7957,2.8278,2.8379,2.8358,2.8431,2.8672,2.9375,2.9609,2.9815,3.0499,3.0678,3.0622,3.0442,2.9816,2.9214,2.9057,0.0,0.0,2.7647,0.0,2.6858,2.8159,0.0,2.8568,2.927,2.9471,2.9491,2.9372,2.9301,2.9166,2.898,2.8767,2.8543,2.8286,2.6985,2.6165,2.6055,2.5853,2.5537,2.5074,2.4855,2.4757,2.4837,2.46,2.466,2.5029,2.4675,2.406,2.3188,2.2943,2.2292,2.127,0.0,0.0,2.0246,1.9899,1.9573,1.9242,1.8808,1.873,1.8832,1.85,1.8515,1.8748,0.0,0.0,0.0,0.0,0.0,0.0,0.0,0.0,0.0,0.0,2.3319,0.0,0.0,0.0,0.0,0.0,0.0,0.0,0.0,0.0,0.0,0.0,0.0,0.0,0.0,0.0,0.0,0.0,0.0,0.0,0.0,0.0,0.0,0.0,0.0,0.0,0.0,0.0,0.0,0.0,0.0,0.0,0.0,0.0,0.0,0.0,0.0,0.0,0.0,0.0,2.8706,2.8002,2.8154,2.8691,2.9263,2.9207,2.9693,3.0275,3.036,3.0402,3.0436,3.0511,3.052,3.0346,2.9602,2.9282,0.0,0.0,0.0,2.7602,2.7625,2.7357,0.0,2.811,0.0,0.0,0.0,0.0,2.9232,0.0,0.0,0.0,0.0,0.0,0.0,0.0,0.0,0.0,2.7289,2.7156,2.6573,2.5455,2.5063,2.474,2.4484,2.4823,2.4882,2.469,2.4349,2.4017,2.3658,2.3251,2.2797,2.2331,0.0,0.0,2.1135,2.0748,2.042,2.0124,1.9611,1.9367,1.9294,1.9333,1.9274,1.9261,0.0,0.0,0.0,0.0,0.0,0.0,0.0,0.0,0.0,2.4208,2.4173,2.3872,0.0,0.0,0.0,0.0,0.0,0.0,0.0,0.0,0.0,0.0,0.0,0.0,0.0,0.0,0.0,0.0,0.0,0.0,0.0,0.0,0.0,0.0,0.0,0.0,0.0,0.0,0.0,0.0,0.0,0.0,0.0,0.0,0.0,0.0,0.0,0.0,0.0,0.0,2.9716,2.9356,2.9426,2.9747,3.0059,2.9958,3.0219,3.0535,3.0506,3.0492,3.0481,3.0406,3.04,3.0283,2.9817,0.0,0.0,0.0,0.0,2.7739,2.8061,0.0,0.0,0.0,0.0,0.0,0.0,0.0,0.0,0.0,0.0,0.0,0.0,0.0,0.0,0.0,0.0,0.0,2.7402,2.7021,2.6505,2.5778,2.5358,2.5031,2.4772,2.4776,2.463,2.4328,2.4,2.3696,2.3436,2.3135,2.2768,2.237,2.2044,0.0,2.118,2.0833,2.0616,2.046,2.0145,2.0064,2.0113,2.0033,1.9958,1.9979,0.0,0.0,0.0,0.0,0.0,0.0,0.0,2.487,2.4735,2.5037,2.5143,2.4669,2.3336,2.3003,2.2777,0.0,0.0,0.0,0.0,0.0,0.0,0.0,0.0,0.0,0.0,0.0,0.0,0.0,0.0,0.0,0.0,0.0,0.0,0.0,0.0,0.0,0.0,0.0,0.0,0.0,0.0,0.0,0.0,0.0,0.0,0.0,0.0,0.0,0.0,0.0,3.0388,3.0345,3.0427,3.0479,3.0492,3.0369,3.0351,3.0337,3.0329,3.0356,3.0336,3.0267,3.0254,3.0182,2.9938,2.9343,0.0,0.0,0.0,0.0,0.0,0.0,0.0,0.0,0.0,0.0,0.0,0.0,0.0,0.0,0.0,0.0,0.0,0.0,0.0,0.0,0.0,0.0,2.7037,2.6504,2.6118,2.5919,2.553,2.5224,2.497,2.4605,2.4261,2.3979,2.3638,2.3334,2.3061,2.2844,2.2518,2.2091,2.1945,0.0,0.0,2.0936,2.0874,2.0813,2.0665,2.0717,2.0897,2.0776,2.0768,2.0937,0.0,0.0,0.0,0.0,0.0,0.0,0.0,2.5282,2.5767,2.5089,2.5472,2.5453,2.4528,2.383,2.315,0.0,0.0,0.0,0.0,0.0,0.0,0.0,0.0,0.0,0.0,0.0,0.0,0.0,0.0,0.0,0.0,0.0,0.0,0.0,0.0,0.0,0.0,0.0,0.0,0.0,0.0,0.0,0.0,0.0,0.0,0.0,0.0,0.0,0.0,0.0,0.0,3.0111,2.9991,3.0091,3.0216,3.0144,0.0,0.0,3.0126,3.0178,3.0199,3.0138,3.0121,2.99,2.903,0.0,0.0,0.0,0.0,0.0,0.0,0.0,0.0,0.0,0.0,0.0,0.0,0.0,0.0,0.0,0.0,0.0,0.0,0.0,0.0,0.0,0.0,0.0,0.0,2.6136,2.5844,2.5642,2.532,2.495,2.4559,2.4281,2.3973,2.3638,2.3326,2.3083,2.2889,2.2472,2.2114,2.1858,0.0,0.0,0.0,2.1701,2.1701,2.1572,2.1306,2.1232,2.1287,2.165,2.1939,2.2311,0.0,0.0,0.0,0.0,0.0,0.0,0.0,2.5507,2.6163,2.6212,2.6375,2.6193,2.5348,2.4569,2.3808,0.0,0.0,0.0,0.0,0.0,0.0,0.0,0.0,0.0,0.0,0.0,0.0,0.0,0.0,0.0,0.0,0.0,0.0,0.0,0.0,0.0,0.0,0.0,0.0,0.0,0.0,0.0,0.0,0.0,0.0,0.0,0.0,0.0,0.0,0.0,0.0,0.0,2.9696,2.9696,0.0,0.0,2.9929,2.9929,2.9964,2.9999,3.0007,2.9991,2.9975,2.9848,2.9414,0.0,0.0,0.0,0.0,2.9177,2.9418,0.0,0.0,0.0,0.0,0.0,0.0,0.0,0.0,0.0,0.0,0.0,0.0,0.0,0.0,0.0,0.0,0.0,0.0,2.617,2.5686,2.589,2.5541,2.5415,2.5577,2.5188,2.4897,2.4678,2.43,2.397,2.3669,2.3319,2.2962,2.2624,0.0,0.0,0.0,2.1794,2.1837,2.1926,2.1823,2.1919,2.2189,2.2684,2.2942,2.3205,0.0,0.0,0.0,0.0,0.0,2.4226,2.4853,2.5566,2.6261,2.6889,2.6721,2.6315,2.5724,2.4791,2.3996,2.3473,0.0,0.0,0.0,0.0,0.0,0.0,0.0,0.0,0.0,0.0,0.0,0.0,0.0,0.0,0.0,0.0,0.0,0.0,0.0,0.0,0.0,0.0,0.0,0.0,0.0,0.0,0.0,0.0,0.0,0.0,0.0,0.0,0.0,0.0,0.0,0.0,0.0,0.0,0.0,0.0,2.97,2.9737,2.9782,2.9827,2.9844,2.9844,2.9827,2.9782,0.0,0.0,0.0,2.954,2.9471,2.9382,2.9291,2.9127,2.8975,2.8893,0.0,2.9047,0.0,0.0,0.0,0.0,0.0,0.0,0.0,0.0,0.0,0.0,0.0,0.0,0.0,2.6511,2.6026,2.6335,2.5971,2.5923,2.6206,2.5763,2.5482,2.5325,2.4907,2.454,2.4187,2.3835,2.3463,2.311,0.0,0.0,0.0,2.2263,2.2353,2.2485,2.2543,2.2822,2.3268,2.3654,2.4003,2.4402,0.0,0.0,0.0,0.0,0.0,0.0,0.0,2.5428,2.6137,2.6807,2.6196,2.5673,2.5609,2.435,2.351,2.351,0.0,0.0,0.0,0.0,0.0,0.0,0.0,0.0,0.0,0.0,0.0,0.0,0.0,0.0,0.0,0.0,0.0,0.0,0.0,0.0,0.0,0.0,0.0,0.0,0.0,0.0,0.0,0.0,0.0,0.0,0.0,0.0,0.0,0.0,0.0,0.0,0.0,0.0,0.0,0.0,2.9502,2.9531,2.9569,2.9645,2.9711,2.9711,2.9645,2.9588,0.0,0.0,0.0,2.9314,2.9257,2.92,2.92,2.8987,2.8798,2.8798,2.9194,0.0,0.0,0.0,0.0,0.0,0.0,0.0,0.0,0.0,0.0,0.0,0.0,0.0,0.0,2.7142,2.6971,2.6879,2.6638,2.6334,2.6016,2.5585,2.5325,2.5206,2.4726,2.4405,2.4187,2.3656,2.3267,0.0,0.0,0.0,0.0,2.3356,2.3497,2.339,2.3526,2.3961,2.4479,2.4492,2.521,2.6165,0.0,0.0,0.0,0.0,0.0,0.0,0.0,2.4864,2.5242,2.5911,2.5352,2.4894,2.491,2.4075,2.3507,2.3565,0.0,0.0,0.0,0.0,0.0,0.0,0.0,0.0,0.0,0.0,0.0,0.0,0.0,0.0,0.0,0.0,0.0,0.0,0.0,0.0,0.0,0.0,0.0,0.0,0.0,0.0,0.0,0.0,0.0,0.0,0.0,0.0,0.0,0.0,0.0,0.0,0.0,0.0,0.0,0.0,0.0,0.0,2.9392,2.9404,2.9424,2.9424,2.9404,2.9392,2.9378,0.0,0.0,2.9123,2.901,2.8917,2.8863,2.8687,2.8523,2.8523,2.8497,0.0,0.0,0.0,0.0,0.0,0.0,0.0,0.0,0.0,0.0,0.0,0.0,0.0,0.0,2.8374,2.7988,2.7331,2.7065,2.7,2.7231,2.6912,2.6713,2.6547,2.6089,2.57,2.5357,2.4764,0.0,0.0,0.0,0.0,0.0,2.3581,2.3829,2.4162,2.4192,2.4569,2.5121,2.5518,2.5903,2.6242,0.0,0.0,0.0,0.0,0.0,0.0,0.0,2.4132,2.4371,2.5084,2.4541,2.41,2.4177,2.3558,2.317,2.3237,0.0,0.0,0.0,0.0,0.0,0.0,0.0,0.0,0.0,0.0,0.0,0.0,0.0,0.0,0.0,0.0,0.0,0.0,0.0,0.0,0.0,0.0,0.0,0.0,0.0,0.0,2.931,0.0,0.0,0.0,0.0,0.0,0.0,0.0,0.0,0.0,0.0,0.0,0.0,0.0,0.0,0.0,0.0,2.9185,2.9185,2.9185,2.9185,0.0,0.0,0.0,0.0,2.8917,2.8798,2.8791,2.8962,2.8838,2.8782,2.904,2.9083,0.0,0.0,0.0,0.0,0.0,0.0,0.0,0.0,0.0,0.0,0.0,0.0,0.0,0.0,0.0,2.8451,2.7718,2.7535,2.7564,2.7815,2.7514,2.7335,2.7181,2.6736,2.6244,2.5811,2.5258,0.0,0.0,0.0,0.0,0.0,2.4348,2.4614,2.4937,2.506,2.5397,2.5858,2.6265,2.6537,2.6736,0.0,0.0,0.0,0.0,0.0,0.0,0.0,0.0,0.0,2.4321,2.378,2.3352,2.3425,2.2883,2.2586,0.0,0.0,0.0,0.0,0.0,0.0,0.0,0.0,0.0,0.0,0.0,0.0,2.8189,2.8315,2.8792,2.9576,0.0,0.0,0.0,0.0,0.0,0.0,0.0,0.0,0.0,0.0,0.0,0.0,0.0,0.0,0.0,0.0,0.0,0.0,0.0,0.0,0.0,0.0,0.0,0.0,0.0,0.0,0.0,0.0,0.0,0.0,0.0,0.0,0.0,0.0,0.0,0.0,0.0,2.8788,2.8902,2.9457,2.9408,2.9467,3.0066,3.0517,0.0,0.0,0.0,0.0,0.0,0.0,0.0,0.0,0.0,0.0,0.0,0.0,0.0,0.0,0.0,2.842,2.8005,2.804,2.7951,2.779,2.7529,2.7335,2.7181,2.6709,2.619,2.566,2.5243,0.0,0.0,0.0,0.0,0.0,2.547,2.5762,2.5732,2.6033,2.6406,2.6771,2.6771,2.7079,2.749,0.0,0.0,0.0,0.0,0.0,0.0,0.0,0.0,0.0,0.0,2.3047,2.2663,2.2729,2.2699,2.294,0.0,0.0,0.0,0.0,0.0,0.0,0.0,0.0,0.0,0.0,0.0,0.0,2.9094,2.9183,2.9602,3.0347,3.0347,0.0,0.0,0.0,0.0,0.0,0.0,0.0,0.0,0.0,0.0,0.0,0.0,0.0,0.0,2.8834,2.8798,0.0,0.0,0.0,0.0,0.0,0.0,0.0,0.0,3.0738,0.0,3.0459,0.0,3.0539,3.0587,0.0,0.0,0.0,0.0,0.0,0.0,0.0,3.0069,3.0163,2.9988,2.9808,2.9821,0.0,0.0,0.0,0.0,0.0,0.0,0.0,0.0,0.0,0.0,0.0,0.0,0.0,0.0,0.0,0.0,2.8299,2.802,2.8303,2.819,2.765,2.7488,2.7273,2.7041,2.6578,2.6041,2.5453,2.5466,0.0,0.0,0.0,0.0,2.529,2.5808,2.6248,2.6593,2.6688,2.7044,2.7512,2.736,2.7372,2.749,0.0,0.0,0.0,0.0,0.0,0.0,0.0,0.0,0.0,0.0,0.0,0.0,0.0,0.0,0.0,0.0,0.0,0.0,0.0,0.0,0.0,0.0,0.0,0.0,0.0,0.0,0.0,0.0,0.0,3.0169,0.0,0.0,0.0,0.0,0.0,0.0,0.0,0.0,0.0,0.0,0.0,0.0,0.0,0.0,0.0,0.0,2.8712,2.8923,0.0,2.9201,2.9417,2.9789,0.0,0.0,0.0,0.0,3.1647,3.1861,3.1861,3.138,3.091,3.0952,3.0938,3.091,0.0,0.0,0.0,0.0,0.0,0.0,3.0733,0.0,0.0,0.0,0.0,0.0,0.0,0.0,0.0,0.0,0.0,0.0,0.0,0.0,0.0,0.0,0.0,0.0,0.0,0.0,2.866,2.8475,2.846,2.8278,2.7906,2.7884,2.7691,2.7307,2.6917,2.637,2.5712,2.5934,0.0,0.0,0.0,0.0,2.5878,2.6683,2.7133,2.7314,2.7392,2.7577,2.7776,2.7556,2.7659,2.7894,0.0,0.0,0.0,0.0,0.0,0.0,0.0,0.0,0.0,0.0,0.0,0.0,0.0,0.0,0.0,0.0,0.0,0.0,0.0,0.0,0.0,0.0,0.0,0.0,0.0,0.0,0.0,0.0,0.0,0.0,0.0,0.0,3.1666,0.0,0.0,0.0,0.0,0.0,0.0,0.0,0.0,0.0,0.0,0.0,0.0,0.0,0.0,0.0,0.0,2.9984,3.0437,3.1034,3.1143,0.0,0.0,0.0,0.0,0.0,3.3101,3.2149,3.116,3.1189,3.116,3.1128,0.0,0.0,0.0,0.0,0.0,0.0,0.0,0.0,0.0,0.0,0.0,0.0,0.0,0.0,0.0,0.0,0.0,0.0,0.0,0.0,0.0,0.0,0.0,0.0,0.0,0.0,0.0,2.9158,2.8828,2.8619,2.8566,2.8465,2.8206,2.777,2.7425,2.689,2.6226,2.6526,2.6241,0.0,0.0,0.0,2.651,2.7617,2.8,2.7875,2.8033,2.8,2.7835,2.7695,2.7968,2.8399,0.0,0.0,0.0,0.0,0.0,0.0,0.0,0.0,0.0,0.0,0.0,0.0,0.0,0.0,0.0,0.0,0.0,0.0,0.0,0.0,0.0,0.0,0.0,0.0,0.0,0.0,0.0,0.0,0.0,0.0,3.236,3.2471,3.2121,0.0,0.0,0.0,0.0,0.0,0.0,0.0,0.0,0.0,0.0,0.0,0.0,0.0,0.0,0.0,0.0,3.0817,3.0908,3.1125,3.1799,0.0,0.0,0.0,0.0,0.0,3.3101,3.2921,3.2775,3.2886,3.2778,3.2686,0.0,0.0,0.0,0.0,0.0,0.0,0.0,0.0,0.0,0.0,0.0,0.0,0.0,0.0,0.0,0.0,0.0,0.0,0.0,0.0,0.0,0.0,0.0,0.0,0.0,0.0,0.0,2.9856,3.006,3.0056,2.9833,2.9007,2.8436,2.8111,2.7666,2.7199,2.672,2.7103,2.6977,0.0,0.0,2.7492,2.7339,2.7875,2.8164,2.8235,2.8131,2.8079,2.8066,2.8208,2.8307,2.8417,0.0,0.0,0.0,0.0,0.0,0.0,0.0,0.0,0.0,0.0,0.0,0.0,0.0,0.0,0.0,0.0,0.0,0.0,0.0,0.0,0.0,0.0,0.0,0.0,0.0,0.0,0.0,0.0,0.0,3.198,3.2653,3.2608,3.2161,3.1316,0.0,0.0,0.0,0.0,0.0,0.0,0.0,0.0,0.0,0.0,0.0,0.0,0.0,0.0,0.0,0.0,3.1926,3.2361,3.2723,0.0,0.0,0.0,0.0,0.0,3.3256,3.3256,3.3289,3.3352,3.3183,0.0,0.0,0.0,0.0,0.0,0.0,0.0,0.0,0.0,0.0,0.0,0.0,0.0,0.0,0.0,0.0,0.0,0.0,0.0,0.0,0.0,0.0,0.0,0.0,0.0,0.0,0.0,0.0,0.0,3.04,3.0476,3.0631,2.9886,2.9246,2.8726,2.8224,2.779,2.7394,2.7741,2.7672,2.7308,0.0,2.7868,2.7689,2.8052,2.8183,2.8197,2.8112,2.8246,2.8497,2.8987,2.91,2.9047,0.0,0.0,0.0,0.0,0.0,0.0,0.0,0.0,0.0,0.0,0.0,0.0,0.0,0.0,0.0,0.0,0.0,0.0,0.0,0.0,0.0,0.0,0.0,0.0,0.0,0.0,3.0453,3.076,3.2059,3.2744,3.2876,3.2622,3.2065,0.0,0.0,0.0,0.0,2.8669,2.8703,0.0,0.0,0.0,0.0,0.0,0.0,0.0,0.0,0.0,0.0,0.0,0.0,0.0,0.0,0.0,0.0,3.3393,3.3393,3.3393,3.3393,3.3393,3.3447,0.0,0.0,0.0,0.0,0.0,0.0,0.0,0.0,0.0,0.0,0.0,0.0,0.0,0.0,0.0,0.0,0.0,0.0,0.0,0.0,0.0,0.0,0.0,0.0,0.0,0.0,0.0,0.0,0.0,0.0,0.0,3.0677,3.073,3.1102,3.0568,2.9961,2.9277,2.8808,2.8395,2.8083,2.8292,2.8203,2.7941,2.8085,2.8066,2.7941,2.8189,2.8235,2.8131,2.8112,2.8398,2.8912,2.9551,2.9748,2.9754,0.0,0.0,0.0,0.0,0.0,0.0,0.0,0.0,0.0,0.0,0.0,0.0,0.0,0.0,0.0,0.0,0.0,0.0,0.0,0.0,0.0,0.0,0.0,0.0,0.0,3.0173,3.0944,3.2436,3.2559,3.2999,3.3697,3.2892,3.2065,3.1265,0.0,2.9457,2.8682,2.8569,2.8938,0.0,0.0,0.0,0.0,0.0,0.0,0.0,0.0,0.0,0.0,0.0,0.0,0.0,0.0,0.0,3.3393,3.3393,3.3393,3.3393,3.3393,3.3393,3.3574,3.4335,0.0,0.0,0.0,0.0,0.0,0.0,0.0,0.0,0.0,0.0,0.0,0.0,0.0,0.0,0.0,0.0,0.0,0.0,0.0,0.0,0.0,0.0,0.0,0.0,0.0,0.0,0.0,0.0,0.0,0.0,0.0,3.119,3.1117,3.0568,3.0054,2.9577,2.9219,2.8871,2.8565,2.8573,2.8444,2.8254,2.83,2.83,2.8254,2.8287,2.8287,2.8268,2.8131,2.8569,2.9287,2.9671,3.0043,3.0317,0.0,0.0,0.0,0.0,0.0,0.0,0.0,0.0,0.0,0.0,0.0,0.0,0.0,0.0,0.0,0.0,0.0,0.0,0.0,0.0,0.0,0.0,0.0,3.0282,3.0806,3.1351,3.1931,3.2535,3.3083,3.3468,3.3721,3.2848,0.0,0.0,0.0,2.9393,2.8656,2.9073,2.9404,2.971,0.0,0.0,0.0,0.0,0.0,0.0,0.0,0.0,0.0,0.0,3.3393,3.3393,0.0,3.3393,3.3393,3.3393,3.3393,3.3393,3.3393,3.3773,3.4226,3.4519,0.0,0.0,0.0,0.0,0.0,0.0,0.0,0.0,0.0,0.0,0.0,0.0,0.0,0.0,0.0,0.0,0.0,0.0,0.0,0.0,0.0,0.0,0.0,0.0,0.0,0.0,0.0,0.0,0.0,0.0,0.0,3.1146,3.0791,3.0447,3.0007,2.9418,2.918,2.8972,2.8716,2.8651,2.8554,2.8476,2.8476,2.8476,2.8476,2.8365,2.8235,2.8231,2.8675,2.9258,2.9839,3.0067,3.0252,3.0368,0.0,0.0,0.0,0.0,0.0,0.0,0.0,0.0,0.0,0.0,0.0,0.0,0.0,0.0,0.0,0.0,0.0,0.0,0.0,0.0,0.0,0.0,0.0,3.0339,3.1159,3.2027,3.261,3.288,3.3491,3.378,3.3707,0.0,0.0,0.0,0.0,2.9862,2.9396,2.9872,3.0197,0.0,3.1567,3.208,0.0,0.0,0.0,0.0,0.0,0.0,0.0,0.0,3.3393,0.0,0.0,0.0,0.0,0.0,3.3393,3.3465,3.3719,3.419,3.4718,0.0,0.0,0.0,0.0,0.0,0.0,0.0,0.0,0.0,0.0,0.0,0.0,0.0,0.0,0.0,0.0,0.0,0.0,0.0,0.0,0.0,0.0,0.0,0.0,0.0,0.0,0.0,0.0,0.0,0.0,0.0,0.0,3.0969,3.0598,3.0357,2.996,2.9387,2.9243,2.9035,2.8716,2.8651,2.8587,2.8587,2.8587,2.8587,2.8587,2.8398,2.829,2.8379,2.9232,2.9797,3.0129,3.0314,3.0406,3.033,0.0,0.0,0.0,0.0,0.0,0.0,0.0,0.0,0.0,0.0,0.0,0.0,0.0,0.0,0.0,0.0,0.0,0.0,0.0,0.0,0.0,0.0,0.0,3.0262,3.1079,3.1955,3.2807,3.3698,3.3766,3.3807,3.3788,3.2848,0.0,0.0,0.0,3.1016,3.1003,3.0952,0.0,0.0,3.2043,3.2448,0.0,0.0,0.0,0.0,0.0,0.0,0.0,0.0,3.3393,0.0,0.0,0.0,0.0,3.3429,3.3429,3.361,3.4407,3.4609,0.0,0.0,0.0,0.0,0.0,0.0,0.0,0.0,0.0,0.0,0.0,0.0,0.0,0.0,0.0,0.0,0.0,0.0,0.0,0.0,0.0,0.0,0.0,0.0,0.0,0.0,0.0,0.0,0.0,0.0,0.0,0.0,0.0,0.0,3.0627,3.0278,2.9941,2.9617,2.946,2.9145,2.8587,2.8587,2.8587,2.8587,2.86,2.86,2.86,2.8411,2.8478,2.8818,2.9729,3.01,3.0129,3.0314,3.0406,3.033,0.0,0.0,0.0,0.0,0.0,0.0,0.0,0.0,0.0,0.0,0.0,0.0,0.0,0.0,0.0,0.0,0.0,0.0,0.0,0.0,0.0,0.0,0.0,0.0,0.0,0.0,3.226,3.3698,3.3766,3.378,0.0,0.0,0.0,3.2397,0.0,0.0,0.0,0.0,0.0,0.0,3.2715,3.3046,0.0,0.0,0.0,0.0,0.0,0.0,0.0,0.0,0.0,0.0,0.0,0.0,0.0,3.4932,3.508,3.5134,3.5369,3.5856,0.0,0.0,0.0,0.0,0.0,0.0,0.0,0.0,0.0,0.0,0.0,0.0,0.0,0.0,0.0,0.0,0.0,0.0,0.0,0.0,0.0,0.0,0.0,0.0,0.0,0.0,0.0,0.0,0.0,0.0,0.0,0.0,0.0,0.0,3.157,3.1489,3.1201,3.0732,3.0699,3.0044,2.894,2.8812,2.8748,2.8775,2.91,2.9244,2.9252,2.9322,2.9477,2.9689,3.0006,3.0348,3.0714,3.0494,3.0406,3.033,0.0,0.0,0.0,0.0,0.0,0.0,0.0,0.0,0.0,0.0,0.0,0.0,0.0,0.0,0.0,0.0,0.0,0.0,0.0,0.0,0.0,0.0,0.0,0.0,0.0,3.0758,3.1876,0.0,0.0,0.0,0.0,0.0,0.0,3.2953,0.0,3.2616,0.0,0.0,3.2768,3.2791,3.3238,3.3408,3.3408,0.0,0.0,0.0,0.0,0.0,0.0,0.0,0.0,0.0,0.0,0.0,0.0,3.5659,3.5804,3.5858,3.62,0.0,0.0,0.0,0.0,0.0,0.0,0.0,0.0,0.0,0.0,0.0,0.0,0.0,0.0,0.0,0.0,0.0,0.0,0.0,0.0,0.0,0.0,0.0,0.0,0.0,0.0,0.0,0.0,0.0,0.0,0.0,0.0,0.0,0.0,0.0,3.2015,3.2015,3.1786,3.1324,3.1324,3.0834,2.9928,2.9668,2.9504,2.9465,2.9719,2.9767,2.9639,3.0001,3.0134,3.0113,3.0348,3.0686,3.0949,3.0558,3.0406,3.033,0.0,0.0,0.0,0.0,0.0,0.0,0.0,0.0,0.0,0.0,0.0,0.0,0.0,0.0,0.0,0.0,0.0,0.0,0.0,0.0,0.0,0.0,0.0,0.0,0.0,0.0,0.0,0.0,0.0,0.0,0.0,0.0,3.382,3.382,0.0,3.3757,0.0,3.3816,3.3838,3.3838,3.3824,3.3769,3.37,3.3629,0.0,0.0,0.0,0.0,0.0,0.0,0.0,0.0,0.0,3.5261,3.5912,3.6001,3.6019,3.6182,0.0,0.0,0.0,0.0,0.0,0.0,0.0,0.0,0.0,0.0,0.0,0.0,0.0,0.0,0.0,0.0,0.0,0.0,0.0,0.0,0.0,0.0,0.0,0.0,0.0,0.0,0.0,0.0,0.0,0.0,0.0,0.0,0.0,0.0,0.0,0.0,3.2186,3.2186,3.2004,0.0,3.1654,3.1553,3.1304,3.089,3.0638,3.0486,3.0486,3.0271,2.9989,3.0557,3.0517,3.0231,3.079,3.0986,3.0911,3.0558,3.0406,3.033,0.0,0.0,0.0,0.0,0.0,0.0,0.0,0.0,0.0,0.0,0.0,0.0,0.0,0.0,0.0,0.0,0.0,0.0,0.0,0.0,0.0,0.0,0.0,0.0,0.0,0.0,0.0,0.0,0.0,0.0,0.0,0.0,0.0,3.3996,0.0,3.4912,3.4881,3.5467,3.5648,3.5553,3.5513,3.5115,3.4517,3.4462,0.0,0.0,0.0,0.0,0.0,0.0,0.0,0.0,3.5333,3.6091,3.6884,3.7568,3.7716,3.772,0.0,3.7919,0.0,0.0,0.0,0.0,0.0,0.0,0.0,0.0,0.0,0.0,0.0,0.0,0.0,0.0,0.0,0.0,0.0,0.0,0.0,0.0,0.0,0.0,0.0,0.0,0.0,0.0,0.0,0.0,0.0,0.0,0.0,0.0,0.0,3.384,3.3482,3.3482,3.3311,0.0,3.2918,3.273,3.2324,3.1302,3.0945,3.111,3.111,3.1155,3.1236,3.1356,3.1175,3.0817,3.0934,3.0911,3.0736,3.0482,3.0292,3.0113,0.0,0.0,0.0,0.0,0.0,0.0,0.0,0.0,0.0,0.0,0.0,0.0,0.0,0.0,0.0,0.0,0.0,0.0,0.0,0.0,0.0,0.0,0.0,0.0,0.0,0.0,0.0,0.0,0.0,0.0,0.0,0.0,0.0,3.4678,0.0,3.548,3.5846,3.6205,3.6313,3.6233,3.6161,3.5893,3.5509,3.5374,0.0,0.0,0.0,0.0,0.0,0.0,0.0,0.0,0.0,0.0,3.7158,3.8023,3.8242,3.8209,0.0,0.0,0.0,0.0,0.0,0.0,0.0,0.0,0.0,0.0,0.0,0.0,0.0,0.0,0.0,0.0,0.0,0.0,0.0,0.0,0.0,0.0,0.0,0.0,0.0,0.0,0.0,0.0,0.0,0.0,0.0,0.0,0.0,0.0,3.4467,3.4142,3.3896,3.3793,3.3605,3.329,3.3206,3.2931,3.2533,3.1858,3.1586,3.1721,3.1721,3.168,3.1609,3.1609,3.1373,3.0986,3.0986,3.0949,3.0798,3.052,3.033,3.019,0.0,0.0,0.0,0.0,0.0,0.0,0.0,0.0,0.0,0.0,0.0,0.0,0.0,0.0,0.0,0.0,0.0,0.0,0.0,0.0,0.0,0.0,0.0,0.0,0.0,0.0,0.0,0.0,0.0,0.0,0.0,0.0,0.0,3.5421,0.0,0.0,3.6722,3.6819,3.685,3.6822,3.675,3.6629,3.649,0.0,0.0,0.0,0.0,0.0,0.0,0.0,0.0,0.0,0.0,0.0,3.7158,3.799,3.8191,3.8174,0.0,0.0,0.0,0.0,0.0,0.0,0.0,0.0,0.0,0.0,0.0,0.0,0.0,0.0,0.0,0.0,0.0,0.0,0.0,0.0,0.0,0.0,0.0,0.0,0.0,0.0,0.0,0.0,0.0,0.0,3.5504,3.5115,3.4902,3.4902,3.4366,3.404,3.3896,3.3709,3.3501,3.329,3.3072,3.2775,3.2381,3.2277,3.2218,3.2218,3.2218,3.1963,3.1609,3.1609,3.1373,3.0986,3.0986,3.0986,3.0911,3.052,3.0368,3.0292,0.0,0.0,0.0,0.0,0.0,0.0,0.0,0.0,0.0,0.0,0.0,0.0,0.0,0.0,0.0,0.0,0.0,0.0,0.0,0.0,0.0,0.0,0.0,0.0,0.0,0.0,0.0,0.0,0.0,0.0,0.0,0.0,0.0,0.0,0.0,0.0,0.0,3.8354,3.8578,3.8494,3.846,3.8011,0.0,0.0,0.0,0.0,0.0,0.0,0.0,0.0,0.0,0.0,0.0,0.0,0.0,3.8038,3.8172,3.8035,0.0,0.0,0.0,0.0,0.0,0.0,0.0,0.0,0.0,0.0,0.0,0.0,0.0,0.0,0.0,0.0,0.0,0.0,0.0,0.0,0.0,0.0,0.0,0.0,0.0,0.0,0.0,0.0,0.0,0.0,3.5504,3.5115,3.4902,3.4902,3.4366,3.404,3.3896,3.3709,3.3501,3.329,3.2931,3.2632,3.2381,3.2277,3.2218,3.2218,3.2218,3.1963,3.1609,3.1609,3.1373,3.0986,3.0986,3.0874,3.0698,3.0482,3.0292,3.0113,0.0,0.0,0.0,0.0,0.0,0.0,0.0,0.0,0.0,0.0,0.0,0.0,0.0,0.0,0.0,0.0,0.0,0.0,0.0,0.0,0.0,0.0,0.0,0.0,0.0,0.0,0.0,0.0,0.0,0.0,0.0,3.6075,3.6509,0.0,0.0,0.0,0.0,0.0,0.0,0.0,0.0,0.0,0.0,0.0,0.0,0.0,0.0,0.0,0.0,0.0,0.0,0.0,0.0,0.0,0.0,0.0,0.0,0.0,3.7827,0.0,0.0,0.0,0.0,0.0,0.0,0.0,0.0,0.0,0.0,0.0,0.0,0.0,0.0,0.0,0.0,0.0,0.0,0.0,0.0,0.0,0.0,0.0,0.0,0.0,0.0,0.0,0.0,3.5638,3.5504,3.5115,3.4902,3.4902,3.4312,3.3951,3.3896,3.3605,3.3276,3.2966,3.2775,3.2561,3.23,3.2241,3.2218,3.2218,3.2218,3.2036,3.1743,3.1646,3.1447,3.1161,3.1061,3.0949,3.0836,3.052,3.0522,3.0648,0.0,0.0,0.0,0.0,0.0,0.0,0.0,0.0,0.0,0.0,0.0,0.0,0.0,0.0,0.0,0.0,0.0,0.0,0.0,0.0,0.0,0.0,0.0,0.0,0.0,0.0,0.0,0.0,0.0,0.0,3.6011,3.6845,3.7636,0.0,3.8407,0.0,0.0,0.0,0.0,0.0,0.0,0.0,0.0,0.0,0.0,0.0,0.0,0.0,0.0,0.0,0.0,0.0,0.0,0.0,0.0,0.0,0.0,0.0,0.0,0.0,0.0,0.0,0.0,0.0,0.0,0.0,0.0,0.0,0.0,0.0,0.0,0.0,0.0,0.0,0.0,0.0,0.0,0.0,0.0,0.0,0.0,0.0,0.0,0.0,0.0,0.0,0.0,3.5718,3.5504,3.5115,3.4902,3.4902,3.4278,3.3917,3.3896,3.3501,3.3122,3.2775,3.2739,3.2525,3.2241,3.2218,3.2218,3.2218,3.2218,3.2109,3.189,3.1683,3.1485,3.1272,3.1099,3.0986,3.0962,3.0688,3.0842,3.1148,0.0,0.0,0.0,0.0,0.0,0.0,0.0,0.0,0.0,0.0,0.0,0.0,0.0,0.0,0.0,0.0,0.0,0.0,0.0,0.0,0.0,0.0,0.0,0.0,0.0,0.0,0.0,0.0,0.0,0.0,3.687,3.7717,3.8596,3.9426,3.9356,3.9349,3.9391,0.0,0.0,0.0,0.0,0.0,0.0,0.0,0.0,0.0,0.0,0.0,0.0,0.0,0.0,0.0,0.0,0.0,0.0,0.0,0.0,0.0,0.0,0.0,0.0,0.0,0.0,0.0,0.0,0.0,0.0,0.0,0.0,0.0,0.0,0.0,0.0,0.0,0.0,0.0,0.0,0.0,0.0,0.0,0.0,0.0,0.0,0.0,0.0,0.0,0.0,3.5829,3.5504,3.5115,3.4902,3.4902,3.4366,3.404,3.3896,3.3501,3.3192,3.2988,3.281,3.2596,3.2381,3.2277,3.2218,3.2218,3.2218,3.2109,3.189,3.1683,3.1485,3.1272,3.1099,3.0986,3.1014,3.1126,3.1176,3.1199,0.0,0.0,0.0,0.0,0.0,0.0,0.0,0.0,0.0,0.0,0.0,0.0,0.0,0.0,0.0,2.9218,2.9743,0.0,0.0,0.0,0.0,0.0,0.0,0.0,0.0,0.0,0.0,0.0,0.0,3.6241,3.7059,3.7877,3.8733,3.9571,3.9546,3.9508,3.9457,3.9457,0.0,0.0,0.0,3.9064,0.0,0.0,0.0,0.0,0.0,0.0,0.0,0.0,0.0,0.0,0.0,0.0,0.0,0.0,0.0,0.0,0.0,0.0,0.0,0.0,0.0,0.0,0.0,0.0,0.0,0.0,0.0,0.0,0.0,0.0,0.0,0.0,0.0,0.0,0.0,0.0,0.0,0.0,0.0,0.0,0.0,0.0,0.0,0.0,0.0,0.0,3.5504,3.5115,3.4902,3.4902,3.4366,3.3971,3.3709,3.3431,3.3206,3.2988,3.2917,3.2739,3.2417,3.2359,3.2264,3.2218,3.2218,3.2146,3.2073,3.1743,3.1572,3.1447,3.1136,3.1209,3.1485,3.1293,3.1675,3.2248,0.0,0.0,0.0,0.0,0.0,0.0,0.0,0.0,0.0,0.0,0.0,0.0,0.0,0.0,0.0,3.0196,3.0762,3.1345,3.1896,3.1947,0.0,0.0,0.0,0.0,0.0,0.0,0.0,0.0,0.0,0.0,0.0,0.0,3.9063,3.9589,3.9589,0.0,0.0,0.0,0.0,3.9256,0.0,0.0,3.9327,0.0,0.0,0.0,0.0,0.0,0.0,0.0,0.0,0.0,0.0,0.0,0.0,0.0,0.0,0.0,0.0,0.0,0.0,0.0,0.0,0.0,0.0,0.0,0.0,0.0,0.0,0.0,0.0,0.0,0.0,0.0,0.0,0.0,0.0,0.0,0.0,0.0,0.0,0.0,0.0,0.0,0.0,0.0,0.0,0.0,3.5504,3.5115,3.4868,3.4735,3.4264,3.3937,3.3709,3.3431,3.3241,3.3108,3.3023,3.281,3.2489,3.2417,3.2322,3.2218,3.2218,3.2218,3.2182,3.178,3.1609,3.1585,3.136,3.1509,3.1811,3.1756,3.2265,3.2861,0.0,0.0,0.0,0.0,0.0,0.0,0.0,0.0,0.0,0.0,0.0,0.0,0.0,0.0,0.0,3.2035,3.2098,3.2127,3.2083,3.2129,0.0,0.0,0.0,0.0,0.0,0.0,0.0,0.0,0.0,0.0,0.0,0.0,3.9589,0.0,3.9589,3.9589,3.9608,0.0,3.9514,3.9405,0.0,3.9742,4.0182,0.0,0.0,0.0,4.0956,4.0806,0.0,0.0,0.0,0.0,0.0,0.0,0.0,0.0,0.0,0.0,0.0,0.0,0.0,0.0,0.0,0.0,0.0,0.0,0.0,0.0,0.0,0.0,0.0,0.0,0.0,0.0,0.0,0.0,0.0,0.0,0.0,0.0,0.0,0.0,0.0,0.0,0.0,0.0,0.0,3.5653,3.5504,3.5115,3.4735,3.4414,3.4088,3.3896,3.3896,3.3501,3.329,3.329,3.3108,3.2917,3.2704,3.2489,3.2322,3.2218,3.2218,3.2218,3.2146,3.1743,3.1622,3.1652,3.1742,3.1823,3.1954,3.2643,3.289,3.2951,0.0,0.0,0.0,0.0,0.0,0.0,0.0,0.0,0.0,0.0,0.0,0.0,0.0,0.0,0.0,3.3028,3.3096,3.3351,3.392,3.3978,3.4062,3.4234,3.4264,3.4358,0.0,0.0,0.0,0.0,0.0,0.0,0.0,0.0,0.0,0.0,3.9589,3.9583,3.9533,3.9533,0.0,0.0,3.9886,4.0084,0.0,0.0,0.0,0.0,0.0,4.0581,0.0,0.0,4.0179,4.0103,0.0,0.0,0.0,0.0,0.0,0.0,3.6745,0.0,0.0,0.0,0.0,0.0,0.0,0.0,0.0,0.0,0.0,0.0,0.0,0.0,0.0,0.0,0.0,0.0,0.0,0.0,0.0,0.0,0.0,0.0,0.0,0.0,0.0,0.0,3.5733,3.5554,3.5504,3.5115,3.4735,3.4414,3.4088,3.3896,3.3896,3.3501,3.329,3.329,3.3241,3.3051,3.2704,3.2632,3.2467,3.2218,3.2218,3.2109,3.1963,3.172,3.1849,3.2146,3.1886,3.2319,3.3116,3.2926,3.3133,3.3436,0.0,0.0,0.0,0.0,0.0,0.0,0.0,0.0,0.0,0.0,0.0,0.0,0.0,0.0,0.0,0.0,3.4353,3.4739,3.5176,3.5534,3.57,3.5645,3.5315,3.5146,3.5146,0.0,0.0,0.0,0.0,0.0,0.0,0.0,0.0,0.0,0.0,0.0,0.0,0.0,0.0,0.0,4.0546,0.0,0.0,4.1456,4.1707,0.0,0.0,0.0,4.1413,4.1184,4.1028,0.0,0.0,0.0,0.0,0.0,0.0,0.0,0.0,0.0,0.0,0.0,0.0,0.0,3.8111,3.8864,0.0,0.0,0.0,0.0,0.0,0.0,0.0,0.0,0.0,0.0,0.0,0.0,0.0,0.0,0.0,0.0,0.0,0.0,0.0,3.6005,3.5683,3.5439,3.5261,3.5034,3.4735,3.4414,3.4108,3.3951,3.3896,3.357,3.3396,3.329,3.329,3.3086,3.2704,3.2704,3.2503,3.2218,3.2218,3.2109,3.1917,3.1923,3.2066,3.2298,3.2489,3.2986,3.3573,3.3341,3.3414,3.3641,0.0,0.0,0.0,0.0,0.0,0.0,0.0,0.0,0.0,0.0,0.0,0.0,0.0,0.0,0.0,0.0,3.5742,3.6115,3.6061,3.6776,3.7167,3.7103,3.6434,3.604,3.607,3.5299,0.0,0.0,0.0,0.0,0.0,0.0,0.0,0.0,0.0,0.0,0.0,0.0,0.0,4.0592,4.1367,4.1939,0.0,0.0,4.2718,0.0,4.2938,4.2823,4.2725,4.2544,4.2284,0.0,0.0,0.0,0.0,0.0,3.7297,0.0,0.0,0.0,0.0,0.0,0.0,0.0,3.7353,3.841,3.9405,0.0,0.0,0.0,0.0,0.0,0.0,0.0,0.0,0.0,0.0,0.0,0.0,0.0,0.0,0.0,0.0,3.6195,3.6005,3.6005,3.5683,3.5326,3.4935,3.4902,3.4735,3.4414,3.4196,3.404,3.3896,3.3709,3.3501,3.329,3.329,3.3086,3.2704,3.2668,3.2503,3.2218,3.2286,3.2168,3.2001,3.2406,3.2442,3.2303,3.3236,3.3626,3.369,3.3714,3.3713,3.3641,0.0,0.0,0.0,0.0,0.0,0.0,0.0,0.0,0.0,0.0,0.0,0.0,0.0,0.0,0.0,0.0,0.0,3.7047,3.7041,3.7148,3.719,3.7179,3.7028,3.6975,3.7041,3.6817,3.6784,0.0,0.0,0.0,0.0,0.0,0.0,0.0,0.0,0.0,0.0,0.0,0.0,4.191,4.2092,0.0,4.2361,4.2776,4.2959,4.292,4.2728,4.2607,4.2524,0.0,4.2037,4.1805,0.0,0.0,0.0,0.0,0.0,0.0,0.0,0.0,0.0,0.0,0.0,0.0,3.732,3.8228,3.9077,0.0,0.0,0.0,0.0,0.0,0.0,0.0,0.0,0.0,0.0,0.0,0.0,0.0,0.0,0.0,0.0,3.6195,3.6005,3.6005,3.5683,3.5326,3.4935,3.4902,3.4735,3.4414,3.4196,3.404,3.3896,3.3709,3.3501,3.329,3.3157,3.2917,3.2704,3.2525,3.2359,3.2246,3.2721,3.2688,3.2393,3.3421,3.3462,3.2895,3.3393,3.3862,3.4212,3.3843,3.3713,3.3641,0.0,0.0,0.0,0.0,0.0,0.0,0.0,0.0,0.0,0.0,0.0,0.0,0.0,0.0,0.0,0.0,0.0,0.0,0.0,0.0,3.8459,3.8459,3.8064,3.786,3.7893,3.7431,3.7397,3.7804,0.0,0.0,0.0,0.0,0.0,0.0,0.0,0.0,0.0,0.0,4.2642,4.2892,4.2892,0.0,4.2631,4.2904,4.2899,4.2728,4.2607,4.2427,4.2264,4.1952,4.1784,0.0,0.0,4.0749,3.9874,0.0,3.8088,3.678,0.0,0.0,0.0,3.5055,0.0,0.0,0.0,3.7178,3.7847,3.7847,0.0,0.0,0.0,0.0,0.0,0.0,0.0,0.0,0.0,0.0,0.0,0.0,0.0,0.0,0.0,3.6132,3.5925,3.5765,3.5587,3.5326,3.4935,3.4902,3.4735,3.4414,3.4312,3.4142,3.3896,3.3793,3.357,3.3157,3.3072,3.2846,3.2561,3.2768,3.2773,3.268,3.324,3.3257,3.2928,3.3847,3.3834,3.3356,3.3811,3.4121,3.4202,3.3852,3.3641,3.3513,0.0,0.0,0.0,0.0,0.0,0.0,0.0,0.0,0.0,0.0,0.0,0.0,0.0,0.0,0.0,0.0,0.0,0.0,0.0,0.0,3.9701,3.9712,3.9101,3.8754,3.8754,3.8056,3.7992,3.862,0.0,0.0,0.0,0.0,0.0,0.0,0.0,0.0,0.0,0.0,0.0,4.3375,0.0,4.3196,4.29,4.2862,4.2709,4.253,4.2425,4.2222,4.1956,4.1692,0.0,4.1475,4.1249,4.0608,0.0,0.0,0.0,0.0,0.0,0.0,0.0,0.0,0.0,3.5594,0.0,0.0,0.0,3.6623,0.0,0.0,0.0,0.0,0.0,0.0,0.0,0.0,0.0,0.0,0.0,0.0,0.0,0.0,0.0,3.6053,3.5829,3.5537,3.5504,3.5326,3.4935,3.4902,3.4735,3.4414,3.4414,3.4244,3.3896,3.3862,3.3556,3.2988,3.2917,3.2759,3.2609,3.3051,3.3254,3.3268,3.3788,3.3799,3.3527,3.4087,3.411,3.3796,3.4228,3.4272,3.4076,3.381,3.3556,3.3356,0.0,0.0,0.0,0.0,0.0,0.0,0.0,0.0,0.0,0.0,0.0,0.0,0.0,0.0,0.0,0.0,0.0,0.0,3.9671,0.0,0.0,3.9781,3.9698,3.9641,3.9641,3.9497,3.9397,3.9376,0.0,0.0,0.0,0.0,0.0,0.0,4.2017,0.0,0.0,0.0,4.316,0.0,4.2957,4.2939,0.0,4.2689,4.251,4.2308,4.2115,4.1862,4.1648,0.0,4.1431,4.1232,0.0,4.0954,0.0,0.0,0.0,0.0,0.0,0.0,0.0,0.0,3.5079,0.0,0.0,0.0,3.635,3.635,0.0,0.0,0.0,0.0,0.0,0.0,0.0,0.0,0.0,0.0,0.0,0.0,0.0,0.0,0.0,0.0,3.5686,3.5504,3.5504,3.5326,3.4935,3.4902,3.4735,3.4414,3.4414,3.4244,3.3896,3.3709,3.3417,3.2988,3.2632,3.2727,3.3211,3.3159,3.3373,3.384,3.4241,3.4299,3.4113,3.4549,3.4568,3.4306,3.4371,3.4272,3.4076,3.381,3.3556,3.3356,0.0,0.0,0.0,0.0,0.0,0.0,0.0,0.0,0.0,0.0,0.0,0.0,0.0,0.0,0.0,0.0,0.0,3.9922,0.0,0.0,0.0,0.0,3.9815,3.9804,3.9804,4.0191,4.0359,4.0253,4.098,0.0,0.0,0.0,0.0,0.0,4.2336,0.0,4.3003,0.0,0.0,0.0,0.0,0.0,0.0,4.3274,4.323,4.3371,4.2705,4.2374,4.2191,0.0,4.1238,0.0,0.0,0.0,0.0,0.0,0.0,0.0,0.0,0.0,0.0,0.0,0.0,0.0,0.0,0.0,3.5404,0.0,0.0,0.0,0.0,0.0,0.0,0.0,0.0,0.0,0.0,0.0,0.0,0.0,0.0,0.0,0.0,0.0,0.0,0.0,0.0,3.518,3.4935,3.485,3.4683,3.4414,3.4312,3.4108,3.3896,3.357,3.3227,3.2846,3.2868,3.3001,3.3213,3.3808,3.4153,3.4268,3.4821,3.4834,3.4576,3.4746,3.4618,3.4397,3.4285,3.4076,3.3852,3.3598,3.3398,3.3197,0.0,0.0,0.0,0.0,0.0,0.0,0.0,0.0,0.0,0.0,0.0,0.0,4.0558,4.0568,0.0,0.0,0.0,4.0669,0.0,0.0,4.0571,0.0,0.0,0.0,0.0,4.0953,4.1174,4.107,4.1768,0.0,0.0,0.0,0.0,0.0,0.0,4.3023,4.3669,0.0,0.0,4.4261,4.3978,4.425,4.4703,4.3898,4.3837,4.41,4.333,4.2882,4.2504,4.169,4.1243,0.0,4.0769,0.0,0.0,0.0,0.0,0.0,3.7929,0.0,0.0,0.0,0.0,0.0,0.0,0.0,0.0,0.0,0.0,0.0,0.0,0.0,0.0,0.0,0.0,0.0,0.0,0.0,0.0,0.0,0.0,0.0,0.0,0.0,0.0,3.5155,3.5124,3.5049,3.4835,3.4683,3.4515,3.4312,3.4142,3.3971,3.3827,3.3417,3.3135,3.2966,3.3152,3.3363,3.358,3.4434,3.4765,3.4781,3.513,3.5127,3.4797,3.4714,3.4577,3.4356,3.4105,3.3852,3.367,3.3471,3.3283,3.3124,0.0,3.55,0.0,0.0,0.0,0.0,0.0,0.0,0.0,0.0,0.0,0.0,0.0,0.0,0.0,0.0,0.0,4.2386,4.2337,0.0,4.2283,0.0,0.0,4.2152,0.0,0.0,4.198,4.1764,4.2571,0.0,0.0,0.0,0.0,0.0,0.0,4.3724,4.4176,4.4097,4.4349,4.4778,4.4632,4.4849,4.5188,0.0,4.4014,4.3875,4.3728,0.0,0.0,4.2185,4.1611,0.0,0.0,0.0,0.0,0.0,0.0,0.0,0.0,0.0,0.0,3.6491,0.0,0.0,0.0,0.0,3.5363,0.0,0.0,0.0,0.0,0.0,0.0,0.0,0.0,0.0,0.0,0.0,0.0,0.0,0.0,0.0,0.0,0.0,0.0,3.4233,3.4664,3.4835,3.4698,3.4515,3.4312,3.4128,3.3985,3.3827,3.3605,3.3213,3.3187,3.3578,3.3274,3.3661,3.4734,3.4775,3.5034,3.5372,3.5195,3.5003,3.4756,3.4535,3.4397,3.4356,3.3882,3.3713,3.367,3.3471,3.3283,3.3124,0.0,0.0,0.0,0.0,0.0,0.0,0.0,3.9427,0.0,0.0,0.0,0.0,0.0,0.0,4.2399,0.0,0.0,4.2492,4.2469,4.2416,0.0,0.0,0.0,4.219,0.0,0.0,0.0,0.0,0.0,0.0,0.0,0.0,0.0,0.0,0.0,4.4033,0.0,0.0,0.0,0.0,0.0,4.59,4.5993,0.0,0.0,4.5184,4.4488,4.4017,0.0,4.2434,4.1868,4.1502,4.0786,4.051,4.0337,3.991,3.9504,0.0,0.0,0.0,3.8026,3.7632,0.0,0.0,0.0,0.0,0.0,0.0,0.0,0.0,0.0,0.0,0.0,0.0,0.0,0.0,0.0,0.0,0.0,0.0,0.0,0.0,0.0,0.0,0.0,3.341,3.3839,3.4025,0.0,3.4066,3.4142,3.3985,3.3779,3.3605,3.3396,3.3002,3.3007,3.3394,3.3557,3.403,3.4802,3.5195,3.5332,3.5195,3.5127,3.4867,3.4535,3.4439,3.4314,3.416,3.3839,3.3641,3.3471,3.3283,3.3154,3.3124,3.5558,0.0,0.0,0.0,0.0,0.0,0.0,0.0,0.0,0.0,4.1948,0.0,4.3159,0.0,4.3255,0.0,4.3407,4.3331,4.3327,4.3291,0.0,4.3195,4.3114,0.0,0.0,0.0,0.0,0.0,0.0,4.4119,0.0,0.0,0.0,0.0,0.0,0.0,0.0,0.0,4.5432,0.0,0.0,4.6374,0.0,0.0,4.5972,4.5844,0.0,4.4672,4.4265,4.318,4.2588,4.2152,4.1199,4.0787,4.0552,3.99,3.9425,3.9088,3.886,3.8628,0.0,3.8266,3.8151,0.0,3.7154,0.0,0.0,0.0,0.0,0.0,0.0,0.0,0.0,0.0,0.0,0.0,0.0,0.0,0.0,0.0,0.0,0.0,0.0,0.0,3.2496,3.2573,3.2954,3.3227,0.0,0.0,3.3674,3.3779,3.3521,3.3333,3.3192,3.2775,3.2937,3.3612,3.3794,3.4328,3.5114,3.5533,3.548,3.5086,3.5086,3.4825,3.4397,3.4397,3.4272,3.4076,3.381,3.3598,3.3398,3.3154,3.3124,3.3124,0.0,0.0,0.0,0.0,3.7037,0.0,0.0,0.0,4.1743,0.0,4.2468,4.3235,4.3968,4.4092,4.435,4.4919,4.5009,0.0,4.4941,4.489,0.0,0.0,4.477,4.4672,4.4605,0.0,0.0,0.0,0.0,0.0,0.0,0.0,0.0,0.0,4.3979,0.0,4.4917,4.5529,4.609,4.6566,4.6429,4.6301,4.6189,4.6048,4.5922,4.577,4.5641,4.5044,4.4363,4.4311,4.3709,4.28,4.1919,4.1359,4.0843,4.0007,3.9405,3.8969,3.8832,3.8683,3.8504,3.825,0.0,0.0,0.0,0.0,3.7261,0.0,0.0,0.0,0.0,0.0,0.0,0.0,0.0,0.0,0.0,0.0,0.0,0.0,0.0,0.0,0.0,0.0,3.1544,3.1698,3.206,0.0,0.0,0.0,3.2953,3.3514,3.3164,3.2988,3.2988,3.2596,3.2996,3.4175,3.3984,3.4531,3.571,3.5669,3.548,3.5086,3.5086,3.4825,3.4397,3.4397,3.4272,3.4034,3.381,3.3556,3.3356,3.3154,3.3124,3.3124,3.7486,3.7567,3.7988,0.0,3.9038,3.9181,0.0,0.0,0.0,0.0,4.3588,4.4006,4.4739,4.535,4.5779,4.5929,4.6449,0.0,0.0,0.0,0.0,4.5773,4.5091,4.4672,4.4605,4.443,0.0,4.43,0.0,0.0,4.3915,0.0,0.0,0.0,0.0,0.0,4.4703,4.5267,4.5811,4.6295,4.627,4.6221,0.0,0.0,4.5922,4.577,4.5641,4.539,4.5044,4.4475,4.407,4.3623,4.2723,4.1835,4.1066,4.0644,3.9794,3.8969,3.8832,3.8572,3.825,3.802,3.7876,3.77,0.0,0.0,0.0,0.0,0.0,0.0,0.0,0.0,0.0,0.0,0.0,0.0,0.0,0.0,0.0,0.0,0.0,0.0,0.0,0.0,3.0784,3.0693,3.1238,0.0,0.0,0.0,0.0,3.2499,3.28,3.2846,3.2561,3.2453,3.2923,3.3984,3.3908,3.4531,3.5669,3.5562,3.5358,3.5086,3.4921,3.4714,3.4397,3.4397,3.4147,3.381,3.3725,3.3471,3.3154,3.3124,3.3124,3.3124,3.8175,0.0,0.0,4.0777,0.0,0.0,4.1417,0.0,0.0,4.3883,4.4616,0.0,4.5628,4.6357,4.679,4.674,4.7118,0.0,0.0,0.0,0.0,4.663,4.6091,4.5752,4.5641,4.5099,0.0,4.4683,0.0,0.0,4.3718,0.0,0.0,0.0,0.0,4.4106,0.0,4.5411,4.5914,4.6196,4.6196,0.0,0.0,4.6122,4.5998,4.5871,4.5736,4.5563,4.5328,4.4854,4.4611,4.4333,4.3422,4.2613,4.1809,4.0966,4.0078,3.9297,3.8848,3.8476,3.8135,3.7963,3.7788,3.7671,3.7539,3.7329,3.7194,0.0,0.0,0.0,0.0,0.0,0.0,0.0,0.0,0.0,0.0,0.0,0.0,0.0,0.0,0.0,0.0,0.0,0.0,0.0,0.0,0.0,0.0,0.0,0.0,3.2076,3.2305,3.237,3.2417,3.2322,3.2789,3.3754,3.3754,3.4335,3.544,3.5318,3.5154,3.4962,3.4839,3.466,3.4397,3.4397,3.4189,3.3852,3.3641,3.3398,3.3124,3.3124,3.3124,3.3124,0.0,0.0,0.0,0.0,0.0,0.0,0.0,4.3915,0.0,4.4322,0.0,4.6561,4.6549,4.7231,4.7631,4.7502,0.0,4.764,4.764,4.7532,4.7462,4.7467,4.7286,4.7118,4.7012,4.6117,0.0,0.0,0.0,0.0,0.0,0.0,0.0,0.0,0.0,0.0,0.0,4.5722,4.6246,0.0,4.6221,4.6221,4.6221,4.6196,4.6122,4.5972,4.5846,4.5589,4.5268,4.5093,4.489,4.4585,4.3912,4.3304,4.259,4.1165,4.0332,3.971,3.8839,3.8391,3.8135,3.7963,3.7788,3.7671,3.7539,3.7329,3.715,3.703,3.6831,3.6214,0.0,0.0,0.0,0.0,0.0,0.0,0.0,0.0,0.0,0.0,0.0,0.0,0.0,0.0,0.0,0.0,0.0,0.0,0.0,0.0,0.0,3.1868,3.1702,0.0,3.2381,0.0,3.2698,3.3613,3.3641,3.4179,3.5086,3.5086,3.4962,3.4797,3.4756,3.4618,3.4397,3.4397,3.4272,3.4034,3.3569,3.3283,3.3154,3.3124,3.3124,3.3124,0.0,0.0,0.0,0.0,0.0,4.5111,4.5985,4.563,4.5447,4.5995,4.694,4.7484,4.7326,4.8111,4.8587,4.8458,4.9104,0.0,0.0,0.0,0.0,4.8375,4.7514,4.7022,4.7012,4.6617,4.6015,0.0,0.0,0.0,0.0,0.0,0.0,0.0,0.0,0.0,4.4569,4.5935,0.0,4.6518,4.6423,4.6374,4.635,4.6246,4.6122,4.5972,4.5846,4.5319,4.4629,4.4371,4.376,4.3175,4.3571,4.2949,4.2027,4.1605,4.0729,3.971,3.8839,3.8391,3.8135,3.7963,3.7788,3.7671,3.7539,3.7271,3.703,3.6999,3.6739,3.6107,3.4751,0.0,0.0,0.0,0.0,0.0,0.0,0.0,0.0,0.0,0.0,0.0,0.0,0.0,0.0,0.0,0.0,0.0,0.0,0.0,0.0,0.0,3.1329,0.0,0.0,0.0,3.2939,3.3613,3.3952,3.446,3.5086,3.4921,3.4839,3.4797,3.4577,3.4439,3.4397,3.4397,3.4272,3.4034,3.3569,3.3398,3.3313,3.3154,3.3124,3.3124,0.0,0.0,0.0,0.0,0.0,0.0,0.0,4.7511,0.0,4.7253,4.7917,4.8384,4.8293,4.9023,4.948,4.9377,4.9764,4.9965,4.9857,4.9461,4.9178,4.9126,4.8551,0.0,4.8147,4.7511,4.6903,4.6342,0.0,0.0,0.0,0.0,0.0,0.0,0.0,4.4088,0.0,0.0,0.0,4.659,4.6453,4.6405,4.6398,4.6246,4.6147,4.6073,4.5871,4.5232,4.4446,4.4104,4.3407,4.2722,4.293,4.249,4.181,4.1271,4.0547,3.971,3.8839,3.8391,3.8135,3.7963,3.7788,3.7671,3.7539,3.7241,3.7015,3.7015,3.6724,3.6076,3.4617,3.3123,0.0,0.0,0.0,0.0,0.0,0.0,0.0,0.0,0.0,0.0,0.0,0.0,0.0,0.0,0.0,0.0,0.0,0.0,0.0,0.0,0.0,0.0,0.0,0.0,0.0,3.3471,3.3861,3.427,3.4729,3.466,3.4577,3.4577,3.4452,3.4397,3.4397,3.4397,3.4272,3.4076,3.3865,3.3611,3.3398,3.3283,3.3197,3.3124,0.0,4.4287,0.0,0.0,4.6373,0.0,4.8237,4.9134,4.9298,4.8311,4.884,4.9289,4.9241,4.9764,5.0082,4.9992,4.9978,4.9925,4.9807,4.9778,4.9692,4.9559,4.9434,4.9308,4.9181,4.8364,4.7766,0.0,0.0,0.0,0.0,0.0,0.0,0.0,0.0,0.0,0.0,0.0,4.6684,4.6661,4.6518,4.6429,4.6405,4.627,4.6172,4.6122,4.5871,4.5232,4.4396,4.4043,4.3226,4.2381,4.2102,4.187,4.1525,4.0777,4.0266,3.9738,3.8839,3.8464,3.8221,3.802,3.7847,3.77,3.7553,3.7271,3.7015,3.7015,3.6631,3.5876,3.4512,3.3244,0.0,0.0,0.0,0.0,0.0,0.0,0.0,0.0,0.0,0.0,0.0,0.0,0.0,0.0,0.0,0.0,0.0,0.0,0.0,0.0,0.0,3.1639,3.2395,0.0,3.3068,0.0,3.3886,3.4185,3.4397,3.4397,3.4397,3.4397,3.4397,3.4397,3.4397,3.4397,3.4314,3.416,3.4118,3.3823,3.3484,3.3441,3.3283,3.3124,0.0,0.0,0.0,0.0,0.0,0.0,4.9182,4.9931,5.0141,4.9196,4.9838,5.0267,5.0019,5.0113,5.0114,4.9939,4.9912,4.9885,4.9807,4.9678,4.9559,4.943,4.9292,4.9181,4.9118,4.8837,4.827,0.0,0.0,0.0,0.0,0.0,0.0,0.0,0.0,0.0,0.0,4.6618,4.6957,4.6934,4.6684,4.659,4.6542,4.6295,4.6122,4.5998,4.5846,4.5156,4.4285,4.3973,4.2833,4.1469,4.121,4.1016,4.0829,4.0508,4.0255,3.9851,3.8867,3.856,3.8504,3.8237,3.802,3.7847,3.77,3.7331,3.7015,3.7015,3.6259,3.5353,3.4599,3.3729,3.2909,0.0,0.0,0.0,0.0,0.0,0.0,0.0,0.0,0.0,0.0,0.0,0.0,0.0,0.0,0.0,0.0,0.0,0.0,3.0426,0.0,3.1829,3.3006,3.3338,3.3697,3.41,3.4522,3.4607,3.4397,3.4397,3.4397,3.4397,3.4397,3.4397,3.4397,3.4397,3.4397,3.4356,3.416,3.3937,3.3641,3.3471,3.3283,3.3124,0.0,0.0,0.0,0.0,0.0,0.0,0.0,5.0374,5.0417,4.9934,5.016,5.0325,5.0182,5.0158,5.0095,4.9978,4.9965,4.9898,4.975,4.9692,4.9555,4.9352,4.9244,4.9131,4.8979,4.8786,4.8476,0.0,0.0,0.0,0.0,0.0,0.0,0.0,0.0,4.6265,4.6664,4.6968,4.7066,4.6975,4.6708,4.659,4.6566,4.6295,4.6122,4.5972,4.5846,4.5399,4.4741,4.4101,4.2782,4.1367,4.1161,4.0666,4.0129,4.0024,3.9713,3.932,3.8848,3.8672,3.8548,3.8266,3.8049,3.7876,3.773,3.7331,3.7015,3.7015,3.6212,3.5306,3.4628,3.3862,3.3069,0.0,0.0,0.0,0.0,0.0,0.0,0.0,0.0,0.0,0.0,0.0,0.0,0.0,0.0,0.0,0.0,0.0,0.0,3.0501,0.0,3.2612,3.3101,3.3769,3.4204,3.4366,3.4683,3.4756,3.4618,3.4481,3.4397,3.4397,3.4397,3.4397,3.4397,3.4397,3.4397,3.4397,3.4314,3.4147,3.3894,3.3683,3.3441,3.3283,4.9146,0.0,4.9249,0.0,4.987,5.0,5.047,5.0523,5.0457,5.029,5.0243,5.0188,5.0158,5.0108,5.0044,4.9978,4.9952,4.9871,4.9707,4.9678,4.9559,4.9292,4.9228,0.0,4.8874,4.8696,4.8569,4.8513,4.7736,0.0,0.0,0.0,0.0,0.0,4.6421,4.6769,4.7196,4.7196,4.7111,4.6975,4.6708,4.659,4.6566,4.627,4.6048,4.5922,4.5795,4.5485,4.5054,4.4434,4.3079,4.1604,4.1245,4.049,3.9677,3.9651,3.9388,3.9067,3.886,3.8738,3.8572,3.8323,3.8078,3.7876,3.7788,3.7405,3.7014,3.6938,3.6352,3.5659,3.498,3.4299,3.3576,3.2773,0.0,0.0,0.0,0.0,0.0,0.0,0.0,3.1039,3.0888,0.0,0.0,0.0,0.0,0.0,0.0,0.0,0.0,0.0,0.0,0.0,0.0,3.4343,3.4739,3.4781,3.4927,3.4962,3.488,3.4618,3.4481,3.4397,3.4397,3.4397,3.4397,3.4397,3.4397,3.4397,3.4397,3.4272,3.4076,3.3894,3.3641,3.3398,5.0887,5.0866,5.0836,5.072,5.0625,5.0557,5.0416,5.0337,5.0278,5.02,5.0095,5.0005,5.0005,5.0005,4.9959,4.9912,4.983,4.9778,4.9707,4.9653,4.9483,0.0,0.0,4.9062,4.8804,4.866,4.8569,4.8513,0.0,0.0,4.7974,0.0,4.7014,4.6223,4.696,4.7254,4.7196,4.7196,4.7111,4.6975,4.6708,4.659,4.6566,4.6154,4.5922,4.577,4.5641,4.5327,4.5005,4.5005,4.3793,4.2151,4.1249,4.0395,3.9677,3.9537,3.9405,3.9218,3.8887,3.8805,3.8722,3.8448,3.8164,3.7905,3.7905,3.7522,3.7104,3.6769,3.6677,3.6461,3.5809,3.5245,3.4618,3.382,0.0,0.0,0.0,0.0,0.0,0.0,3.2291,3.1711,3.1511,0.0,0.0,0.0,0.0,0.0,0.0,0.0,0.0,3.2349,3.3239,0.0,3.4761,3.5051,3.5272,3.5386,3.5399,3.5277,3.5086,3.488,3.466,3.4397,3.4397,3.4397,3.4397,3.4397,3.4397,3.4397,3.4397,3.4272,3.4118,3.4118,3.3781,3.3398,5.1687,5.1758,5.1854,5.2309,5.2356,5.2231,5.2069,5.2021,5.196,5.1788,5.1722,5.1492,5.0873,5.0299,4.9906,0.0,4.9885,4.9816,0.0,4.9678,4.9529,4.9211,4.9214,4.9062,4.8804,4.866,4.8569,4.8513,0.0,0.0,0.0,4.7744,4.7488,4.7232,4.7485,4.7468,4.7272,4.7272,4.7098,4.6842,4.6661,4.6542,4.6447,4.6122,4.5922,4.577,4.5641,4.5327,4.5005,4.5005,4.381,4.2252,4.1989,4.0929,3.9824,3.9694,3.9537,3.9352,3.8914,3.8805,3.8722,3.8476,3.8164,3.7905,3.7905,3.7537,3.7134,3.6953,3.6908,3.669,3.6035,3.5769,3.5408,3.4634,3.4381,0.0,0.0,0.0,0.0,0.0,3.2765,3.2507,0.0,3.1878,0.0,0.0,0.0,0.0,0.0,0.0,0.0,0.0,3.3776,0.0,3.5283,3.5619,3.5841,3.5858,3.5562,3.5236,3.488,3.4839,3.466,3.4397,3.4397,3.4397,3.4397,3.4397,3.4397,3.4397,3.4397,3.4356,3.4272,3.416,3.3907,3.3598,5.2585,5.261,5.2694,5.3128,5.3102,5.2966,5.278,5.2743,5.2679,5.2561,5.2534,5.2316,5.174,5.119,0.0,4.9969,4.9885,4.9835,4.9707,4.9634,4.9464,4.9195,4.9181,4.9047,4.8804,0.0,0.0,4.8513,4.8286,4.8131,4.7992,4.7804,4.7717,4.7717,4.7717,4.7554,4.7302,4.7302,4.712,4.6795,4.6661,4.6495,4.6301,4.6023,4.5846,4.571,4.5563,4.5327,4.5086,4.5086,4.4104,4.2836,4.2477,4.1687,4.0788,4.0258,3.9833,3.9472,3.9259,3.9001,3.8722,3.8476,3.8193,3.7992,3.7847,3.7492,3.7164,3.7105,3.7075,3.695,3.6512,3.6289,3.596,3.5477,3.5254,3.5036,3.474,0.0,0.0,0.0,0.0,0.0,0.0,3.2579,0.0,0.0,0.0,0.0,0.0,0.0,0.0,3.3656,3.465,0.0,3.5836,3.6093,3.6166,3.6086,3.5696,3.5358,3.5003,3.4962,3.4797,3.4535,3.4439,3.4397,3.4397,3.4397,3.4397,3.4397,3.4397,3.4397,3.4397,3.4285,3.3979,3.367,5.3591,5.3488,0.0,0.0,5.3207,0.0,5.2889,5.2825,5.2785,5.2766,5.2766,5.274,5.2601,5.2588,5.1901,5.0201,0.0,0.0,0.0,4.9679,4.9487,4.9288,4.9226,4.9072,4.8804,4.8678,4.855,4.8494,4.8169,4.7992,4.7992,4.7804,4.7717,4.7717,4.7678,4.7533,4.7302,4.7298,4.7098,4.6754,4.6637,4.6447,4.6161,4.5897,4.5736,4.5581,4.545,4.53,4.5203,4.5203,4.4616,4.3748,4.2815,4.2473,4.2224,4.1117,4.0234,3.9638,3.9846,3.9362,3.8722,3.8476,3.8294,3.8107,3.7788,3.7478,3.7254,3.7254,3.7254,3.7254,3.7254,3.6839,3.6456,3.6324,3.6119,3.5882,3.5613,0.0,0.0,0.0,0.0,0.0,0.0,3.3121,3.2611,0.0,0.0,0.0,0.0,0.0,3.3934,3.4882,3.5695,3.6221,3.6431,3.6391,3.6286,3.6072,3.5804,3.5602,3.5399,3.5195,3.5003,3.4797,3.4535,3.4397,3.4397,3.4397,3.4397,3.4397,3.4397,3.4397,3.4397,3.4397,3.4105,3.3725,0.0,0.0,5.4448,5.4949,5.4944,5.4827,5.4651,5.4579,5.4572,5.4517,5.4504,5.4248,5.357,5.3405,5.2911,5.1836,5.1712,5.1639,5.1468,5.1359,5.0949,5.0148,5.0065,4.9665,4.8892,4.8696,4.8532,4.8343,4.8111,4.7992,4.7992,4.7804,4.7717,4.7696,4.7575,4.7468,4.728,4.7138,4.6911,4.6637,4.6495,4.6277,4.6023,4.5871,4.5736,4.5581,4.545,4.53,4.5203,4.5203,4.4616,4.3748,4.2936,4.2184,4.1537,4.0966,4.0638,4.0404,4.0022,3.9362,3.8722,3.8476,3.8294,3.8135,3.7905,3.7772,3.7743,3.7743,3.7743,3.7714,3.7596,3.7469,3.7345,3.7212,3.693,3.6659,3.6461,3.6197,0.0,0.0,3.5145,3.4845,3.4633,3.4435,3.4296,0.0,0.0,0.0,0.0,3.5337,3.5709,3.5803,3.5995,3.6322,3.6836,3.6549,3.6192,3.5804,3.5723,3.5602,3.5399,3.5358,3.5113,3.4797,3.4714,3.4577,3.4397,3.4397,3.4397,3.4397,3.4397,3.4397,3.4397,3.4397,3.423,3.3992,5.5216,5.522,5.5247,5.5542,5.5516,5.5408,5.5242,5.5197,5.5189,5.5107,5.5121,5.4936,5.4406,5.4263,5.3985,5.3429,5.2628,5.2099,5.1957,5.1828,5.1524,5.0922,5.0835,5.0392,4.9466,4.9288,4.8882,4.8247,4.8072,4.7972,4.7947,4.7783,4.7675,4.7615,4.7533,4.7403,4.7249,4.707,4.6842,4.659,4.6453,4.6228,4.5972,4.5846,4.5736,4.5581,4.545,4.5371,4.53,4.53,4.4749,4.3932,4.3109,4.245,4.1835,4.1096,4.0618,4.0241,3.9972,3.9362,3.8722,3.8476,3.8294,3.818,3.8049,3.7963,3.7905,3.7905,3.7905,3.7876,3.7817,3.773,3.7687,3.7599,3.7315,3.7044,3.6862,3.6492,0.0,3.5861,3.5539,3.5294,3.518,3.5267,3.5343,3.5257,0.0,0.0,3.6086,3.6384,3.6457,3.6217,3.6423,3.6694,3.6978,3.6589,3.6138,3.571,3.571,3.5642,3.5521,3.544,3.5277,3.5044,3.488,3.4714,3.4577,3.4439,3.4397,3.4397,3.4397,3.4397,3.4397,3.4397,3.4285,3.4118,5.5961,5.5866,5.5745,5.5607,5.548,5.5358,5.5242,5.5216,5.5189,5.5121,5.5162,5.5135,5.5,5.4931,5.4845,5.4673,5.3257,5.2333,5.2287,5.2102,5.1908,5.1727,5.162,5.1175,5.032,5.0158,4.9452,4.8187,4.8198,4.8077,4.7899,4.7759,4.7636,4.7511,4.749,4.7359,4.7196,4.7002,4.6819,4.659,4.6447,4.6228,4.5972,4.5846,4.5736,4.5581,4.545,4.5397,4.538,4.5259,4.482,4.413,4.3167,4.2697,4.2321,4.1219,4.0337,3.9723,3.9885,3.9362,3.8694,3.8448,3.8323,3.8266,3.8266,3.8135,3.8033,3.802,3.802,3.7992,3.7963,3.7847,3.7759,3.77,3.7449,3.7194,3.706,0.0,3.6599,3.6427,3.6103,3.5869,3.5836,3.6049,3.6143,3.6109,3.652,3.6959,0.0,3.7043,3.6787,3.6599,3.6866,3.6978,3.6915,3.6589,3.6138,3.571,3.571,3.571,3.5669,3.5521,3.544,3.5399,3.5044,3.4839,3.4797,3.4535,3.4439,3.4397,3.4397,3.4397,3.4397,3.4397,3.4272,3.416,5.5846,5.5766,5.5662,5.5539,5.5456,5.539,5.5384,5.5261,5.5203,5.5189,5.5149,5.5052,5.4931,5.486,5.4752,5.4538,5.4213,5.4031,5.4015,5.3824,5.34,5.2709,5.2511,5.2029,5.1212,5.1027,5.0023,4.8187,4.8764,4.8623,4.7899,4.7759,4.7636,4.749,4.7385,4.7294,4.7174,4.6819,4.6637,4.659,4.6343,4.6147,4.5972,4.5846,4.5736,4.5581,4.545,4.5397,4.5294,4.4665,4.4397,4.4052,4.2612,4.1992,4.1587,4.0696,4.0087,3.975,4.0012,3.9378,3.8588,3.842,3.8464,3.8532,3.8532,3.86,3.8611,3.8504,3.8476,3.842,3.8209,3.8151,3.802,3.7746,3.7522,3.7328,3.7194,0.0,3.7338,3.7306,3.7473,3.754,3.7372,3.7395,3.7319,3.701,3.7393,3.7592,3.7565,3.7647,3.7634,3.7429,3.713,3.6836,3.651,3.6431,3.6138,3.571,3.571,3.571,3.571,3.5669,3.5562,3.5399,3.5318,3.5127,3.4797,3.4756,3.4577,3.4397,3.4397,3.4397,3.4397,3.4397,3.4397,3.4356,5.5714,5.5629,5.5562,5.5468,5.5395,5.532,5.5307,5.5222,5.5135,5.5094,5.5023,5.4941,5.486,5.4717,5.4587,5.4522,5.4441,5.4392,5.4359,5.4199,5.3887,5.3404,5.3312,5.2809,5.1898,5.1244,5.04,4.9385,4.9628,4.9522,4.9071,4.8507,4.8161,4.8015,4.7473,4.7183,4.7066,4.6731,4.659,4.659,4.6319,4.6147,4.6097,4.5947,4.5821,4.5693,4.5554,4.545,4.5345,4.501,4.4354,4.3586,4.2879,4.1896,4.0912,4.044,3.991,3.9455,3.9408,3.9067,3.8683,3.8532,3.8616,3.8711,3.8711,3.8766,3.8777,3.8711,3.8644,3.856,3.842,3.8294,3.8151,3.7992,3.812,0.0,0.0,3.8309,3.8527,3.8224,3.8227,3.8195,3.8059,3.8141,3.8166,3.8027,3.8201,3.8303,3.8245,3.8353,3.8318,3.8086,3.7395,3.7029,3.7061,3.6636,3.6397,3.6375,3.5913,3.571,3.571,3.571,3.5642,3.5562,3.544,3.5277,3.5127,3.5003,3.4839,3.4618,3.4618,3.4535,3.4397,3.4397,3.4397,3.4397,5.5623,5.5527,5.5468,5.5408,5.5333,5.5268,5.5216,5.5135,5.5071,5.5014,5.4931,5.486,5.4783,5.4622,5.4486,5.4472,5.4407,5.434,5.4254,5.4128,5.4019,5.3851,5.3793,5.3307,5.2279,5.1619,5.0991,5.0396,5.0471,5.0363,5.0027,4.9324,4.8884,4.869,4.7833,4.7379,4.7247,4.6796,4.659,4.659,4.6319,4.6196,4.6189,4.6048,4.5922,4.577,4.5641,4.5528,4.5363,4.519,4.4389,4.3431,4.3241,4.223,4.103,4.0711,4.0162,3.9578,3.9045,3.8887,3.8805,3.8683,3.8738,3.8909,3.9073,3.915,3.9226,3.9319,3.9301,3.9205,3.9121,3.8922,3.8795,3.8692,0.0,0.0,0.0,3.9423,3.9676,3.9277,3.9125,3.8987,3.8834,3.8918,3.8963,3.8928,3.8843,3.8856,3.9003,3.899,3.8898,3.8728,3.7904,3.7559,3.782,3.7161,3.6973,3.7209,3.6348,3.5927,3.5913,3.5778,3.571,3.5669,3.5562,3.544,3.5399,3.5236,3.5003,3.4797,3.4797,3.4618,3.4397,3.4397,3.4397,3.4397,5.5681,5.5456,5.5408,5.5408,5.5288,5.5216,5.5197,5.5094,5.5014,5.5,5.4886,5.4767,5.4705,5.459,5.4472,5.4407,5.4359,5.4254,5.4109,5.4055,5.4,5.4,5.3811,5.3209,5.2143,5.272,5.2147,5.0396,5.1071,5.0877,4.9911,4.9839,4.9667,4.9376,4.8575,4.8166,4.805,4.7027,4.659,4.659,4.6319,4.6196,4.6189,4.6048,4.5922,4.577,4.5641,4.5528,4.5294,4.4596,4.4311,4.4104,4.3414,4.302,4.2628,4.1766,4.1205,4.0637,3.9561,3.9121,3.8942,3.8805,3.8887,3.915,3.9852,4.0144,4.0426,4.0913,4.1016,4.0918,4.0678,4.0606,4.0518,4.0204,0.0,0.0,4.0012,4.0309,4.053,4.045,4.0573,4.0541,4.0351,4.005,3.9814,3.9657,3.9096,3.9062,3.9696,3.9405,3.9271,3.9436,3.8979,3.8653,3.8462,3.82,3.8007,3.7839,3.696,3.6537,3.651,3.5967,3.571,3.571,3.5669,3.5562,3.5399,3.5399,3.5154,3.4797,3.4797,3.4618,3.4397,3.4397,3.4397,3.4397,5.5523,5.5415,5.5403,5.5403,5.5248,5.5135,5.5135,5.5028,5.4946,5.4946,5.4829,5.4739,5.4708,5.4541,5.4424,5.439,5.4342,5.4235,5.4109,5.4055,5.3944,5.3811,5.3657,5.333,5.2794,5.2898,5.2561,5.1766,5.2,5.1878,5.1367,5.0775,5.0424,5.0205,4.9323,4.865,4.8157,4.7666,4.7122,4.659,4.6398,4.6277,4.6196,4.6147,4.5998,4.5795,4.5744,4.5563,4.5363,4.5096,4.4665,4.4259,4.3966,4.3468,4.2911,4.2467,4.2107,4.1707,4.1261,4.0645,4.008,3.9945,3.9962,4.0061,4.0343,4.0741,4.1066,4.1274,4.1267,4.1152,4.107,4.0912,4.0769,4.0651,0.0,4.1055,4.0871,4.1246,4.1437,4.1242,4.1098,4.0916,4.0696,4.0261,4.0142,4.0465,3.9824,3.9696,4.0359,4.0108,4.0173,4.0653,4.0251,3.9775,3.9298,3.8589,3.8352,3.8626,3.7629,3.6971,3.6592,3.6361,3.6062,3.571,3.571,3.5669,3.5629,3.5994,3.5978,3.5702,3.5577,3.5354,3.5079,3.457,3.4397,3.4397,5.5454,5.5403,5.5403,5.5403,5.5254,5.5135,5.5135,5.5028,5.4931,5.4931,5.4799,5.4708,5.4708,5.4526,5.4409,5.4409,5.4306,5.42,5.4109,5.3982,5.3831,5.3656,5.3499,5.3339,5.3127,5.2934,5.2721,5.259,5.2531,5.2428,5.2287,5.1592,5.1203,5.1047,5.0097,4.9406,4.8871,4.8265,4.7613,4.6944,4.6559,4.6326,4.6196,4.6196,4.6048,4.5871,4.5871,4.5718,4.5528,4.5528,4.5165,4.4708,4.4708,4.4079,4.3323,4.3237,4.302,4.2792,4.2739,4.225,4.1597,4.113,4.0998,4.1055,4.125,4.1582,4.1896,4.2071,4.2018,4.1931,4.1902,4.176,4.1569,4.1496,4.1766,4.1936,4.1734,4.1933,4.2013,4.1785,4.1355,4.1034,4.0916,4.053,4.0496,4.0967,4.0517,4.0427,4.0945,4.0856,4.1007,4.1381,4.1001,4.0576,4.0083,3.9228,3.8931,3.9273,3.8269,3.7582,3.7161,3.6971,3.6564,3.5995,3.5995,3.5995,3.6022,3.6429,3.6589,3.6555,3.6358,3.609,3.5811,3.5162,3.4933,3.4933,5.5568,5.5403,5.5403,5.5403,5.5294,5.5197,5.5197,5.508,5.5,5.5,5.4845,5.4708,5.4708,5.4526,5.4409,5.4409,5.4234,5.4109,5.4091,5.385,5.3636,5.3499,5.338,5.3214,5.2999,5.2868,5.2721,5.259,5.2531,5.2428,5.2287,5.2174,5.2029,5.1846,5.0919,5.0513,5.0381,4.871,4.7932,4.7716,4.6788,4.6326,4.6196,4.6196,4.6122,4.5998,4.5998,4.5922,4.5795,4.5795,4.5693,4.5607,4.5607,4.4932,4.4121,4.4121,4.4017,4.3875,4.3759,4.3705,4.342,4.2209,4.1898,4.2071,4.2672,4.2827,4.297,4.3479,4.3598,4.3568,4.3449,4.3402,4.3281,4.2961,4.2899,4.2837,4.2634,4.2302,4.2109,4.2109,4.1521,4.1117,4.1133,4.103,4.0997,4.1013,4.1078,4.1183,4.1408,4.1589,4.1619,4.1396,4.1142,4.0887,4.0702,4.0213,3.9878,3.9686,3.8809,3.8423,3.8396,3.777,3.7202,3.6605,3.6605,3.6605,3.6605,3.6605,3.686,3.7201,3.6917,3.6701,3.6484,3.6197,3.6109,3.6109,5.5454,5.5403,5.5403,5.5403,5.5294,5.5197,5.5197,5.508,5.5,5.5,5.4856,5.4767,5.4767,5.459,5.4439,5.439,5.4234,5.4018,5.3831,5.3657,5.3499,5.3359,5.3318,5.3154,5.2868,5.2806,5.2712,5.2531,5.2503,5.2428,5.2287,5.2174,5.2029,5.1882,5.1508,5.103,5.0441,4.9358,4.8484,4.774,4.6885,4.6398,4.6196,4.6196,4.6122,4.5998,4.5998,4.5922,4.5795,4.5795,4.577,4.5744,4.5744,4.5459,4.5157,4.5157,4.5,4.4797,4.4761,4.4599,4.4211,4.323,4.2879,4.2864,4.3043,4.3325,4.3631,4.3789,4.3704,4.3598,4.3539,4.3462,4.3312,4.3082,4.2945,4.2837,4.2634,4.2302,4.2109,4.2109,4.1521,4.1289,4.1757,4.1341,4.1392,4.2333,4.2309,4.2176,4.2125,4.185,4.166,4.1619,4.1212,4.0887,4.0702,4.0213,3.9966,3.9878,3.9305,3.8817,3.841,3.8233,3.7783,3.7214,3.7214,3.7214,3.7241,3.7704,3.7946,3.7979,3.7605,3.7386,3.7245,3.6385,3.6109,3.6109,5.546,5.5403,5.5498,5.5823,5.5816,5.5853,5.615,5.5831,5.5556,5.5512,5.5114,5.4783,5.4752,5.4587,5.4455,5.4357,5.4128,5.3907,5.3695,5.3519,5.338,5.33,5.3256,5.3127,5.2806,5.2806,5.269,5.2498,5.2498,5.2452,5.2382,5.2198,5.2054,5.198,5.1765,5.1422,5.0923,5.0138,4.9232,4.8274,4.7428,4.6753,4.6253,4.6221,4.6147,4.6073,4.6073,4.6023,4.5947,4.5947,4.5922,4.5871,4.5838,4.5744,4.5667,4.5632,4.5485,4.5353,4.523,4.5032,4.4712,4.4116,4.3849,4.3726,4.3654,4.3808,4.3969,4.3898,4.3734,4.3598,4.3598,4.3539,4.3402,4.3143,4.3021,4.2883,4.2634,4.2302,4.2077,4.2045,4.1691,4.1579,4.1845,4.1816,4.2152,4.3059,4.2867,4.2662,4.2541,4.209,4.18,4.1688,4.1437,4.1184,4.0958,4.053,4.014,3.9892,3.9584,3.9217,3.8776,3.8776,3.845,3.7851,3.7851,3.7851,3.7865,3.8274,3.8559,3.8719,3.834,3.8118,3.7958,3.7187,3.6891,3.6815,5.5766,5.5632,5.5842,5.6587,5.6702,5.6924,5.76,5.702,5.6454,5.6325,5.5492,5.4878,5.4723,5.459,5.4458,5.4307,5.3963,5.3736,5.3656,5.3439,5.3297,5.3297,5.323,5.3082,5.2828,5.2806,5.269,5.2498,5.2498,5.2498,5.2498,5.2246,5.2126,5.2102,5.1815,5.1715,5.1637,5.0834,5.0029,4.9212,4.8221,4.7303,4.6487,4.6288,4.6221,4.6221,4.6196,4.6196,4.6196,4.6196,4.6122,4.5998,4.5871,4.5821,4.5787,4.5641,4.5607,4.5528,4.5274,4.5113,4.4951,4.4831,4.4709,4.4542,4.4367,4.4224,4.4068,4.3956,4.3763,4.3628,4.3598,4.3598,4.3492,4.3157,4.3113,4.299,4.2634,4.2302,4.2077,4.1978,4.2032,4.1992,4.1709,4.2504,4.3128,4.3284,4.293,4.2688,4.2688,4.2325,4.1995,4.1744,4.1688,4.1619,4.1438,4.1001,4.0457,3.9788,3.9744,3.9598,3.9349,3.9349,3.9007,3.8491,3.8491,3.8491,3.8491,3.8491,3.8817,3.9247,3.8997,3.8787,3.8589,3.8304,3.8089,3.79,5.739,5.7351,5.7409,5.7581,5.754,5.7524,5.7681,5.7453,5.7028,5.6367,5.605,5.5598,5.4859,5.4705,5.4541,5.4251,5.3926,5.3617,5.34,5.3339,5.3295,5.3209,5.3206,5.3124,5.2955,5.285,5.269,5.2498,5.2498,5.2498,5.2498,5.2335,5.2198,5.2102,5.1932,5.1808,5.1637,5.0834,5.0332,4.9941,4.8531,4.7777,4.7409,4.6645,4.635,4.635,4.6246,4.6196,4.6196,4.6196,4.6172,4.6147,4.6122,4.5972,4.5795,4.5787,4.5607,4.5423,4.523,4.5113,4.4951,4.4831,4.4709,4.4587,4.4542,4.4384,4.4224,4.4068,4.3939,4.3793,4.3628,4.3598,4.3492,4.3157,4.3113,4.2959,4.2508,4.2238,4.2188,4.2414,4.2231,4.2365,4.3017,4.3366,4.3485,4.3329,4.293,4.2688,4.2688,4.2325,4.2092,4.1995,4.18,4.1702,4.1619,4.1381,4.1015,4.0487,4.0097,3.9804,3.9598,3.9598,3.9428,3.9102,3.9102,3.9102,3.9102,3.9102,3.9183,3.9247,3.8997,3.8863,3.8787,3.8336,3.8167,3.8089,5.7976,5.7905,5.8007,5.8347,5.8377,5.842,5.8718,5.8391,5.7799,5.6888,5.6386,5.5756,5.4846,5.4641,5.4407,5.4036,5.3755,5.3519,5.33,5.3274,5.323,5.3206,5.3185,5.3143,5.2999,5.2868,5.2735,5.2554,5.2503,5.2498,5.2498,5.2358,5.224,5.2084,5.1956,5.1833,5.1672,5.1244,5.0802,5.0325,4.945,4.8613,4.7831,4.7285,4.683,4.6548,4.6766,4.6832,4.6783,4.6783,4.6512,4.6196,4.6196,4.6048,4.5871,4.5821,4.5658,4.5432,4.523,4.5113,4.4951,4.4831,4.4709,4.4615,4.4615,4.444,4.4253,4.4126,4.3998,4.3839,4.3628,4.382,4.3883,4.3651,4.3853,4.3845,4.346,4.3232,4.308,4.2971,4.304,4.3221,4.3677,4.362,4.3463,4.329,4.293,4.2688,4.2688,4.2325,4.2092,4.2092,4.1939,4.1897,4.1897,4.1675,4.1381,4.1043,4.0573,4.014,3.9848,3.973,3.9598,3.9496,3.9349,3.9305,3.9305,3.9305,3.9305,3.9305,3.9158,3.9011,3.8863,3.8594,3.8381,3.8167,5.8459,5.8312,5.8509,5.9078,5.9178,5.9352,5.9839,5.9381,5.8641,5.7648,5.6765,5.5882,5.4994,5.4535,5.4145,5.3794,5.358,5.34,5.3297,5.323,5.3185,5.3185,5.3185,5.3164,5.3042,5.289,5.2721,5.259,5.2531,5.2498,5.2498,5.2382,5.2264,5.2102,5.198,5.1858,5.169,5.169,5.1315,5.0666,5.0425,4.9557,4.8395,4.8132,4.7647,4.7109,4.766,4.7741,4.7623,4.7458,4.6958,4.6372,4.6249,4.6097,4.5947,4.5821,4.5693,4.5528,4.5247,4.5086,4.4951,4.4803,4.4682,4.4615,4.4615,4.4468,4.431,4.4126,4.4098,4.4035,4.384,4.4207,4.4531,4.4422,4.4722,4.4854,4.4506,4.4305,4.3997,4.3553,4.3858,4.4068,4.4004,4.3581,4.329,4.329,4.297,4.2729,4.2688,4.2366,4.2133,4.2092,4.2092,4.2092,4.2092,4.1897,4.1633,4.1396,4.1001,4.0573,4.0053,3.9906,3.9788,3.97,3.9452,3.9349,3.9305,3.9305,3.9305,3.9305,3.9305,3.9145,3.8953,3.8863,3.8562,3.8167,6.0032,6.0022,6.0041,5.9972,5.9962,5.9939,5.9899,5.9826,5.9414,5.8464,5.7616,5.6755,5.576,5.4593,5.3813,5.3641,5.3442,5.3277,5.3227,5.3206,5.3185,5.3185,5.3185,5.3185,5.3185,5.2934,5.2721,5.259,5.2531,5.2498,5.2498,5.2475,5.234,5.2102,5.2078,5.1914,5.169,5.169,5.1637,5.1476,5.0755,5.0363,5.0071,4.929,4.8939,4.885,4.881,4.872,4.8489,4.7676,4.7327,4.7116,4.6407,4.6023,4.5821,4.5812,4.5615,4.5371,4.5086,4.5005,4.4923,4.4682,4.4598,4.4615,4.4615,4.457,4.4485,4.4155,4.4587,4.495,4.4616,4.5012,4.5302,4.5176,4.4903,4.4624,4.4289,4.4118,4.4031,4.3997,4.4018,4.3997,4.4011,4.3581,4.329,4.329,4.3076,4.2875,4.2688,4.2459,4.2284,4.2092,4.2092,4.2092,4.2092,4.2051,4.1829,4.1396,4.1354,4.0972,4.0342,4.0312,4.0095,3.97,3.9656,3.9496,3.9305,3.9305,3.9305,3.9305,3.9305,3.9305,3.9216,3.8769,3.8453,3.8167,6.0394,6.0375,6.0347,6.0148,6.0099,6.0041,5.9872,5.9872,5.9414,5.8011,5.747,5.6651,5.5218,5.4315,5.3698,5.3444,5.3341,5.3256,5.3206,5.3185,5.3185,5.3185,5.3185,5.3185,5.3185,5.2934,5.2761,5.2698,5.2572,5.2498,5.2498,5.2498,5.2405,5.2198,5.2198,5.2102,5.1914,5.1914,5.1914,5.1896,5.1464,5.1003,5.0557,5.0113,4.9648,4.9286,4.9533,4.9541,4.9342,4.8836,4.8099,4.7327,4.6993,4.6687,4.6473,4.6473,4.6291,4.5998,4.5692,4.5313,4.494,4.4654,4.4891,4.5213,4.5213,4.546,4.5467,4.4846,4.5196,4.5577,4.5363,4.5677,4.5978,4.593,4.5812,4.5683,4.5405,4.5158,4.4878,4.4563,4.4311,4.4127,4.4026,4.3714,4.3463,4.329,4.3115,4.2955,4.2875,4.2688,4.2474,4.2284,4.2284,4.2201,4.2092,4.2092,4.187,4.1396,4.1396,4.11,4.0544,4.0428,4.0269,4.0095,3.9832,3.9642,3.9496,3.9349,3.9305,3.9305,3.9305,3.9305,3.9261,3.889,3.8621,3.8408]}]]